GFSGL_850_spd_000.txt.gz
Wind_Speed
18 20 18 18 16 18 19 21 23 27 27 28 29 29 29 30 28 26 27 33 37 40 44 46 48 47 47 46 47 45 46 45 46 50 41 39 39 41 40 34 38 40 37
20 22 23 22 22 23 24 26 27 30 31 31 31 30 32 32 33 33 33 33 33 33 38 41 44 45 47 47 48 50 49 47 43 47 43 39 42 43 43 39 38 42 39
21 21 21 23 26 27 28 29 32 33 34 34 34 34 33 32 31 31 33 36 35 33 32 32 35 40 44 46 48 53 51 49 47 46 49 43 40 43 46 47 43 42 39
20 21 22 23 25 26 29 33 37 37 38 37 37 36 35 35 33 31 30 34 35 37 38 38 37 36 40 44 46 48 52 49 47 47 49 46 45 43 44 45 40 46 42
21 22 22 24 27 30 33 35 35 35 35 36 37 36 34 32 31 31 35 37 38 38 38 38 38 38 37 38 44 48 46 48 47 46 46 43 45 45 42 51 43 46 40
24 26 23 25 28 30 31 31 29 30 31 34 33 33 34 33 34 35 30 36 37 39 42 41 37 37 37 35 36 42 47 51 47 44 48 46 46 49 39 53 41 44 33
24 26 25 30 31 30 30 30 29 30 32 28 31 30 32 33 31 29 31 34 36 40 40 40 40 37 38 36 37 38 43 44 48 54 47 42 49 52 39 48 39 44 37
23 23 28 30 30 31 31 32 32 33 31 33 31 32 33 32 28 27 30 34 38 39 39 38 35 36 35 35 36 42 40 43 44 41 44 52 48 46 45 43 37 40 35
20 26 28 30 32 33 34 35 36 33 33 34 32 32 31 29 28 29 32 35 37 38 33 33 34 38 40 35 38 38 43 41 41 41 41 41 45 46 48 42 36 35 34
26 29 30 32 33 34 34 37 36 33 38 34 36 31 30 29 29 31 34 33 38 39 43 44 41 38 36 38 35 36 42 46 41 43 39 37 46 41 34 42 38 41 33
30 32 34 34 35 35 35 35 35 40 35 38 36 32 30 31 33 34 35 33 32 41 46 48 47 42 41 38 38 36 38 42 44 45 43 36 45 40 35 35 27 29 24
34 35 35 35 35 35 33 34 37 36 36 34 34 33 32 36 40 40 37 33 34 42 45 48 47 46 44 41 40 38 34 34 40 39 41 41 37 34 29 26 24 23 21
32 33 34 35 36 34 34 37 35 32 34 32 33 34 40 45 42 41 39 40 44 44 43 46 46 46 42 39 39 36 31 33 36 37 39 36 31 27 25 25 24 22 18
32 34 36 37 37 39 39 34 35 33 32 33 36 39 41 42 43 40 38 44 47 45 44 45 42 40 38 36 34 30 30 28 31 33 32 28 28 30 27 23 24 20 15
33 36 37 38 39 40 39 37 31 30 31 35 36 37 39 40 41 40 39 44 44 41 39 37 39 42 40 36 33 30 29 24 23 23 23 26 29 29 27 27 22 20 14
33 35 37 37 37 39 37 38 37 33 33 32 33 30 33 34 38 38 42 41 38 34 32 31 39 40 38 35 31 28 24 22 20 17 17 22 28 29 28 25 19 15 13
32 34 35 34 36 35 33 33 37 42 35 31 28 28 30 31 36 38 38 38 33 28 28 29 36 40 38 34 32 29 25 23 21 17 17 21 27 26 25 22 19 15 13
32 33 34 35 33 34 34 34 34 35 35 37 34 32 30 31 37 36 33 36 33 32 27 30 36 41 38 34 30 26 24 22 19 16 16 22 24 24 23 19 16 13 12
33 36 35 34 33 31 32 34 32 31 32 35 34 37 34 35 34 34 35 35 34 34 32 30 36 41 38 33 29 25 23 20 15 14 15 22 25 23 20 15 14 13 11
39 36 30 29 32 34 33 31 32 33 31 31 34 36 37 35 39 42 39 37 36 36 32 32 37 39 37 31 26 23 20 16 14 13 21 24 23 20 16 15 13 12 10
36 35 31 33 32 31 32 32 31 31 33 35 36 34 30 31 37 39 38 37 38 37 32 34 39 38 36 29 23 21 16 13 12 17 24 22 21 17 15 14 13 11 8
35 35 32 32 32 32 32 32 32 34 34 35 35 35 33 32 35 38 37 34 38 31 32 35 37 36 33 25 20 18 14 11 12 19 21 20 17 16 15 13 12 10 7
31 32 33 34 32 32 35 33 32 32 32 32 34 34 33 34 35 37 37 35 36 33 32 35 35 34 30 23 16 15 11 10 11 18 20 18 16 16 14 13 11 9 8
33 35 34 35 35 32 32 35 33 33 32 31 31 30 33 34 34 36 37 36 35 31 33 34 32 31 28 21 14 11 7 5 8 17 17 15 17 16 15 13 11 10 10
38 39 36 34 35 34 33 32 31 32 31 34 31 30 31 32 33 35 36 34 32 31 34 31 30 28 25 18 11 8 3 1 9 18 16 15 15 16 14 12 12 12 12
38 37 37 36 34 33 32 33 35 34 33 33 32 30 31 32 33 33 33 32 29 32 31 28 29 25 22 14 7 4 2 6 13 17 15 16 17 17 15 14 15 14 14

GFSGL_850_spd_003.txt.gz
Wind_Speed
19 19 20 21 23 24 25 24 24 26 29 31 31 32 31 31 30 29 29 30 32 32 32 32 32 32 36 41 44 47 47 48 49 57 51 49 41 42 42 39 44 44 46
19 19 21 22 24 25 25 26 30 35 37 38 37 35 35 35 33 32 31 31 32 31 29 29 31 34 37 38 40 43 45 48 48 49 51 47 48 50 48 45 44 44 48
21 22 23 24 26 27 28 30 33 36 38 38 37 37 38 36 34 33 32 31 34 37 35 34 34 34 37 40 40 41 41 45 47 50 55 51 50 48 47 49 48 48 46
20 23 25 26 29 30 32 35 36 34 33 33 34 36 36 36 37 34 33 38 36 34 34 34 35 35 35 37 38 39 40 42 45 46 48 49 48 50 51 51 51 53 49
25 26 27 28 29 31 32 32 32 31 31 32 34 32 33 34 34 38 36 35 35 33 36 39 40 38 36 35 35 37 38 39 41 42 42 42 43 35 45 42 53 54 51
25 26 27 28 30 31 32 32 32 32 32 33 29 31 31 30 35 30 27 32 33 36 40 42 39 39 37 32 34 36 36 39 42 42 41 41 45 47 34 42 48 44 41
24 24 26 29 32 32 33 33 33 34 35 32 30 35 31 34 29 27 26 28 34 37 37 37 34 33 38 35 39 35 36 40 40 40 41 42 43 44 42 40 40 50 49
23 25 28 30 32 32 33 33 34 34 34 34 36 33 35 35 27 29 25 30 35 36 36 33 35 40 36 36 34 39 40 40 41 37 39 43 42 42 39 42 44 43 45
23 26 28 29 31 31 32 33 33 34 34 35 33 35 33 32 29 24 30 34 41 40 33 36 40 39 38 40 36 41 45 45 43 40 41 42 42 39 36 46 33 42 38
24 26 27 27 28 30 31 32 32 33 35 33 32 32 29 30 31 35 37 43 40 37 36 43 42 40 42 41 43 46 50 47 43 43 42 41 45 40 35 37 36 44 38
25 26 27 28 30 31 33 33 34 34 33 33 32 27 27 30 35 39 35 34 37 36 38 44 47 45 42 40 42 40 42 41 41 40 40 39 43 39 39 37 32 41 42
26 27 29 30 31 33 34 36 36 35 34 33 32 30 33 34 38 36 33 33 34 37 39 44 49 45 41 43 40 38 40 38 34 34 35 35 37 36 31 28 28 29 29
28 30 31 33 34 34 36 37 37 36 35 33 31 35 35 38 38 37 34 35 37 39 41 45 45 41 37 42 37 36 35 34 32 33 34 33 31 26 26 23 19 19 22
29 32 34 36 37 36 36 36 37 36 35 32 35 36 38 40 39 37 38 43 43 43 47 43 37 31 33 38 40 37 36 33 34 32 27 26 23 21 20 19 21 20 19
31 34 36 37 37 38 37 36 36 35 29 33 35 36 37 36 37 37 37 40 39 41 40 35 31 31 36 40 43 40 39 33 31 29 27 22 19 19 21 21 18 17 17
32 33 34 36 37 39 38 40 37 35 32 30 29 27 31 31 33 36 37 36 35 36 33 30 31 32 36 39 41 44 39 32 30 28 23 20 18 21 21 19 17 15 12
30 31 34 36 39 38 38 38 39 44 38 31 28 29 29 29 34 33 32 32 34 30 29 32 33 35 38 40 41 43 39 31 28 26 23 19 19 20 20 20 19 15 12
29 31 35 40 39 36 36 35 36 36 36 39 35 29 30 32 32 30 30 37 40 33 31 33 35 36 38 42 44 42 36 30 26 24 21 17 16 18 21 19 16 14 12
30 33 38 36 33 31 33 36 33 33 34 35 37 36 37 35 31 30 34 38 36 33 36 35 34 36 40 42 43 39 33 28 22 20 17 13 13 17 18 15 13 12 11
35 35 33 32 32 34 33 32 33 33 34 35 35 37 38 36 36 37 37 37 37 32 37 36 34 38 40 38 43 37 30 24 20 14 11 10 12 13 13 13 13 12 11
37 38 33 32 33 32 32 33 33 32 33 33 36 36 31 32 35 35 36 36 37 36 36 35 35 38 40 37 41 34 26 21 16 12 9 8 9 12 11 12 11 11 9
36 35 33 32 34 33 33 31 33 34 35 34 35 36 31 32 33 34 34 35 36 37 36 30 34 37 38 35 39 31 21 17 13 9 5 8 10 12 13 12 12 10 7
34 32 33 35 35 33 34 32 33 33 34 34 32 32 33 32 31 30 34 35 36 37 33 31 36 36 35 33 33 24 15 11 8 3 5 9 11 13 12 12 11 8 7
32 34 35 34 36 32 33 34 32 32 30 30 34 34 32 29 30 31 32 32 34 35 29 32 34 34 33 31 29 18 10 6 2 5 8 10 13 13 13 11 9 8 7
35 36 36 35 34 35 35 33 31 30 34 34 32 32 30 29 30 29 30 31 31 32 32 32 31 32 30 27 20 11 6 4 6 8 10 10 12 13 12 10 10 9 8
36 34 35 34 34 34 32 34 35 33 32 32 31 31 30 29 27 29 26 28 30 31 30 30 29 30 27 22 13 5 5 8 10 10 10 12 13 14 13 13 12 11 11

GFSGL_850_spd_006.txt.gz
Wind_Speed
15 16 18 20 22 24 25 27 29 32 34 37 37 36 35 35 34 33 31 31 30 29 29 34 34 33 35 36 37 39 41 40 40 52 41 43 45 48 49 52 50 49 49
17 18 20 23 25 26 27 29 31 33 34 34 34 35 36 36 34 33 33 28 31 37 38 35 32 30 31 34 37 39 41 42 41 44 49 42 42 44 50 53 53 54 54
19 21 22 24 25 27 29 30 31 31 31 32 32 33 33 33 34 34 29 33 37 36 32 27 30 33 38 39 37 37 40 42 43 40 47 44 41 42 43 47 50 53 50
22 24 25 25 25 26 27 29 31 31 32 33 33 33 32 33 33 32 35 36 38 34 29 30 35 36 37 35 34 34 35 37 38 39 40 41 40 39 36 40 43 45 50
22 22 21 22 25 27 29 30 30 31 31 32 34 34 33 33 33 33 36 39 38 34 34 36 38 37 35 26 33 36 35 40 42 39 40 40 40 36 38 40 44 44 45
20 20 22 25 27 28 29 29 29 30 30 31 32 33 35 35 32 33 35 38 31 32 38 40 39 40 34 35 35 33 33 33 36 38 41 39 41 42 41 41 40 41 35
18 20 22 25 26 27 28 29 29 31 32 33 33 33 33 33 32 30 33 28 35 37 40 44 43 38 37 40 39 39 41 36 33 37 40 41 40 40 38 41 39 40 44
21 23 24 25 27 28 29 30 32 32 34 34 34 33 34 33 28 29 29 41 45 45 41 45 38 37 42 38 41 45 45 44 43 40 40 44 43 43 38 43 47 43 47
23 24 25 26 28 29 31 32 32 34 35 35 33 33 31 28 28 32 38 42 41 40 38 34 32 38 38 36 40 44 44 50 45 43 43 45 43 42 39 40 42 38 37
24 24 25 26 27 29 30 32 34 34 35 34 35 31 29 27 33 34 33 35 37 37 37 38 36 36 39 40 40 40 45 46 48 50 50 45 40 36 35 39 36 33 34
24 25 26 26 28 30 32 32 34 35 36 36 36 34 30 30 35 32 32 32 34 36 37 38 41 44 43 42 38 36 37 41 43 45 42 39 35 35 31 30 29 25 32
24 26 27 29 30 31 32 34 35 36 36 37 36 34 33 34 34 31 31 30 32 37 38 41 43 44 39 37 33 34 36 38 38 41 39 36 33 30 27 26 25 25 25
26 28 30 31 31 32 33 35 36 36 35 36 32 34 37 39 36 35 32 34 37 37 37 38 40 36 33 33 31 33 36 40 39 39 37 35 32 30 27 24 22 19 18
29 31 32 33 34 33 34 35 35 34 33 31 33 35 36 37 37 36 37 41 39 39 38 43 36 33 32 32 34 37 40 39 39 37 36 32 29 28 23 19 15 9 12
30 32 33 33 33 35 37 37 35 33 26 30 33 34 35 36 36 34 36 36 36 35 38 37 36 38 38 39 37 40 40 42 41 39 35 31 28 25 21 15 11 12 16
32 32 31 32 34 38 39 40 36 32 30 27 28 27 30 29 30 34 33 33 31 35 35 31 37 38 36 38 39 42 43 43 42 40 31 27 25 23 19 12 11 10 11
30 31 32 33 35 37 37 35 38 42 34 30 27 27 28 29 33 33 31 29 33 32 34 31 37 38 38 38 40 41 44 45 43 36 29 24 20 18 13 11 10 9 11
28 28 30 34 35 35 34 33 33 36 37 39 35 30 29 31 32 31 30 31 38 37 33 34 39 39 36 39 42 44 40 44 41 33 28 22 16 11 10 9 10 10 11
28 30 31 33 33 30 32 33 33 32 34 36 38 36 34 33 31 30 29 32 34 37 35 39 40 39 37 39 44 41 39 43 37 30 25 19 13 8 6 6 8 9 9
30 31 29 31 31 32 31 31 32 33 34 35 35 35 37 37 35 35 35 34 34 35 38 41 42 37 36 42 42 40 40 42 33 27 22 16 10 4 2 6 7 8 8
32 33 30 32 29 31 31 31 33 33 32 35 35 35 31 33 36 37 32 32 34 35 39 40 40 36 40 41 40 39 38 37 28 22 17 11 6 2 5 7 8 8 7
31 32 30 30 32 32 30 31 32 33 34 34 35 35 30 34 33 32 30 33 34 35 36 38 37 35 39 40 39 37 34 31 21 16 11 7 4 5 7 8 8 7 7
29 30 33 34 32 30 34 32 35 34 34 33 32 33 34 32 31 30 31 32 34 34 35 36 36 38 36 37 35 31 28 22 15 9 7 5 5 6 8 9 8 7 8
31 33 33 32 32 31 33 34 32 32 30 31 33 32 31 30 31 30 29 31 31 32 34 36 36 35 36 36 32 25 21 13 7 6 7 5 6 9 9 8 8 9 7
34 35 34 33 33 33 33 32 31 31 32 30 31 30 30 30 28 30 30 30 30 32 34 35 33 33 35 33 26 20 13 6 7 9 8 8 9 10 8 9 11 9 8
36 34 34 33 31 31 30 31 31 30 31 31 30 31 30 30 28 28 29 29 30 30 34 33 32 31 33 28 20 13 6 8 11 10 10 10 10 10 11 11 12 12 16

GFSGL_850_spd_009.txt.gz
Wind_Speed
14 16 18 21 24 26 28 29 30 30 31 32 33 34 34 34 34 33 33 31 27 31 36 36 34 29 27 30 33 36 39 36 35 51 43 40 39 38 40 41 43 44 45
15 18 22 25 27 28 27 28 30 32 32 33 33 33 34 34 33 33 33 30 34 38 37 34 29 29 31 33 34 37 37 36 34 37 49 46 38 38 41 41 40 41 41
20 23 26 27 26 26 28 29 30 30 30 30 31 33 34 34 34 33 31 34 37 39 37 30 28 32 31 35 34 30 30 37 38 36 40 43 47 42 40 43 41 41 39
22 24 24 23 24 26 26 26 27 28 29 31 32 33 35 36 36 35 35 35 37 37 30 27 31 31 34 37 33 31 38 40 36 35 35 40 41 43 38 38 38 35 36
23 22 22 23 25 25 26 27 27 28 30 31 33 34 34 34 34 35 35 35 35 36 36 38 39 40 41 37 30 39 41 38 35 38 36 36 40 40 37 39 41 40 43
22 21 23 24 25 25 26 27 28 30 31 33 34 35 36 35 34 32 31 30 36 41 46 47 45 47 44 36 38 39 34 32 36 36 37 38 44 40 41 39 42 44 46
20 21 23 24 25 26 27 29 31 33 35 36 36 36 36 36 34 31 30 33 41 44 43 44 44 39 36 35 39 38 40 38 35 36 38 39 44 43 44 44 40 40 43
20 22 23 24 26 28 30 31 33 34 36 36 37 36 36 36 33 30 32 36 38 39 39 37 38 38 38 36 40 43 44 49 45 38 36 39 44 47 44 45 50 49 49
21 23 24 26 28 30 32 33 33 35 36 36 36 36 36 36 32 32 33 35 37 38 37 38 37 38 37 38 42 46 49 47 42 37 41 45 41 45 38 37 41 39 41
23 24 24 26 28 30 31 33 33 33 35 36 37 36 35 35 35 31 31 32 36 37 39 39 38 37 39 39 43 45 44 39 37 44 48 46 40 38 30 30 35 40 42
23 24 25 26 29 30 31 31 33 35 36 37 38 38 37 35 36 32 30 32 35 38 42 42 42 39 38 43 38 39 37 37 39 40 41 42 40 38 36 32 31 31 32
24 25 27 29 30 31 31 34 35 36 36 37 38 39 38 38 37 32 31 31 33 38 39 42 39 41 42 38 38 35 36 34 34 38 39 41 41 39 38 34 30 27 26
26 28 29 31 32 32 33 35 36 36 35 36 35 36 38 40 39 35 33 32 36 37 40 35 40 41 37 39 35 33 30 33 37 39 39 42 42 40 35 30 27 25 24
28 30 32 33 34 34 34 36 36 35 35 32 33 35 38 39 37 37 38 40 39 42 35 38 45 39 34 37 35 34 33 34 34 36 41 42 42 34 31 26 24 19 16
29 32 34 35 35 36 37 37 36 34 26 29 32 34 35 36 36 34 35 38 37 36 36 42 46 37 41 39 39 38 38 40 38 37 40 41 38 32 28 23 17 14 10
32 34 33 34 35 36 39 41 37 32 28 28 27 27 30 30 32 34 34 33 35 33 37 38 39 37 37 39 41 41 42 44 41 39 39 40 36 30 23 18 13 10 8
31 32 33 32 35 36 38 38 38 37 29 32 28 27 28 30 32 33 33 33 32 35 35 36 36 37 38 41 40 39 44 44 42 39 39 37 30 23 16 13 6 4 5
29 29 30 33 34 36 36 34 34 34 33 35 36 30 29 30 32 31 31 36 40 32 31 33 36 37 39 41 40 41 48 45 41 40 40 32 25 17 13 9 3 3 7
29 31 33 33 33 31 33 32 34 31 32 36 37 36 34 33 31 27 34 36 33 32 33 37 37 38 40 41 39 45 45 43 39 38 36 26 19 13 9 2 4 7 7
31 32 31 32 31 32 33 33 31 32 35 34 36 37 38 36 33 40 38 33 31 33 37 39 37 40 40 39 42 45 43 39 37 36 27 20 15 9 4 8 8 8 7
33 32 31 29 31 33 33 32 32 34 34 37 36 37 31 33 38 37 35 35 34 34 37 37 39 41 39 41 42 42 39 36 32 30 21 16 11 9 9 8 10 9 8
31 29 28 31 33 34 32 31 33 34 35 34 37 35 30 34 33 34 35 34 33 34 35 36 39 40 39 40 42 39 35 32 28 21 15 12 10 9 10 9 9 9 8
26 28 31 34 34 31 33 32 35 33 33 33 33 33 33 33 31 33 33 33 33 34 35 34 38 39 37 38 38 32 29 25 21 13 11 9 8 9 9 9 9 9 9
29 31 33 35 33 30 33 33 32 32 29 30 31 31 30 30 32 32 31 31 34 35 34 34 37 37 36 39 33 24 21 18 11 8 9 8 9 9 9 10 10 11 12
31 33 34 34 34 33 32 32 32 31 30 31 32 29 31 31 32 30 31 33 34 33 34 34 36 35 37 36 25 19 19 12 8 9 9 9 10 12 12 13 15 14 15
33 33 32 31 31 31 32 32 31 31 32 31 30 31 31 31 29 30 33 33 32 33 32 33 34 33 36 29 18 15 14 9 9 10 11 12 11 13 16 18 19 17 16

GFSGL_850_spd_012.txt.gz
Wind_Speed
12 15 18 22 24 25 26 26 27 27 28 29 30 30 31 32 33 33 33 33 34 35 36 36 33 27 26 29 28 31 33 29 30 43 41 47 47 43 40 40 41 43 41
13 17 22 24 25 25 25 26 27 28 27 28 29 31 32 34 35 36 36 36 36 37 37 33 29 28 31 33 34 38 37 26 31 37 49 48 44 43 44 42 39 40 43
18 23 25 24 24 25 25 26 25 26 27 29 31 34 35 37 37 37 37 39 38 37 35 35 37 37 39 41 42 41 32 29 37 38 46 47 48 46 39 39 42 43 36
23 24 23 23 25 25 25 25 26 28 30 32 33 35 36 37 37 37 38 39 39 36 39 42 43 41 40 40 37 36 32 39 38 33 34 39 41 41 37 38 45 42 44
23 23 23 24 25 25 25 27 28 29 31 33 35 36 37 38 38 38 37 37 37 40 42 44 44 43 36 30 34 36 36 38 37 36 38 36 38 37 37 37 40 44 43
23 24 25 25 25 25 26 28 30 32 34 36 38 39 40 39 38 36 32 34 35 40 42 42 40 38 35 36 35 35 35 38 40 41 41 41 42 40 38 40 35 40 47
24 24 24 24 25 26 28 30 33 35 38 38 39 39 39 38 37 34 31 31 36 37 38 38 39 39 38 39 41 40 41 38 37 42 45 44 42 39 39 43 44 40 45
21 24 24 25 26 28 30 33 35 37 38 38 38 37 37 38 36 33 30 33 35 35 37 38 38 40 41 39 42 44 44 46 45 40 41 43 41 38 37 44 44 49 47
21 22 23 25 27 30 32 34 35 36 37 37 38 38 38 39 36 30 32 34 35 38 38 39 36 38 39 39 41 47 49 47 46 41 37 37 37 41 40 36 40 38 37
20 22 23 25 28 31 32 34 34 34 37 39 40 39 38 38 36 31 31 33 36 39 41 41 37 37 38 37 44 44 41 48 46 48 46 42 39 35 31 31 34 36 34
21 22 24 26 29 31 33 32 34 37 39 39 42 42 39 35 35 31 31 32 34 38 41 43 44 38 35 43 42 39 39 40 43 41 40 38 38 36 36 36 34 34 36
22 24 26 28 30 31 32 34 36 38 40 42 42 42 38 34 35 32 31 30 32 36 42 45 46 32 41 43 36 36 37 34 34 38 39 39 39 37 38 40 34 29 27
25 27 28 30 31 31 34 36 39 39 39 39 37 36 36 37 39 35 32 33 34 37 40 39 38 37 43 40 36 35 34 33 37 39 41 39 39 36 39 40 32 27 23
27 28 30 32 35 35 35 36 38 38 36 33 32 35 39 39 38 38 38 39 39 40 41 37 39 43 43 36 39 42 39 35 34 39 42 40 38 36 40 37 30 24 20
27 29 33 35 36 37 37 37 36 34 27 29 32 34 36 37 37 34 35 37 39 38 39 39 41 41 42 41 42 42 42 41 39 45 43 41 42 37 39 31 24 18 14
30 33 34 36 37 38 39 41 37 31 26 27 27 26 30 30 31 34 34 35 34 38 40 34 34 36 38 39 41 43 43 42 43 46 43 41 42 36 32 25 18 12 9
31 33 35 35 36 37 38 38 40 39 33 30 27 28 28 31 32 33 32 31 37 35 33 30 36 36 38 39 41 41 45 45 47 44 43 41 38 32 23 19 12 6 1
31 32 33 34 35 36 34 34 34 35 37 37 35 30 30 31 31 31 29 37 39 36 30 34 35 38 39 40 42 44 46 47 46 43 38 36 31 23 18 13 6 3 5
31 32 33 34 33 31 33 34 34 32 32 36 36 36 34 32 31 26 36 37 35 34 35 36 37 38 39 43 43 44 45 46 41 38 35 33 25 19 13 8 6 5 4
32 32 32 32 31 32 33 33 32 32 34 34 35 37 38 37 31 41 38 34 34 35 36 37 38 38 41 42 43 45 45 43 38 34 32 28 19 13 10 7 5 4 6
33 32 30 29 31 33 34 31 32 33 33 35 36 37 32 32 37 35 34 35 35 35 36 36 38 39 40 41 43 44 41 37 33 29 27 20 15 12 9 7 8 8 7
32 30 29 30 32 34 30 31 32 33 33 34 34 34 30 32 32 32 35 34 33 34 36 37 38 38 40 42 43 40 35 33 29 24 21 15 11 10 10 9 8 7 7
28 29 31 33 34 31 33 32 34 34 32 32 31 32 33 30 31 33 32 33 35 36 36 36 36 39 39 41 39 30 30 26 23 19 14 11 10 10 9 8 7 7 9
29 31 32 34 35 30 33 34 34 33 29 32 33 31 29 31 33 33 32 34 35 36 36 36 36 37 40 39 29 23 20 19 18 12 10 10 11 10 9 8 11 13 11
30 31 33 34 33 33 32 33 34 33 32 33 32 30 32 32 31 30 32 34 35 36 36 34 35 36 38 29 22 17 17 17 11 10 11 12 11 13 14 14 14 12 12
31 32 32 32 31 30 32 32 32 33 34 32 30 31 30 30 30 32 32 34 34 34 33 33 33 36 30 22 18 16 16 12 11 11 12 13 14 17 18 17 15 14 15

GFSGL_850_spd_015.txt.gz
Wind_Speed
6 10 15 18 21 23 24 23 22 22 22 23 25 26 28 31 33 34 35 36 37 35 34 33 29 23 34 35 32 30 32 32 32 50 40 39 42 47 46 42 44 43 43
8 14 18 20 22 22 21 21 21 21 22 24 26 29 31 33 35 36 37 36 35 34 33 26 28 31 35 30 31 30 31 28 33 39 39 45 42 39 38 44 43 34 39
13 18 21 23 22 21 21 21 22 23 24 26 29 32 34 35 36 36 36 36 34 33 30 30 35 33 33 32 30 31 28 33 33 35 41 41 40 37 41 41 39 43 39
16 21 24 24 22 21 21 21 22 24 27 29 31 33 34 36 36 36 36 35 34 33 31 34 32 30 30 32 32 32 34 36 36 36 38 40 40 41 40 43 43 40 41
18 20 22 20 21 21 21 22 24 27 29 31 34 35 36 36 36 36 33 33 34 35 36 34 32 31 30 30 32 38 37 38 40 40 40 39 39 41 43 43 40 42 40
17 18 18 21 21 21 22 25 27 29 32 34 36 37 37 36 35 34 33 32 31 32 35 34 32 33 31 32 35 34 34 38 41 41 43 41 43 44 46 42 44 40 39
16 17 18 20 21 22 24 27 30 33 36 37 36 36 37 36 36 35 30 28 31 31 31 34 37 33 34 37 36 36 37 36 38 40 42 41 41 47 43 45 44 34 41
17 18 18 20 22 24 27 29 32 35 37 37 37 36 38 38 36 32 28 29 32 30 31 32 33 35 38 35 39 36 42 51 42 39 40 42 41 44 42 42 42 45 42
17 17 19 22 24 27 29 32 34 36 37 38 38 39 39 39 35 30 29 32 34 33 33 34 31 39 37 36 36 40 48 48 45 38 38 38 37 40 35 35 38 35 37
16 18 20 23 25 28 31 33 34 36 38 39 40 39 37 37 34 28 29 32 36 37 36 32 35 36 37 30 38 44 46 46 45 47 48 45 35 34 29 29 31 35 36
17 19 20 23 27 29 32 33 35 37 39 40 41 39 37 33 31 29 30 32 34 38 41 40 40 39 30 36 41 42 38 41 43 44 38 36 35 38 35 32 30 32 37
18 20 23 25 28 31 33 34 35 38 39 40 41 39 35 31 31 30 30 29 31 36 39 43 43 40 42 41 40 36 36 36 38 34 36 38 38 41 36 33 29 30 37
20 23 25 28 31 32 34 35 37 37 37 38 36 35 35 38 35 31 30 31 33 36 39 36 38 43 40 38 40 37 33 35 36 38 39 39 41 40 37 33 31 33 31
22 25 28 32 34 33 33 34 35 35 34 31 32 33 36 37 36 37 37 39 37 39 36 42 43 36 31 36 40 37 36 35 35 37 39 41 42 39 37 34 32 31 25
24 28 31 32 33 35 35 34 34 31 25 28 31 31 33 34 35 33 35 37 37 35 41 42 38 33 37 39 39 37 38 39 39 40 40 42 41 39 37 32 31 23 18
28 31 31 32 34 35 36 37 32 29 26 25 24 25 29 28 31 34 34 33 32 37 37 35 34 33 36 39 40 41 42 42 42 44 41 41 40 38 36 29 18 14 10
29 29 31 32 33 34 34 34 38 35 31 27 24 25 26 29 32 32 32 30 36 34 31 33 33 36 38 39 39 40 44 45 45 42 42 40 37 35 29 20 14 10 5
28 28 31 32 32 32 30 33 33 35 35 32 32 28 28 30 30 31 29 37 37 31 32 33 36 37 38 39 41 43 45 46 44 42 38 35 34 27 20 16 13 9 7
29 31 32 32 30 28 30 31 32 30 31 33 35 33 31 30 31 29 35 32 33 34 34 36 37 37 38 40 43 44 45 44 40 38 33 32 27 22 19 16 13 9 7
30 30 30 29 28 29 30 32 30 30 32 33 34 35 35 35 35 39 33 33 34 34 36 37 37 36 39 41 43 45 44 41 38 33 30 28 24 20 17 14 12 10 9
30 31 28 26 28 30 31 29 29 31 32 32 34 34 30 32 35 30 34 34 34 35 36 35 35 39 40 42 44 42 39 37 33 30 27 24 20 18 16 14 12 11 10
30 29 27 28 30 31 27 29 31 31 32 32 33 35 29 29 29 32 33 34 33 33 33 35 38 39 40 42 41 37 34 32 29 26 24 20 18 16 14 12 11 10 10
28 27 29 30 31 29 31 31 32 32 32 31 32 34 30 29 31 33 34 32 33 34 36 36 37 39 40 39 33 29 28 27 25 22 20 18 16 14 12 11 11 10 11
28 29 30 31 31 29 31 31 31 31 28 29 32 30 29 31 33 31 31 32 34 36 35 36 35 37 40 32 27 22 21 22 20 17 16 14 14 13 12 12 11 10 10
28 29 29 30 30 30 30 30 31 30 31 31 31 30 31 32 30 31 30 31 34 34 34 34 33 39 30 24 21 19 20 16 15 14 13 13 14 14 13 13 12 11 11
28 29 29 29 28 28 29 30 30 31 31 30 30 33 31 29 30 30 31 32 32 32 32 31 36 31 23 22 23 20 16 15 14 14 13 15 14 14 12 13 14 13 13

GFSGL_850_spd_018.txt.gz
Wind_Speed
1 6 10 13 16 18 19 19 18 18 19 19 21 23 24 27 27 27 27 24 24 25 24 25 26 25 27 28 29 29 29 31 33 43 38 44 43 41 41 41 41 39 42
3 7 11 15 18 20 19 18 17 18 19 20 22 24 26 28 30 29 26 24 25 25 26 26 27 26 29 29 28 30 31 32 33 37 43 43 43 43 42 40 42 41 42
4 8 12 16 19 19 18 17 17 18 19 22 24 26 29 30 31 28 25 26 26 26 27 28 28 29 30 29 30 32 32 33 36 39 43 41 42 42 42 41 40 41 43
5 9 12 15 17 18 18 18 18 20 22 24 26 28 30 31 30 25 30 27 28 27 28 28 29 28 29 31 33 32 33 37 39 39 39 40 40 44 41 40 42 42 41
8 11 13 17 18 17 17 18 20 22 24 26 28 29 30 30 25 33 32 29 28 29 28 29 29 29 30 29 31 36 36 40 40 39 39 40 44 44 42 42 40 44 47
10 12 16 18 18 16 17 20 22 25 26 28 29 29 29 29 32 33 31 28 28 29 30 31 30 30 29 32 33 35 34 38 42 36 38 43 46 40 42 44 42 42 44
13 15 17 16 16 17 20 22 25 27 30 29 28 29 31 31 32 32 28 27 28 28 29 31 32 31 33 33 37 37 38 40 30 37 42 43 44 44 43 46 45 42 45
15 16 16 15 17 19 22 25 28 29 28 27 27 30 30 27 30 26 27 26 28 28 28 29 31 34 33 36 41 43 36 34 38 42 42 42 44 45 44 44 45 48 49
16 15 15 17 19 22 25 28 29 30 29 27 29 27 28 28 26 26 26 28 29 30 29 29 33 35 35 38 42 39 42 43 45 40 38 41 40 40 35 36 40 38 40
15 15 16 19 21 24 27 28 29 28 28 29 27 25 25 26 23 24 26 28 31 33 33 33 33 34 38 38 41 47 44 43 46 48 45 41 34 32 30 29 34 38 37
14 16 18 20 23 26 28 28 27 28 29 28 26 24 22 21 24 26 27 28 31 36 39 39 38 37 38 44 44 42 38 43 46 41 40 38 37 36 35 35 36 36 39
15 17 20 22 25 27 27 27 27 26 27 27 26 23 21 22 24 26 28 29 31 34 40 40 41 38 44 42 38 33 38 37 37 38 39 40 40 41 39 38 36 33 31
17 19 21 24 26 25 25 26 26 25 24 25 24 26 27 26 26 27 30 32 34 36 37 39 39 43 39 36 31 36 32 34 36 39 39 41 42 41 39 39 35 32 30
17 20 23 25 26 24 26 25 25 23 23 23 25 28 31 29 29 31 35 39 39 38 38 38 41 35 32 32 34 35 34 34 35 38 40 42 41 40 40 37 36 32 30
18 22 23 25 25 26 27 25 25 23 21 24 26 28 31 33 32 33 35 39 38 38 39 41 34 34 36 37 36 36 37 39 39 40 41 41 41 40 39 33 30 29 23
21 22 24 26 26 28 26 25 21 22 23 23 24 24 27 29 31 34 35 34 35 35 37 32 33 34 35 37 38 40 41 40 41 42 40 40 39 36 36 32 24 17 14
22 23 25 25 25 24 23 23 27 25 22 22 22 24 26 29 32 33 33 33 33 30 29 31 32 34 36 38 38 40 42 43 41 39 39 36 32 31 29 23 20 14 12
23 26 27 26 24 23 22 23 24 25 27 27 25 26 27 28 30 32 31 32 27 28 30 31 34 36 37 38 39 42 43 42 41 38 35 32 29 28 24 21 18 17 14
25 26 27 26 24 24 22 22 22 24 25 27 30 28 27 27 30 28 29 25 28 31 32 34 35 36 37 37 41 43 41 40 36 35 32 28 25 23 20 18 16 13 12
26 27 28 26 22 20 20 21 22 23 26 28 28 29 29 33 34 31 27 28 30 32 34 35 36 35 35 40 42 41 40 37 35 32 29 26 23 20 19 18 15 15 13
27 28 26 22 20 20 21 21 23 25 25 28 28 27 29 31 30 28 30 30 32 33 33 33 35 35 39 41 40 38 34 34 32 30 28 24 21 20 18 18 15 13 12
27 25 23 21 20 20 21 23 22 23 24 26 29 28 28 26 26 28 31 32 31 30 31 32 34 37 40 39 36 33 32 32 30 27 25 24 22 19 16 14 12 12 12
24 22 21 20 20 21 21 21 22 22 24 25 27 28 26 26 28 30 30 29 31 31 31 33 34 38 37 32 29 27 30 28 27 25 24 21 19 16 14 13 12 11 9
20 19 20 21 21 22 21 21 22 23 23 25 25 25 26 28 29 27 28 29 30 31 33 32 33 38 32 29 28 23 20 24 24 22 18 17 16 14 14 12 11 10 9
20 20 22 22 21 21 21 22 22 23 24 24 25 25 27 27 25 27 28 29 31 33 32 29 35 34 29 26 24 21 22 21 20 16 15 13 15 13 13 12 11 11 12
23 25 25 24 23 23 24 25 25 25 25 25 26 27 26 26 27 28 30 30 31 31 29 29 35 29 27 24 21 21 21 20 16 13 12 14 15 14 14 13 11 11 10

GFSGL_850_spd_021.txt.gz
Wind_Speed
3 0 3 6 10 13 15 17 18 16 16 17 19 21 23 25 26 26 25 24 22 26 26 28 30 30 31 31 32 33 34 32 37 46 44 44 46 45 43 39 40 37 40
3 2 5 8 12 14 16 17 15 15 17 19 21 23 25 25 26 25 25 22 26 28 29 30 31 31 32 32 32 33 33 34 38 41 44 45 46 44 43 40 40 39 43
4 3 6 10 13 15 16 15 14 16 19 20 23 24 25 26 25 24 23 25 28 28 29 30 31 31 32 32 32 33 36 36 35 40 46 44 45 41 42 38 43 46 41
4 5 8 12 15 17 16 15 16 18 21 23 24 25 25 25 25 24 25 30 29 29 29 30 30 31 31 33 36 35 33 36 42 39 42 43 42 44 35 43 50 43 43
5 7 11 14 16 15 14 16 18 21 23 24 25 25 25 25 23 26 31 31 31 31 30 29 30 31 32 31 32 34 38 39 40 42 43 40 36 42 40 45 47 48 49
5 9 13 15 15 15 16 19 21 22 24 24 25 24 25 26 26 27 27 31 30 30 31 32 31 32 31 32 31 36 36 39 43 43 49 34 38 42 48 42 44 46 52
6 10 13 15 15 16 19 21 22 23 25 26 24 25 27 30 26 27 28 29 28 29 31 32 34 33 32 37 37 36 37 39 40 40 43 38 43 47 46 49 44 44 48
8 10 13 16 16 18 20 20 22 24 25 25 27 28 28 28 27 27 27 28 29 30 31 32 34 35 39 35 40 42 45 43 44 42 43 43 44 47 46 43 46 50 47
8 11 15 16 18 19 21 23 25 26 27 28 29 30 29 29 26 25 27 29 33 33 32 32 35 36 37 37 40 44 47 46 44 38 38 42 42 38 38 39 42 40 43
10 14 16 17 19 21 23 26 26 27 29 29 29 28 27 28 24 25 26 31 33 35 36 38 35 36 36 38 40 45 43 45 42 45 43 40 37 37 32 32 37 40 42
13 15 16 17 20 22 25 26 27 27 28 28 28 27 25 23 26 26 27 30 32 37 42 41 39 38 38 38 43 39 39 40 43 39 41 40 39 36 37 38 38 39 41
14 14 16 19 21 24 26 27 26 25 27 27 27 27 25 24 25 28 28 30 33 38 40 41 41 41 38 42 36 36 36 35 38 38 39 39 38 39 42 40 37 36 36
13 15 17 21 23 24 24 24 25 24 25 26 27 27 28 28 31 28 30 33 36 38 39 40 39 40 39 34 36 33 32 36 36 38 38 40 42 41 40 41 40 37 34
13 16 20 23 24 23 21 22 23 24 26 26 29 30 32 33 31 34 39 41 40 42 41 40 40 35 34 34 35 35 35 34 35 38 39 41 40 40 41 39 39 37 35
15 19 21 22 22 22 21 22 24 22 23 28 30 32 33 34 35 35 37 40 40 40 39 38 33 35 36 36 36 36 37 36 39 40 40 40 40 40 37 34 37 30 21
18 20 20 22 21 21 23 27 22 23 23 24 26 26 30 30 33 36 37 37 37 36 34 32 35 34 35 37 38 40 41 40 41 41 40 40 39 37 36 36 30 24 21
19 20 21 21 20 22 23 25 30 31 24 23 24 25 27 30 32 34 36 35 34 29 31 32 32 35 37 38 39 40 42 42 42 40 39 38 34 32 31 30 26 22 21
19 21 21 21 25 24 24 25 25 27 30 30 28 27 28 28 30 34 33 33 32 33 31 32 34 36 38 39 41 42 43 43 40 38 35 33 30 30 31 28 25 23 23
20 21 22 26 26 24 23 24 25 26 27 30 31 32 29 28 32 32 30 29 32 32 33 35 36 37 38 40 41 41 40 39 36 35 34 32 30 29 28 26 24 20 17
21 23 25 26 26 23 22 24 25 26 28 29 29 30 32 34 37 36 32 32 33 34 35 35 35 36 39 40 39 39 38 36 35 35 34 32 32 29 25 24 21 19 19
23 25 25 24 21 22 23 23 25 27 27 28 29 29 29 32 34 32 33 33 33 33 33 33 35 37 38 37 36 36 35 34 34 34 34 33 31 24 23 20 19 17 16
25 25 24 23 23 22 23 25 25 26 27 27 29 31 28 29 31 32 33 33 32 32 31 32 34 35 37 35 34 33 33 31 33 35 34 30 25 22 22 19 17 15 13
25 23 21 21 22 22 23 24 24 25 26 28 29 31 31 31 31 33 32 31 31 31 33 33 33 37 33 32 29 27 27 29 33 32 28 24 23 23 22 18 16 14 12
22 19 21 22 23 23 23 23 25 24 24 27 29 29 30 32 33 30 30 30 31 33 32 31 32 35 32 31 26 24 24 29 28 26 23 22 21 19 18 16 14 13 12
21 21 22 22 23 22 22 24 25 26 27 28 28 29 31 31 30 29 29 31 32 33 32 29 34 34 30 28 25 26 27 26 21 19 18 17 18 17 15 13 11 10 9
21 23 23 23 23 23 25 28 28 28 28 27 29 30 29 29 28 28 30 31 32 31 29 30 34 31 28 27 26 27 25 22 18 14 17 17 17 13 12 13 13 11 11

GFSGL_850_spd_024.txt.gz
Wind_Speed
8 5 2 2 6 10 14 16 18 17 16 16 19 21 24 26 29 31 31 31 30 28 34 34 33 34 34 33 35 34 35 33 36 48 49 47 46 50 52 40 39 40 40
8 5 2 4 8 12 15 17 17 16 16 18 21 24 26 29 30 31 31 31 27 33 39 36 35 34 36 34 33 36 34 36 39 41 47 45 47 50 45 49 40 41 31
8 5 3 6 10 13 16 16 15 16 17 20 23 26 29 30 31 30 30 28 33 40 38 37 36 34 34 34 35 37 40 38 36 36 46 49 45 45 49 47 42 36 36
7 4 4 7 12 15 16 15 15 17 20 23 26 28 30 30 30 32 28 35 38 39 39 36 31 30 33 36 38 38 34 34 36 41 43 43 43 50 43 35 43 43 48
6 3 4 10 14 16 15 15 17 19 22 26 29 30 29 30 31 27 31 32 37 40 39 30 31 32 32 33 34 36 38 42 43 38 40 43 44 44 39 41 46 49 49
5 3 6 11 14 15 15 16 19 22 26 28 29 29 29 30 33 29 27 32 35 37 35 34 34 34 33 33 35 38 37 39 41 44 41 44 48 46 45 43 43 48 51
4 4 8 13 15 14 16 19 22 25 28 28 29 30 31 33 31 27 28 31 33 37 33 36 36 35 37 41 39 39 40 37 37 42 44 44 47 46 46 48 46 44 44
3 6 10 14 14 15 18 21 24 27 28 29 31 32 33 33 28 28 28 30 35 34 36 35 35 39 41 38 41 43 45 45 41 40 40 42 42 45 44 43 44 50 49
4 8 11 13 14 17 20 24 26 27 29 31 32 33 32 31 31 27 27 31 37 37 35 33 35 40 38 38 41 46 45 42 46 38 37 38 40 39 37 40 42 41 44
5 9 11 12 16 19 23 26 27 27 30 32 32 31 31 33 29 26 27 32 34 36 37 41 39 37 39 39 40 44 40 45 43 42 44 46 40 41 35 34 39 41 42
7 9 11 14 18 22 24 25 27 29 31 32 33 33 33 29 29 27 29 29 33 37 42 45 43 39 39 39 40 37 38 41 40 43 42 42 41 39 41 39 37 39 43
8 9 12 16 20 22 24 27 27 30 32 33 34 36 34 33 30 29 28 30 32 37 40 44 44 40 40 37 35 36 33 35 38 41 41 39 40 42 39 37 35 34 35
7 10 14 18 20 22 26 27 29 30 31 33 35 37 38 37 37 33 31 33 37 38 41 39 39 39 35 37 33 33 32 37 39 41 38 42 42 39 38 37 35 33 33
9 13 16 19 22 25 26 27 29 30 31 32 34 35 37 39 37 38 36 41 39 43 42 40 37 35 34 33 36 37 38 37 36 37 39 41 40 39 38 35 38 36 36
11 14 17 21 25 26 26 28 28 27 25 28 30 32 34 34 35 34 35 38 40 39 39 37 40 37 38 38 38 40 40 40 40 40 40 40 38 36 34 33 34 35 30
13 16 20 24 25 26 30 33 29 29 26 24 24 25 28 29 31 33 34 36 36 34 34 36 35 36 36 38 40 42 43 41 41 39 38 36 35 33 34 33 33 34 29
15 20 23 24 26 28 30 30 35 35 31 26 24 25 25 29 30 31 34 35 32 30 33 34 35 36 38 39 41 42 42 42 38 36 36 36 35 35 36 37 33 33 27
18 21 22 24 26 28 27 29 29 31 35 37 33 27 28 27 30 32 33 33 36 35 35 34 36 37 39 41 42 41 41 39 36 37 36 36 36 38 37 34 31 28 24
20 22 23 25 26 26 27 28 29 30 30 33 35 34 32 30 31 32 32 31 33 35 36 36 35 38 39 41 40 38 37 37 35 36 37 37 37 37 32 27 27 25 23
21 22 23 24 25 27 27 28 29 29 32 32 32 35 34 35 36 39 34 34 35 35 35 35 37 36 37 38 37 36 37 35 35 37 37 37 36 32 27 26 25 23 22
21 23 23 24 24 25 27 28 28 30 30 31 33 34 29 31 35 33 35 36 34 34 35 36 36 35 37 36 36 35 34 32 35 35 36 36 34 29 24 23 21 19 15
22 23 24 23 24 25 25 25 28 29 30 32 34 35 30 32 32 33 35 33 33 33 34 34 33 35 36 35 34 32 31 32 32 33 34 34 30 24 22 21 18 15 14
23 24 23 23 24 26 26 27 27 28 30 30 33 35 33 32 34 33 32 32 34 34 33 32 32 36 34 32 29 27 29 29 30 31 32 29 24 22 19 18 16 14 13
23 22 22 24 26 25 26 26 27 29 30 32 32 31 31 33 32 32 32 33 33 33 32 31 32 34 32 29 29 27 26 26 32 27 22 21 20 18 17 15 12 10 12
22 22 23 25 25 25 26 27 30 31 31 31 31 30 31 31 31 31 31 31 32 32 30 30 33 32 29 29 27 26 23 26 23 18 19 19 18 12 13 13 12 9 11
21 22 23 24 24 25 27 29 29 30 31 31 29 30 30 30 31 30 30 30 31 30 29 30 32 29 28 28 26 24 23 23 21 19 18 16 15 12 12 12 12 12 11

GFSGL_850_spd_027.txt.gz
Wind_Speed
14 11 8 5 2 3 8 12 15 15 14 14 16 18 21 23 26 27 27 28 30 30 30 35 39 37 34 33 32 30 32 32 38 53 49 48 48 51 48 45 38 38 41
13 10 7 4 2 6 10 14 14 14 14 15 17 20 23 25 26 27 29 30 30 32 37 37 38 37 32 29 29 33 35 39 37 41 50 49 49 51 49 48 40 40 36
13 10 6 2 4 8 12 13 13 13 14 16 19 23 25 27 28 29 31 29 31 33 35 38 38 32 30 30 33 36 37 35 32 35 45 48 48 42 47 42 42 47 41
12 9 5 2 6 10 13 12 12 14 16 19 22 24 26 28 30 31 30 31 30 33 36 37 35 31 30 33 35 34 33 37 40 41 44 41 46 39 38 45 47 44 42
12 8 3 3 8 11 12 12 13 15 18 22 24 25 27 29 30 29 29 29 31 34 36 35 35 29 29 29 31 37 39 41 42 38 43 39 36 47 44 43 45 46 44
11 6 2 4 9 12 11 12 15 18 21 23 24 26 28 28 29 28 26 29 32 33 36 38 37 34 32 32 35 35 34 39 43 45 38 38 45 43 43 45 46 40 42
9 5 2 6 10 10 11 14 17 20 23 24 25 27 28 29 29 27 27 29 31 34 35 37 38 36 36 39 40 37 40 39 36 38 42 43 44 45 48 44 41 42 44
8 4 3 8 9 10 12 16 19 22 23 25 27 28 29 29 28 27 27 28 31 35 35 35 34 39 39 37 41 44 44 40 40 36 37 41 43 43 43 44 44 47 44
6 2 5 8 8 11 15 18 21 23 25 27 28 29 29 30 30 26 25 29 33 33 35 36 36 36 39 37 39 43 42 40 43 36 35 36 40 39 36 38 41 40 41
3 3 6 6 9 13 17 20 23 24 26 28 29 29 30 30 30 25 25 27 32 35 38 42 37 37 36 36 39 39 37 44 40 37 43 43 36 36 33 33 37 38 39
2 4 4 7 11 15 18 21 24 25 27 28 30 30 31 31 33 27 26 27 30 34 41 42 44 38 35 38 35 38 35 37 38 40 37 40 39 38 38 33 31 33 39
2 2 5 9 13 16 20 23 24 26 28 30 32 33 33 34 33 32 27 28 28 35 36 44 42 36 38 36 33 30 32 32 36 38 38 39 40 39 35 32 29 29 29
1 3 7 11 14 19 22 23 25 27 28 30 31 34 36 35 34 34 33 30 33 34 39 36 34 37 35 32 29 30 31 37 38 38 38 39 38 36 36 34 32 30 31
2 5 9 14 17 20 21 23 26 28 28 29 30 32 33 34 33 33 34 37 37 40 38 38 40 33 30 30 33 37 36 35 33 36 38 37 37 37 36 33 34 34 35
4 8 12 16 19 21 22 25 26 25 23 25 26 27 30 33 32 31 32 35 36 36 36 38 37 35 37 37 37 38 38 37 38 37 36 38 38 37 36 33 34 34 32
7 11 15 18 20 22 25 27 24 25 24 22 21 21 26 25 28 30 31 33 33 33 31 33 34 35 35 36 38 41 40 38 37 34 36 37 37 36 36 36 31 31 31
10 14 17 19 22 24 26 28 31 29 26 25 24 23 22 26 28 28 30 33 32 26 30 32 33 34 36 37 39 40 40 37 35 34 37 36 35 36 34 34 31 28 30
13 15 18 21 23 25 26 26 27 29 32 33 30 27 25 26 26 28 31 31 32 30 30 32 34 35 36 37 39 38 37 35 33 35 35 35 35 35 35 31 28 27 28
14 17 20 22 23 24 24 25 26 27 30 32 34 33 32 27 28 33 31 30 30 32 33 33 33 34 35 37 36 35 34 34 33 34 34 35 35 34 33 28 25 23 21
16 18 21 23 23 22 23 26 26 28 29 30 32 34 33 32 36 36 32 31 31 31 32 33 33 33 35 35 35 34 33 33 33 32 33 34 33 32 29 25 22 21 19
18 20 21 22 21 22 24 25 26 27 28 30 32 32 27 29 32 32 32 32 31 32 32 33 33 33 35 34 32 33 33 33 30 32 32 31 30 30 24 22 20 17 15
18 20 21 21 21 22 24 24 25 25 28 31 33 33 29 29 31 31 31 30 30 30 31 31 31 33 33 32 33 33 32 30 29 31 28 27 27 24 21 19 17 16 13
20 20 20 20 21 23 23 24 24 26 28 30 31 31 30 30 31 30 30 30 30 30 29 29 31 33 30 30 30 29 28 27 28 26 26 27 23 18 18 18 13 15 12
19 19 20 20 22 23 23 24 25 27 28 30 30 29 29 31 29 29 29 29 30 29 27 29 31 31 30 29 27 25 22 24 25 25 24 21 19 13 14 15 9 10 8
19 19 19 20 22 23 24 25 26 27 28 29 29 27 29 28 28 29 28 29 29 29 28 28 32 30 29 26 23 21 22 24 23 23 19 14 12 12 13 11 9 9 8
18 18 19 21 22 23 24 25 27 29 30 29 28 28 28 27 28 28 28 28 28 27 27 28 31 27 26 23 22 23 26 26 23 15 12 12 12 12 11 10 9 9 9

GFSGL_850_spd_030.txt.gz
Wind_Speed
21 19 15 12 8 4 2 6 9 11 11 11 12 15 18 21 22 23 24 26 26 26 29 31 32 34 35 33 31 29 30 31 36 49 48 46 45 47 43 38 36 37 37
20 17 14 10 6 2 4 8 10 10 11 12 14 17 20 22 23 24 26 26 27 29 29 31 33 34 35 33 30 30 32 34 35 38 48 51 47 49 45 42 39 33 36
18 15 12 8 4 3 6 9 10 9 11 13 17 19 21 23 25 26 26 27 27 27 29 32 34 34 37 34 32 34 35 33 33 39 46 50 50 44 47 40 39 44 39
17 14 10 6 3 4 7 8 8 10 13 16 18 20 22 23 25 26 27 27 28 29 30 32 33 34 37 33 35 34 33 39 41 42 44 42 44 43 32 45 46 40 44
15 12 9 5 3 5 7 7 9 11 15 18 19 20 22 24 26 27 26 27 29 31 31 31 32 35 31 30 31 37 39 42 43 40 44 45 30 45 39 43 45 48 45
14 11 8 5 4 6 7 7 10 14 16 18 20 22 24 25 26 24 24 28 30 31 33 34 36 34 30 33 36 34 34 39 42 45 33 42 44 40 43 46 45 38 44
14 11 8 4 5 6 7 9 12 15 18 19 21 23 24 26 26 26 26 28 30 32 33 32 34 34 37 37 38 36 38 38 31 40 40 40 41 46 44 39 43 44 45
14 11 6 3 6 6 8 11 14 17 19 21 22 24 25 27 27 29 28 28 30 30 31 31 33 38 36 36 38 43 34 45 42 39 36 40 40 42 44 44 42 44 43
13 8 5 5 5 6 10 13 16 18 19 22 23 25 27 28 28 28 25 29 31 32 32 32 33 34 38 35 37 41 41 44 42 35 35 36 40 35 33 35 39 38 40
10 7 4 4 5 8 11 15 18 19 21 23 24 26 26 27 27 27 23 27 33 35 36 39 35 36 35 33 39 38 42 38 40 37 45 38 32 34 31 30 35 38 39
9 5 4 4 6 9 13 17 18 20 23 25 26 26 26 27 27 25 22 25 30 34 38 38 42 35 34 36 33 33 31 36 38 38 34 38 39 37 35 34 32 33 38
6 4 3 4 7 11 14 16 19 22 25 26 27 27 27 28 27 26 23 25 26 33 35 41 37 35 36 32 28 27 30 31 32 35 38 39 40 39 37 35 32 30 30
5 4 3 6 9 13 16 18 22 24 25 26 28 29 30 29 28 25 26 27 29 31 36 34 34 35 32 29 27 28 28 33 34 36 37 37 38 37 37 36 34 33 32
5 3 4 8 11 14 16 20 23 24 24 25 26 28 29 30 29 28 30 33 33 35 35 39 37 31 27 27 30 33 33 32 30 35 35 36 37 37 38 35 37 36 36
4 4 6 10 13 16 18 22 23 22 22 22 23 24 27 29 27 27 29 31 33 34 33 34 32 32 32 31 34 35 36 34 35 33 34 36 36 37 37 35 35 35 34
3 5 9 12 16 19 21 22 20 22 22 20 21 20 24 23 25 27 27 29 31 29 28 30 32 32 32 33 36 38 37 35 34 33 34 35 37 37 37 36 33 34 32
5 9 12 15 18 21 22 23 26 24 22 22 22 23 21 23 25 25 27 30 30 24 28 30 31 31 32 34 36 37 37 35 33 32 34 35 35 35 36 35 34 32 31
8 11 14 17 19 21 22 22 23 25 28 28 25 24 24 25 24 25 28 27 29 27 28 29 31 31 32 35 36 35 35 35 33 33 33 34 34 34 34 33 32 30 28
10 13 16 18 19 20 20 21 23 24 27 28 29 28 29 26 25 30 27 27 28 29 30 30 30 30 32 35 34 34 35 34 33 32 32 32 31 32 31 30 29 25 24
13 15 17 19 19 20 21 23 24 25 26 27 29 31 30 29 33 30 29 28 28 28 29 30 29 30 33 34 33 34 34 32 31 31 30 30 29 29 27 28 25 25 22
14 16 18 18 19 20 22 23 24 25 25 27 28 29 24 25 28 29 29 29 28 29 29 29 29 31 33 33 32 33 32 31 30 30 30 30 29 27 23 24 21 21 18
15 17 18 19 20 21 22 23 23 24 26 28 29 30 27 26 28 28 28 28 28 28 27 28 29 32 33 32 32 31 30 29 29 30 30 29 27 24 20 21 18 17 16
16 18 19 20 21 22 22 22 23 25 27 28 29 29 28 27 28 27 28 28 28 28 26 27 28 33 30 29 27 28 30 30 31 30 29 27 24 21 18 18 13 14 14
17 18 20 21 22 23 23 24 24 25 27 28 28 28 28 28 27 26 28 28 28 27 25 26 29 31 30 27 25 24 27 27 27 29 24 18 17 15 15 14 11 11 9
17 19 21 22 23 24 24 24 26 27 28 28 28 28 27 27 26 26 26 27 27 26 26 26 29 29 28 24 24 25 25 23 24 17 16 16 13 12 12 12 10 9 9
19 20 22 22 23 23 25 26 27 27 28 28 27 26 26 26 26 25 25 26 25 25 25 27 28 27 24 22 24 24 25 23 19 12 15 14 13 13 13 11 10 12 10

GFSGL_850_spd_033.txt.gz
Wind_Speed
26 23 20 18 14 10 6 4 6 8 10 11 12 14 16 19 22 23 24 24 25 26 26 27 28 29 31 31 32 33 30 31 36 49 48 49 53 48 46 43 40 38 41
25 22 19 15 12 7 4 4 7 9 10 11 13 16 19 21 22 24 25 25 26 27 27 28 29 30 31 33 36 34 34 34 35 40 47 55 52 51 51 45 40 34 35
23 20 17 13 9 6 4 5 8 9 10 12 15 18 20 21 23 24 26 26 26 27 28 29 30 30 33 35 34 35 35 34 35 38 47 47 50 47 47 41 42 42 39
21 18 14 11 8 5 4 6 8 9 11 14 17 18 20 22 24 25 25 26 27 28 29 28 30 31 33 31 32 32 35 39 42 43 43 44 42 39 42 44 47 40 46
19 16 13 10 7 5 5 7 9 11 13 16 17 19 21 23 25 26 26 27 28 29 30 31 31 29 27 26 30 37 36 38 41 41 44 34 43 40 44 43 44 46 44
17 15 13 10 7 5 6 8 9 11 14 16 19 21 23 25 26 27 25 27 29 30 31 30 29 28 30 31 31 31 30 35 42 33 47 43 45 43 46 45 42 42 50
16 15 13 10 6 6 7 8 10 12 15 18 20 23 25 26 27 26 25 26 29 29 30 30 29 31 34 35 37 34 35 29 35 36 42 41 44 46 43 46 47 43 46
17 15 12 8 6 7 7 8 11 14 17 19 22 24 26 27 27 26 26 28 29 29 30 29 31 34 32 35 37 35 42 43 42 37 34 39 40 43 43 41 43 45 46
16 14 11 8 7 7 8 10 13 16 18 21 23 25 27 26 26 27 27 28 29 32 32 32 29 31 36 34 35 41 41 44 34 36 32 37 38 32 31 34 40 40 44
15 13 9 7 6 7 9 12 15 18 20 23 24 24 25 25 26 26 23 26 30 33 35 33 33 34 33 32 36 38 40 36 39 37 43 36 32 33 32 31 34 38 40
15 11 8 7 6 7 10 15 17 19 22 24 25 24 25 26 27 25 22 24 28 32 38 39 41 34 33 34 32 33 31 35 37 37 34 37 36 36 35 34 33 33 39
12 9 7 5 6 9 12 15 18 22 24 24 25 26 27 27 26 25 21 23 25 32 34 39 37 35 34 32 28 26 29 30 32 33 36 38 37 38 37 36 34 33 33
10 7 5 5 8 11 14 17 20 22 24 25 27 28 29 28 27 24 24 25 28 29 32 34 35 35 32 29 25 26 26 31 32 34 37 35 36 37 38 38 35 34 35
7 6 5 6 9 13 16 19 21 23 24 25 27 28 29 29 29 26 28 30 30 32 34 36 35 30 27 26 27 30 31 30 28 32 34 34 36 38 38 37 39 38 39
6 4 5 8 12 14 17 20 21 21 22 24 24 25 27 28 26 25 27 29 31 32 31 32 31 30 30 29 31 33 33 32 33 33 33 35 36 37 38 36 37 37 37
5 5 7 10 13 17 19 20 20 21 23 22 23 22 24 23 24 26 26 28 29 27 28 29 30 30 30 31 34 36 35 34 35 33 32 34 36 37 38 37 36 36 36
5 6 9 12 15 18 20 22 25 24 24 24 24 23 23 25 26 24 26 28 27 25 27 28 29 30 31 32 35 35 37 36 35 32 33 34 34 34 35 36 37 35 36
5 8 11 15 17 19 21 22 24 27 28 28 25 25 25 26 24 23 27 27 28 26 27 28 29 29 30 33 35 35 36 35 33 32 33 31 32 34 34 34 34 33 35
7 10 13 16 18 20 21 22 24 25 27 28 30 28 28 27 24 28 26 26 28 28 28 29 28 29 31 34 35 34 35 34 33 33 31 32 32 33 32 30 31 29 29
10 12 15 18 19 20 22 24 25 26 27 28 29 30 30 29 31 29 27 27 28 28 28 29 28 29 31 34 34 33 33 32 32 32 32 32 30 30 29 27 29 28 27
11 14 17 18 19 21 23 24 25 27 28 29 29 29 25 25 28 28 28 27 28 28 28 28 29 29 33 33 33 31 31 32 33 31 32 32 29 27 23 23 25 23 22
14 16 18 19 21 22 23 24 25 26 27 29 31 30 28 27 27 28 27 27 27 27 27 27 28 30 31 32 31 30 31 33 31 31 31 29 24 22 22 22 20 21 18
15 17 18 20 21 23 24 24 25 26 28 29 30 30 29 28 28 28 26 26 27 27 25 25 27 29 29 28 26 29 32 29 29 28 27 26 24 22 21 18 16 18 16
15 17 19 21 22 23 24 25 25 27 28 29 29 28 28 28 28 27 25 25 26 25 24 25 27 28 28 25 25 28 26 25 26 26 23 24 20 18 15 15 13 14 13
17 19 21 22 23 23 24 25 26 27 28 28 28 28 28 27 27 25 24 25 25 24 23 25 27 27 25 22 27 23 23 22 22 18 19 19 17 15 14 14 14 15 10
18 20 21 22 22 23 25 26 26 27 27 27 27 27 27 27 26 25 24 24 23 23 23 25 26 25 22 23 24 22 23 23 20 16 16 17 17 17 15 13 13 12 11

GFSGL_850_spd_036.txt.gz
Wind_Speed
29 28 26 23 19 15 11 7 4 5 7 9 12 13 15 17 19 20 21 22 24 24 24 25 26 26 28 27 27 29 31 30 38 54 48 51 52 47 45 44 41 37 37
29 27 24 21 17 13 9 6 4 6 8 11 12 14 16 18 20 22 23 24 25 25 26 27 29 29 29 29 29 29 30 30 33 43 50 51 49 46 50 43 40 45 48
28 25 22 19 15 11 7 5 4 7 10 11 13 15 17 20 21 23 24 24 25 26 28 29 31 31 31 29 27 29 29 31 33 38 46 46 49 44 41 48 46 44 41
26 23 20 17 13 9 6 4 5 8 11 12 14 17 19 21 22 23 25 26 27 28 29 30 29 28 28 27 27 29 32 38 39 40 40 43 34 46 42 46 43 44 45
25 21 18 15 12 8 5 5 7 9 11 13 16 18 20 22 23 26 26 27 28 29 29 28 27 26 24 24 27 33 33 35 40 40 32 45 42 44 44 46 45 47 45
22 19 17 13 10 7 5 6 7 10 12 15 17 19 21 23 25 26 26 27 29 29 29 28 28 28 30 29 29 28 28 36 31 42 43 40 43 43 46 45 42 46 46
20 18 15 12 9 6 5 6 8 10 13 16 18 20 23 25 26 28 28 27 27 27 27 29 30 32 30 32 33 33 32 33 35 36 39 38 43 43 41 48 48 44 45
19 16 13 11 8 6 6 6 9 12 15 17 20 23 24 26 28 29 27 26 26 26 28 29 32 35 33 32 35 35 40 41 41 34 33 37 37 41 40 39 42 44 46
18 15 12 10 8 6 5 7 10 13 16 19 22 24 26 27 28 28 27 26 28 29 29 30 32 30 34 31 33 38 40 42 32 33 31 33 38 32 29 32 38 40 43
16 14 12 9 5 4 6 9 12 15 19 21 23 24 26 27 27 27 24 25 28 30 31 36 34 32 30 31 34 36 39 35 37 36 41 35 30 29 30 30 34 37 39
16 14 10 6 4 5 7 11 14 17 20 22 24 24 25 26 27 26 25 23 27 30 35 36 37 32 32 32 30 31 29 32 36 36 33 33 33 33 33 34 32 32 37
15 11 7 5 4 6 9 13 16 19 22 24 25 25 25 26 27 27 24 23 24 30 32 36 36 33 32 30 28 25 27 28 31 30 33 35 36 36 36 34 33 32 32
12 8 5 4 4 8 11 15 18 21 24 25 26 28 29 29 29 27 25 26 27 28 31 32 33 33 32 30 25 24 26 28 29 31 34 35 35 35 35 36 34 34 34
9 6 5 4 6 10 14 18 20 22 24 25 27 28 29 30 30 27 28 30 30 32 34 36 34 31 27 26 26 27 28 28 28 32 34 33 35 35 35 35 37 38 39
7 5 3 5 9 12 16 19 21 21 22 24 24 25 28 29 27 24 26 27 29 30 30 32 32 30 29 28 29 30 31 31 32 32 33 33 33 34 35 35 35 37 37
5 3 4 8 11 15 18 18 19 20 21 22 23 24 25 25 24 25 24 26 27 26 28 29 30 29 29 30 32 34 33 33 33 32 31 32 33 35 36 36 33 35 36
2 3 7 11 14 17 18 20 23 21 22 23 24 24 24 26 27 24 24 26 27 26 27 27 28 29 29 30 33 34 35 34 33 31 33 32 34 34 34 35 33 34 35
3 7 10 13 15 17 19 20 22 25 27 28 24 25 26 27 26 23 25 28 28 26 26 28 29 28 29 31 34 35 35 33 32 33 34 32 32 33 33 32 30 33 33
6 9 11 14 16 18 19 20 22 24 26 27 28 27 28 28 26 27 26 26 26 28 28 28 28 28 29 32 33 34 33 33 34 35 33 33 32 31 29 28 29 28 29
8 11 13 16 17 18 20 22 24 25 26 27 28 30 30 30 31 29 27 26 25 27 27 28 27 28 30 32 33 32 33 33 34 32 32 32 30 28 27 28 27 27 26
10 12 15 16 17 19 22 23 24 24 26 27 28 28 26 24 28 27 28 26 26 26 26 26 27 28 30 31 31 31 33 33 31 30 30 29 29 27 25 24 24 24 22
12 14 16 17 19 21 23 23 23 25 26 28 28 28 26 26 27 27 27 26 24 25 24 26 26 28 30 30 30 32 32 31 29 30 28 28 27 25 24 23 22 20 19
13 15 16 19 21 22 22 23 24 26 27 27 28 28 28 27 27 26 26 24 25 24 23 23 26 28 27 26 27 29 30 28 27 26 26 29 26 23 22 21 18 20 16
14 16 19 20 21 22 23 24 24 24 25 26 27 28 28 27 26 26 25 24 24 22 22 22 25 27 26 23 27 26 25 24 25 26 25 24 21 19 16 18 18 17 13
16 18 20 21 22 23 23 24 24 24 25 26 27 27 27 26 26 24 23 23 23 22 21 23 25 26 25 22 26 23 23 22 21 22 20 19 21 17 16 15 16 15 12
18 19 20 21 21 22 24 24 24 24 25 25 26 26 26 26 25 24 24 23 22 22 22 24 25 23 21 24 25 22 22 21 22 20 18 17 20 16 15 13 12 12 11

GFSGL_850_spd_039.txt.gz
Wind_Speed
32 31 32 31 28 24 20 15 10 6 3 4 6 9 10 13 14 15 16 18 19 20 21 23 24 25 27 27 28 28 29 28 36 52 39 40 36 34 33 30 30 31 38
33 33 33 30 26 22 17 12 8 4 3 5 7 9 11 13 15 16 17 19 20 22 23 25 26 27 28 28 28 27 27 26 31 43 45 42 39 36 34 33 39 39 34
34 33 31 27 23 19 14 10 6 3 2 6 8 10 12 14 16 18 19 20 22 23 25 26 27 27 28 28 26 25 27 26 27 35 45 46 41 33 38 43 36 37 32
33 30 28 24 20 16 12 8 5 2 4 7 9 11 13 15 17 19 21 22 24 25 25 26 26 26 27 25 25 24 24 30 33 35 40 38 35 45 43 39 40 40 38
31 28 25 22 17 13 10 6 3 3 6 8 10 13 15 17 19 21 23 24 25 26 26 26 25 25 24 23 24 26 29 31 35 38 26 39 43 40 37 39 40 43 42
28 26 23 19 15 12 8 4 2 4 7 9 12 14 16 19 21 22 24 24 25 26 27 26 26 25 27 23 26 25 25 29 36 34 42 38 38 34 41 40 40 42 45
26 24 20 16 13 9 6 2 3 5 8 11 13 16 18 20 22 23 24 24 25 25 26 26 27 27 29 29 30 28 32 25 33 35 35 33 37 39 40 43 46 42 42
25 22 18 14 11 7 3 1 4 7 10 12 15 18 20 22 23 24 25 25 25 25 25 25 27 32 29 28 31 33 38 38 30 30 29 35 35 37 39 37 38 40 43
22 19 15 12 8 5 1 3 5 8 11 14 18 20 22 22 24 25 25 25 25 25 25 27 30 26 29 28 30 37 34 33 32 28 30 30 36 31 26 27 32 35 40
20 17 13 10 6 2 2 4 7 10 14 17 19 20 22 23 24 25 24 23 23 24 25 25 26 28 27 28 32 32 33 33 33 33 35 33 27 26 25 24 29 33 36
18 14 11 8 3 3 3 6 9 13 16 18 19 20 21 23 25 25 23 19 22 25 26 28 28 28 28 31 29 29 27 29 31 33 31 30 29 28 29 28 28 29 34
15 12 9 5 3 2 5 8 12 15 17 19 20 20 22 24 25 25 22 19 21 25 27 29 31 30 31 29 27 25 24 25 28 27 29 31 32 32 30 28 29 28 29
13 10 6 4 2 3 7 10 14 16 18 20 22 24 26 27 26 25 22 23 24 24 28 29 29 31 31 28 24 22 23 25 25 27 31 31 31 31 31 32 32 30 31
12 8 5 3 2 6 10 13 15 18 19 21 24 26 28 28 27 25 26 28 27 29 30 33 32 29 26 23 23 24 26 25 24 28 31 31 32 33 34 34 35 34 36
9 6 4 2 5 8 11 14 16 18 20 22 23 25 26 27 25 22 24 25 26 28 28 29 30 28 27 25 25 27 28 28 28 29 30 33 34 33 33 32 32 32 33
6 5 2 3 7 10 13 15 16 17 19 20 22 23 24 23 23 23 22 24 25 24 26 28 28 27 26 27 28 31 30 29 29 29 31 33 33 33 34 32 28 30 32
5 2 2 6 10 13 15 17 19 18 20 22 22 22 22 24 25 22 22 25 25 25 25 26 27 26 27 27 29 31 32 30 30 31 31 30 31 31 29 29 29 30 30
2 2 6 9 12 14 16 17 20 23 26 25 22 23 24 24 25 22 23 25 27 23 23 26 26 25 26 28 30 32 32 31 31 31 30 29 28 30 30 28 28 29 30
2 5 8 11 13 15 16 18 20 22 23 25 26 25 25 25 24 24 24 24 25 25 25 25 24 25 27 29 31 31 30 32 32 30 28 29 29 30 29 27 27 26 27
5 8 10 12 13 15 17 19 21 22 23 25 26 27 28 28 28 26 24 24 24 23 24 25 25 25 28 30 30 29 32 31 31 28 29 28 29 29 28 27 26 26 25
7 9 11 12 14 17 19 20 21 22 23 24 25 25 24 24 26 25 25 24 23 23 24 24 25 26 28 29 29 30 31 30 28 29 30 28 30 29 25 23 25 24 24
8 10 12 14 16 18 19 20 21 22 23 24 25 24 23 24 25 24 24 23 22 22 22 23 24 26 28 28 27 30 30 29 27 29 28 28 30 25 25 24 24 24 22
9 11 14 15 17 18 19 19 21 22 22 23 24 25 25 25 25 24 23 22 22 21 21 21 24 26 26 25 25 28 28 28 26 26 27 30 29 28 24 23 23 22 17
11 13 15 17 18 19 19 20 20 20 21 22 23 24 25 24 24 23 22 22 21 20 20 21 24 26 25 22 25 24 24 24 24 28 28 28 25 24 19 20 18 17 14
12 15 16 18 18 19 20 20 20 20 20 21 23 24 23 23 23 22 21 21 20 21 20 21 24 24 23 23 24 23 23 22 23 23 24 22 20 18 16 15 15 14 14
15 16 17 18 18 19 20 21 21 21 20 21 22 23 22 23 22 21 21 21 22 20 21 23 23 22 22 23 22 22 24 24 23 23 21 20 18 18 15 13 13 13 12

GFSGL_850_spd_042.txt.gz
Wind_Speed
32 32 32 33 33 30 28 25 21 16 11 7 4 4 6 7 9 10 12 14 16 17 18 19 21 20 20 19 19 20 22 23 34 40 32 30 31 30 31 29 29 33 39
35 34 34 34 32 30 28 23 18 13 9 5 3 4 6 8 9 11 14 16 17 18 19 20 20 20 23 21 19 21 22 24 30 41 39 36 34 33 31 30 33 38 35
34 35 35 34 33 29 25 20 16 11 7 3 3 5 7 9 11 13 15 17 18 19 20 21 22 23 21 19 20 22 23 26 30 35 42 40 38 36 32 38 32 32 31
37 37 37 34 30 26 22 17 13 9 5 1 3 5 7 10 13 15 17 18 19 20 21 23 23 22 19 20 22 23 25 28 31 34 37 41 36 35 40 36 34 35 36
38 37 35 32 27 23 19 14 10 6 2 2 4 6 9 12 15 16 17 18 19 20 21 22 21 22 25 22 22 23 27 30 32 35 37 32 40 40 35 36 37 39 41
37 35 31 28 24 20 15 11 8 4 1 3 5 9 12 14 16 18 19 20 20 21 21 21 20 21 20 22 24 25 26 28 34 36 37 38 35 35 35 37 42 38 46
34 31 28 24 21 17 13 9 5 2 1 4 8 11 13 15 18 19 21 21 21 21 20 20 21 20 21 23 24 26 27 29 28 34 34 32 34 34 40 41 41 44 40
31 28 25 21 17 14 10 7 3 1 3 6 9 13 15 17 19 20 22 22 19 19 19 20 21 21 22 23 28 31 32 31 28 28 29 32 35 35 35 38 38 41 41
28 25 21 17 14 11 8 5 1 2 5 9 12 15 17 18 20 21 23 20 18 18 19 20 21 23 22 27 28 33 31 30 27 26 28 30 31 33 28 29 32 33 41
25 22 18 15 11 9 5 3 1 4 7 11 14 16 18 19 21 22 23 20 17 19 20 21 22 22 26 26 30 31 33 29 29 33 29 27 24 24 23 22 27 30 35
22 19 16 13 9 6 4 1 3 7 10 13 15 17 18 20 21 22 22 18 17 21 22 23 22 25 27 30 29 28 26 28 30 29 26 24 22 22 22 23 24 27 32
19 16 14 12 8 4 2 3 6 9 12 15 16 17 18 20 22 22 22 19 18 21 23 23 26 28 30 30 27 24 24 25 22 22 23 25 26 29 30 29 28 29 31
18 16 12 8 5 3 2 5 9 12 14 15 17 18 19 21 20 21 22 20 21 23 24 27 29 29 29 27 23 22 21 19 20 22 26 28 29 31 31 32 31 31 32
17 13 10 7 4 1 4 8 11 13 14 16 16 17 20 20 18 18 20 22 21 23 26 29 27 26 24 22 21 19 18 19 21 25 27 30 32 32 32 32 32 31 33
13 10 7 5 1 4 7 10 12 13 14 16 17 20 19 19 18 20 22 23 24 25 28 23 20 20 20 19 19 19 20 21 24 25 30 32 32 31 31 30 30 30 32
10 8 5 1 3 6 9 11 12 12 15 17 20 20 21 22 22 21 21 22 23 23 22 18 18 18 19 20 21 24 26 28 28 31 31 30 31 31 32 31 29 30 31
7 5 2 2 5 7 9 11 13 17 20 20 19 20 21 22 23 21 20 22 23 22 17 16 18 18 19 20 23 27 30 29 31 31 30 29 30 30 31 32 31 30 32
5 2 2 4 6 9 11 13 17 19 22 22 21 22 21 22 23 19 21 24 20 17 15 17 18 19 20 23 27 29 29 31 31 30 29 29 29 31 32 31 30 30 31
2 1 3 6 8 10 13 16 18 19 20 21 22 21 24 24 22 23 23 20 20 18 18 19 19 21 23 26 28 29 28 31 30 29 29 29 29 31 31 29 28 28 27
0 3 6 7 9 12 15 17 18 19 20 20 20 21 24 24 23 24 21 20 19 19 20 21 21 22 25 28 29 29 30 31 29 28 29 28 28 31 31 29 28 29 29
3 5 7 9 12 14 16 17 18 18 19 20 21 22 22 23 22 22 21 20 20 21 21 22 22 24 27 29 28 28 30 30 28 28 28 31 29 30 30 27 27 28 27
4 6 8 11 14 15 16 17 17 19 20 21 22 22 22 22 21 22 22 21 21 21 21 22 23 25 28 27 27 29 29 29 28 27 29 34 29 29 28 25 25 24 23
6 8 11 13 15 16 16 17 18 19 20 21 22 22 23 22 22 22 22 21 21 20 20 21 23 26 25 25 26 27 28 28 28 29 31 32 29 29 26 21 21 21 20
8 10 12 14 15 16 16 18 19 19 20 20 20 21 22 21 22 21 20 20 20 21 20 21 24 25 25 25 25 23 24 27 27 28 31 29 27 24 19 18 18 20 19
10 12 14 15 16 16 18 19 19 20 20 19 20 21 21 20 20 20 19 20 21 20 21 22 23 23 24 24 23 22 25 24 26 25 26 24 19 19 16 15 17 18 18
12 14 15 15 16 18 19 19 20 20 19 19 20 22 20 19 19 19 18 20 21 21 22 23 22 23 23 23 19 23 25 27 25 24 21 21 17 18 18 16 17 17 17

GFSGL_850_spd_045.txt.gz
Wind_Speed
29 31 30 30 30 31 31 30 27 22 21 16 12 8 4 4 6 7 9 12 13 14 16 17 19 19 21 21 22 22 23 24 32 35 31 29 31 34 31 35 33 38 35
30 30 30 31 31 33 32 28 23 22 18 13 9 5 3 4 6 8 10 13 14 15 17 18 19 18 22 22 22 21 24 26 29 38 34 35 33 31 34 34 33 32 44
31 30 32 33 35 34 29 25 23 19 15 11 6 3 3 5 7 10 12 14 15 16 18 18 20 21 22 22 22 23 25 27 29 34 40 35 36 33 36 30 40 33 31
32 34 37 36 33 30 28 25 21 16 12 8 4 2 4 6 9 11 13 15 16 17 18 20 22 23 23 22 25 24 25 28 30 33 39 41 36 33 34 36 32 34 37
36 37 38 36 32 30 27 22 18 14 9 5 2 3 6 8 11 13 15 16 18 19 20 21 21 22 26 23 23 26 28 31 35 37 37 37 37 38 32 33 36 36 45
39 38 36 33 30 27 23 19 14 10 6 2 2 4 8 11 13 15 17 19 20 20 21 23 23 22 21 21 23 24 25 30 34 37 41 37 39 35 35 35 42 42 39
39 36 32 30 27 23 19 15 11 7 3 1 3 7 10 13 15 17 19 20 21 20 22 22 22 20 22 23 24 25 27 31 30 34 37 33 36 37 40 42 41 41 43
35 32 28 26 23 20 16 12 9 4 1 2 6 9 12 15 16 18 20 21 20 20 20 21 22 23 23 24 28 31 35 34 30 30 32 33 37 38 37 36 40 44 44
32 28 25 23 20 17 13 10 5 1 2 4 8 11 13 14 19 18 21 22 20 20 18 20 22 24 24 24 29 34 35 36 34 27 29 32 32 31 30 30 36 37 42
26 25 23 19 16 14 10 3 3 1 3 7 11 13 15 15 17 20 21 22 21 19 20 21 20 22 22 26 30 34 38 36 34 35 34 33 28 28 24 25 30 35 41
25 23 19 16 13 8 4 5 1 3 6 10 12 13 15 16 18 21 22 21 19 20 22 24 24 22 26 29 30 32 32 29 32 33 30 30 31 28 27 28 30 31 38
20 18 16 13 8 7 4 1 2 6 9 11 12 13 12 13 17 19 22 18 18 22 25 27 29 27 30 29 28 24 24 26 25 25 30 32 31 31 33 34 32 31 32
17 15 14 11 8 4 1 2 6 8 10 11 13 14 15 17 17 16 16 17 20 22 24 27 28 28 27 25 22 22 20 21 23 28 30 32 33 35 34 32 31 32 33
18 15 11 7 5 2 1 5 7 9 10 12 14 16 18 19 17 17 23 24 23 24 27 30 29 24 20 21 21 21 21 21 23 27 30 33 34 32 33 31 34 34 36
14 10 8 5 2 1 4 6 8 11 12 14 16 18 19 20 19 22 23 24 24 26 28 30 23 21 23 22 22 22 23 25 26 28 31 32 32 32 32 32 34 34 33
10 8 6 4 2 3 6 9 11 11 14 16 16 17 19 20 21 24 22 22 23 24 24 20 20 21 22 23 24 26 27 29 29 31 31 31 32 33 33 34 33 32 33
8 7 5 2 2 5 8 9 11 15 18 19 20 20 20 20 22 23 20 22 23 18 18 18 20 21 22 23 25 28 31 30 30 32 31 31 32 32 32 34 34 34 34
7 4 1 2 5 7 9 11 13 15 16 15 15 18 19 22 23 20 19 22 18 17 17 18 21 21 22 24 27 30 32 30 31 31 31 30 30 32 34 35 35 35 34
4 1 2 5 6 8 10 13 14 16 17 17 19 18 20 22 22 18 18 18 19 19 19 20 20 21 23 26 29 31 30 31 32 31 30 30 31 34 34 34 35 32 30
0 2 5 6 8 10 13 14 16 17 17 18 19 19 21 23 24 22 21 20 19 20 21 21 21 22 24 28 30 30 30 31 31 30 30 30 33 34 33 33 34 32 31
2 4 6 8 10 13 15 15 16 17 18 19 19 19 19 21 21 21 21 20 20 20 21 21 22 24 27 29 29 30 31 30 30 31 32 33 33 32 31 31 30 29 30
4 5 7 10 12 14 16 16 17 17 18 18 19 20 20 21 20 20 20 20 19 19 21 22 23 25 27 28 28 30 29 31 32 31 32 33 32 31 28 28 27 27 28
5 7 10 12 14 16 16 16 17 18 18 19 20 20 20 21 20 20 20 18 19 20 20 22 24 25 24 26 26 26 29 30 32 33 32 34 31 27 26 25 24 25 25
7 9 12 14 15 16 16 18 18 19 20 21 20 20 20 21 19 19 19 18 19 20 21 23 24 23 26 25 24 22 25 27 30 32 30 28 24 20 21 20 20 22 22
9 12 14 15 16 17 18 19 19 20 21 21 20 20 21 21 18 18 18 18 20 21 23 23 22 21 25 25 19 22 22 26 28 26 25 24 21 18 19 20 21 22 21
11 14 15 16 17 19 20 20 21 21 21 20 19 20 21 19 17 18 19 19 21 22 23 23 21 22 22 22 18 21 23 25 26 24 23 22 21 21 19 20 19 20 18

GFSGL_850_spd_048.txt.gz
Wind_Speed
34 39 39 38 30 28 32 35 33 32 27 24 20 17 12 8 6 5 6 8 10 12 14 16 18 19 20 21 23 24 24 25 32 39 38 34 32 33 38 33 37 36 37
39 39 38 32 30 32 32 33 32 29 25 21 18 14 9 6 4 5 7 9 12 14 15 17 19 20 22 23 24 24 24 27 30 36 35 33 33 39 37 36 35 40 41
37 36 32 30 32 32 32 32 30 27 23 19 15 11 7 4 4 6 8 10 13 15 17 18 20 22 24 25 25 25 28 30 28 32 39 38 39 37 37 39 42 38 30
35 31 31 33 33 34 34 32 27 24 20 17 12 7 4 3 5 7 10 12 14 16 17 19 22 23 24 25 28 28 26 29 31 35 38 41 37 35 38 38 39 34 45
29 32 35 36 37 36 33 29 25 23 18 12 7 4 3 5 6 9 12 14 16 17 18 20 21 23 23 22 21 23 26 28 31 34 36 39 35 37 36 33 38 45 45
34 38 39 39 37 33 29 26 23 18 14 8 4 2 3 6 8 11 14 15 17 19 20 20 22 24 24 20 22 22 22 26 30 36 39 37 40 37 34 36 46 45 43
39 40 40 37 34 31 27 23 19 14 10 5 1 2 6 9 10 14 15 17 19 20 21 21 23 24 25 25 24 24 26 28 30 33 37 37 39 39 39 44 41 40 42
39 38 35 33 30 27 24 20 16 11 6 3 1 5 8 11 13 14 17 19 20 20 20 20 20 23 23 23 25 27 30 35 35 32 33 35 35 37 36 36 35 40 44
36 34 31 27 26 23 19 15 11 6 3 0 3 7 10 12 16 16 18 20 22 21 19 20 22 21 21 21 25 31 36 38 39 36 29 29 29 30 27 30 33 37 43
32 30 26 23 19 17 15 10 6 3 1 2 5 9 12 13 15 19 22 23 23 22 22 22 21 20 22 23 26 32 37 39 34 32 34 33 27 29 28 26 27 33 39
26 22 20 19 19 14 7 5 4 2 2 5 8 10 12 14 17 20 21 22 23 24 26 27 25 24 23 25 27 30 32 28 31 33 32 30 29 29 30 31 31 31 35
24 25 24 18 9 7 7 6 3 2 5 7 9 11 11 13 16 18 16 15 18 23 25 26 26 26 27 26 24 24 23 24 28 28 30 31 34 35 34 32 31 29 30
23 17 14 12 11 9 6 3 2 5 7 9 11 13 15 17 18 18 20 22 25 22 23 24 26 26 27 22 23 21 21 23 25 27 30 32 33 33 33 32 30 31 33
19 16 13 10 8 6 4 3 6 8 9 11 13 16 18 19 19 20 22 24 25 25 26 29 31 25 19 21 22 21 21 23 25 26 29 32 33 33 33 32 34 35 37
15 12 10 7 6 4 4 6 8 9 11 13 15 17 19 20 20 20 23 24 24 24 26 27 24 22 24 22 22 22 23 26 28 26 30 33 33 33 33 32 34 37 36
10 9 7 5 4 4 6 7 9 11 13 15 16 17 18 19 19 22 22 22 22 22 21 22 23 23 23 23 24 26 27 28 28 29 31 31 33 34 35 36 36 35 37
6 5 3 2 3 5 7 8 10 12 14 15 18 19 19 17 21 22 20 20 22 18 20 20 21 22 23 23 24 28 31 29 30 31 31 32 33 33 35 38 35 36 37
5 3 1 3 5 6 8 10 12 14 16 16 15 15 17 20 21 22 19 21 21 18 18 20 21 21 22 24 27 30 30 30 31 30 32 32 32 34 36 35 36 36 36
3 1 2 4 5 7 9 12 14 15 16 17 18 17 19 20 20 20 19 20 20 20 20 20 19 20 22 25 28 29 29 31 32 33 33 33 33 34 35 35 35 34 32
1 2 4 5 7 9 12 14 15 16 16 17 18 19 20 22 22 22 20 20 20 20 19 20 20 21 24 26 27 29 30 30 32 33 33 34 35 35 34 34 33 33 33
1 2 4 6 9 12 14 15 16 16 17 18 18 19 18 20 22 22 21 20 19 18 18 20 21 23 24 25 27 29 29 30 31 33 34 35 35 34 30 29 30 30 32
2 4 6 9 11 14 15 15 16 17 18 19 19 19 18 19 20 20 19 18 16 16 18 21 22 23 23 26 27 27 27 29 32 34 35 35 34 31 29 29 30 30 30
4 6 9 11 14 15 15 15 17 18 18 19 20 20 19 19 21 18 17 17 16 17 18 20 23 22 21 24 24 21 26 29 31 33 34 34 33 30 27 27 28 28 28
6 8 11 13 14 15 16 17 18 18 19 19 19 19 19 20 20 16 16 17 17 17 18 21 22 20 23 24 22 20 23 26 29 32 31 29 28 27 24 24 25 25 24
8 11 12 14 15 16 17 18 18 19 19 19 19 18 19 19 16 14 15 16 18 19 20 20 21 20 22 24 18 19 21 24 27 29 28 26 26 23 22 24 22 23 23
10 12 13 14 16 17 17 18 18 19 19 19 18 18 17 17 14 14 14 16 20 21 20 20 19 19 20 22 16 19 22 22 27 27 24 24 23 22 23 24 22 22 23

GFSGL_850_spd_051.txt.gz
Wind_Speed
34 38 38 36 33 33 31 30 33 34 34 31 29 25 22 19 14 9 8 7 8 9 11 13 14 16 17 18 20 21 23 24 30 36 36 37 36 35 34 33 31 32 34
34 31 32 30 30 31 29 29 34 35 33 28 25 23 20 16 13 10 8 9 9 10 12 14 15 17 19 20 21 23 24 25 30 37 35 35 36 36 38 33 34 34 35
29 29 30 30 32 29 29 33 35 34 29 26 23 21 17 11 7 5 6 7 9 11 13 15 17 19 21 22 23 24 26 26 27 32 36 35 37 40 38 38 40 40 37
31 30 31 30 30 30 32 33 33 31 28 26 21 17 11 7 6 6 6 8 10 13 15 17 18 20 21 22 23 23 23 26 28 29 33 36 39 36 36 40 42 40 43
33 29 28 30 29 30 34 35 33 29 26 21 17 12 9 7 6 5 7 9 12 13 15 17 18 18 19 20 18 20 23 25 26 29 33 37 35 35 38 38 40 45 44
29 27 28 29 32 35 37 34 31 27 22 17 13 9 7 7 4 6 9 11 13 15 16 17 19 20 21 19 19 18 19 23 27 30 34 36 39 36 39 38 41 44 45
25 27 30 33 38 37 33 29 27 23 18 15 9 7 5 4 5 9 11 13 14 16 18 20 21 20 20 22 23 20 21 23 25 30 37 35 36 37 36 37 37 35 41
27 32 36 37 34 30 29 26 22 18 12 10 7 3 4 5 8 10 12 13 16 18 19 20 21 22 22 19 20 23 25 29 32 32 31 33 31 31 32 34 35 37 41
28 27 26 27 30 29 25 21 18 15 12 7 3 3 5 7 10 11 14 16 17 18 18 18 20 21 20 19 23 26 30 33 33 32 27 26 26 28 25 26 30 33 39
23 27 27 26 25 24 20 16 11 10 6 3 2 4 6 8 10 14 18 20 21 20 21 23 24 22 20 20 24 28 32 34 30 29 31 30 27 24 23 25 28 31 35
28 28 26 23 19 16 15 13 9 6 4 1 3 5 8 10 12 14 16 17 20 22 25 27 25 23 20 23 23 26 26 24 28 30 30 29 26 26 28 27 27 29 32
27 24 21 19 17 15 11 10 7 3 1 3 4 6 7 10 13 15 15 15 18 23 25 24 22 22 24 23 21 19 20 22 24 26 28 28 28 30 30 28 27 28 28
23 24 19 15 13 11 8 6 3 2 3 4 5 8 10 13 15 16 18 19 21 22 21 21 22 25 25 20 20 20 19 20 23 26 28 28 29 32 31 30 27 29 31
20 18 15 13 11 9 5 3 1 2 3 6 8 11 13 14 16 17 19 21 21 22 23 26 26 22 19 18 17 16 17 21 24 26 27 29 31 31 32 31 32 34 36
17 16 13 10 8 6 3 2 2 4 6 9 11 13 15 16 16 17 19 21 21 21 21 22 21 19 19 18 18 19 21 23 24 25 29 31 31 32 31 31 32 35 34
16 14 11 9 6 4 3 4 5 8 11 13 15 16 15 17 15 18 18 17 18 19 20 20 19 19 19 20 21 24 24 25 26 28 28 30 33 34 35 34 33 32 35
11 11 9 6 4 3 3 4 6 9 11 12 13 13 13 14 16 17 17 18 20 19 17 17 18 18 19 20 22 25 27 26 27 28 31 32 33 34 34 34 33 33 35
10 8 5 4 3 4 6 9 11 13 14 13 13 14 14 16 16 19 19 19 17 15 16 17 17 17 19 22 24 26 27 27 26 29 31 33 33 34 35 33 32 33 34
6 4 3 3 4 6 9 11 12 13 14 14 15 14 15 16 17 18 18 17 18 17 16 16 17 18 20 22 23 25 27 26 28 30 33 34 33 34 33 31 32 31 32
3 2 3 4 6 8 10 12 13 14 15 15 16 17 17 18 18 18 18 17 16 15 16 16 17 19 21 22 24 26 26 25 28 32 34 35 34 34 33 32 31 33 33
2 2 4 5 7 10 12 13 14 15 16 17 17 17 16 16 17 18 17 15 16 15 16 17 19 21 21 22 25 27 24 26 29 32 34 35 35 34 32 31 31 31 33
2 3 4 7 9 11 14 14 15 16 17 17 17 17 16 15 16 17 15 14 14 14 16 18 20 21 20 23 25 25 24 27 29 33 35 35 35 34 32 31 30 30 31
2 4 6 9 11 13 13 14 15 16 16 17 18 17 16 16 17 16 13 14 13 14 15 18 19 20 19 21 23 19 24 27 29 32 36 35 34 31 28 28 28 29 28
3 6 8 10 12 13 14 15 15 16 17 17 16 15 15 16 15 13 12 13 13 15 17 17 19 18 20 22 22 17 22 24 27 30 29 30 28 26 26 27 27 27 27
5 7 9 11 11 13 14 15 15 16 16 15 15 15 15 14 12 11 11 12 15 17 16 17 19 17 20 23 17 16 21 23 25 26 28 26 26 25 29 27 26 26 26
6 8 10 11 12 13 14 14 14 14 14 14 14 14 14 13 11 9 10 13 17 18 18 19 18 17 19 21 14 16 22 24 25 24 24 23 24 23 27 26 27 26 25

GFSGL_850_spd_054.txt.gz
Wind_Speed
29 30 30 32 37 39 37 37 35 34 35 34 31 30 29 27 24 20 17 13 11 10 10 14 14 15 16 16 17 19 21 23 29 34 33 31 33 33 34 33 33 29 31
24 27 29 30 36 35 32 33 31 32 33 32 30 29 28 24 21 17 14 11 12 10 11 14 15 16 16 18 19 21 22 23 28 33 32 34 33 34 35 37 31 33 33
26 24 25 28 29 28 28 27 27 30 32 32 31 29 25 21 18 13 9 7 5 10 15 18 17 17 18 20 21 22 24 25 25 29 34 32 34 35 38 37 39 37 35
24 25 26 27 26 23 21 24 27 31 33 31 27 26 22 20 16 11 7 8 12 13 15 19 18 19 19 20 21 22 22 24 26 29 30 33 35 36 38 41 40 38 36
24 25 26 26 25 24 25 28 29 31 32 29 25 21 19 15 11 9 11 8 10 15 16 17 18 18 19 19 20 20 22 24 25 27 30 34 37 40 41 38 39 37 38
19 22 24 25 26 26 27 28 30 31 28 26 23 19 15 9 3 3 5 10 13 13 14 17 18 20 21 20 19 20 19 21 25 28 31 34 39 39 37 34 34 37 40
21 23 22 24 25 26 26 28 27 25 23 20 16 13 10 6 4 9 7 9 11 13 15 18 19 19 20 22 21 18 18 21 23 27 32 35 36 32 30 33 34 36 38
18 22 23 20 20 22 26 26 25 22 18 16 12 8 2 2 5 7 7 8 11 14 16 17 18 20 21 20 18 20 22 24 26 30 32 32 29 29 30 33 36 36 38
16 18 18 18 27 26 25 26 21 19 16 10 6 3 3 3 6 8 9 11 13 15 17 18 21 23 22 18 19 23 27 30 30 28 25 25 26 28 28 28 30 32 39
23 21 19 22 26 26 22 21 18 11 8 6 5 4 2 4 7 9 12 16 18 20 20 22 23 22 18 17 21 25 29 30 24 27 29 29 26 25 23 24 28 31 33
21 26 28 27 23 20 18 14 12 10 7 6 3 2 2 5 7 10 13 16 19 22 23 24 22 19 17 20 20 23 23 21 26 28 27 27 26 25 23 26 26 28 31
25 25 24 20 17 15 12 12 11 8 6 3 2 3 5 8 11 13 15 16 18 21 21 22 21 20 21 21 20 19 19 20 22 24 26 27 27 26 27 27 25 26 27
22 21 20 18 16 15 11 9 6 4 2 3 4 6 8 11 13 14 16 17 18 18 20 19 21 23 22 20 18 16 17 18 21 24 26 27 28 28 27 29 27 27 29
19 17 16 16 15 12 8 6 3 2 2 4 6 9 10 11 13 13 15 17 18 20 22 23 22 21 18 17 15 13 16 19 22 24 26 27 27 29 30 30 32 31 34
16 15 15 12 10 7 5 3 1 2 5 7 9 10 11 13 13 13 15 18 17 19 20 20 19 17 16 15 15 16 19 20 22 23 25 28 31 32 32 30 31 32 33
15 13 11 8 6 3 1 2 3 6 8 10 11 12 13 13 12 16 18 17 19 18 19 18 17 15 16 17 20 22 21 22 23 23 26 29 32 32 33 32 31 30 33
8 9 7 5 3 2 1 2 4 6 7 8 9 10 12 14 15 18 18 18 18 17 16 15 15 15 16 18 20 22 24 23 22 23 27 30 32 33 32 32 32 32 34
9 8 6 4 2 1 1 4 6 8 9 10 11 12 13 14 15 16 17 17 16 13 13 13 14 16 18 20 20 23 24 23 22 25 29 31 33 33 34 33 33 34 35
8 6 4 3 1 2 4 7 9 11 12 12 13 12 13 15 15 15 16 16 15 14 13 13 14 16 19 20 21 23 24 21 24 27 29 33 32 33 34 34 34 32 33
7 5 3 1 2 4 7 9 11 11 12 14 15 15 15 16 15 15 16 15 13 12 13 14 15 18 20 20 22 23 23 21 25 27 32 33 33 32 33 33 33 34 35
5 3 2 2 4 7 9 11 11 12 13 14 15 15 13 14 15 15 16 13 12 13 14 16 17 18 20 19 22 24 22 23 26 29 32 33 35 34 31 31 33 33 34
4 2 2 4 7 9 10 11 12 13 14 14 14 14 13 13 13 14 12 10 11 12 15 18 19 19 19 20 23 24 20 24 26 31 31 32 34 35 33 33 32 32 34
3 2 4 6 8 9 10 11 12 13 13 14 14 13 13 13 13 11 9 9 10 13 15 17 18 19 17 19 22 19 19 24 26 28 31 32 33 32 30 33 32 34 33
3 4 6 8 8 10 11 12 12 13 13 13 13 13 12 12 11 9 9 9 11 14 15 16 18 19 18 20 22 14 17 21 25 28 29 31 29 29 29 31 32 34 32
4 6 7 8 9 10 11 12 12 13 13 13 13 12 11 11 10 9 8 9 12 14 14 16 18 18 19 20 20 14 15 20 23 26 30 29 28 27 28 29 32 34 30
5 7 8 8 10 11 12 12 12 12 12 12 12 12 12 12 11 9 9 10 13 15 16 17 18 18 18 19 18 13 16 21 23 27 32 29 26 27 28 29 29 31 31

GFSGL_850_spd_057.txt.gz
Wind_Speed
23 25 29 33 29 28 29 33 39 37 33 34 33 31 29 31 31 29 26 23 21 18 14 12 13 14 14 16 18 19 19 22 28 33 32 31 31 33 33 32 33 33 32
23 26 30 26 25 25 29 32 36 34 30 28 26 29 32 31 29 25 23 20 18 17 13 13 11 13 18 20 20 21 22 22 28 33 33 32 33 32 33 34 34 33 32
20 20 19 20 19 23 25 28 29 27 25 24 29 31 30 26 23 20 18 16 14 12 12 13 15 16 18 19 21 23 23 24 27 31 33 34 33 33 35 36 37 36 33
17 15 14 17 17 18 22 23 23 24 25 28 29 27 23 22 20 16 12 10 10 12 13 13 15 16 19 21 22 23 24 26 26 29 32 32 33 35 36 39 41 37 33
12 8 10 13 16 18 20 22 25 25 24 24 25 26 22 18 15 12 11 12 11 10 13 13 15 17 20 22 23 23 23 24 26 27 30 34 36 37 38 39 38 35 35
4 5 10 14 17 21 23 23 23 21 23 26 24 21 20 18 14 11 7 6 7 10 14 15 18 20 21 21 20 21 21 21 23 27 30 33 36 37 37 34 33 35 37
6 11 14 16 19 21 21 20 20 26 26 23 22 19 15 12 9 4 2 7 11 13 16 17 19 19 19 20 21 20 18 20 21 25 31 33 36 33 30 33 32 35 36
9 11 13 13 14 17 19 22 24 23 22 20 16 12 7 5 2 2 6 8 11 12 15 17 18 19 21 21 21 20 21 24 26 28 30 31 29 28 30 33 36 39 39
11 11 9 9 14 20 22 24 23 23 21 17 12 8 6 3 2 4 8 9 11 14 14 17 20 23 22 20 19 21 26 29 28 26 24 25 27 28 28 31 33 32 40
13 15 16 18 20 23 23 23 20 16 14 10 8 7 5 2 4 6 8 12 14 17 18 20 21 21 20 16 19 24 29 26 20 25 25 25 24 26 25 25 27 32 35
20 22 21 22 23 22 21 18 16 13 12 11 8 4 1 2 4 6 11 15 17 20 21 22 21 19 15 18 18 20 20 20 24 24 24 25 25 25 25 26 27 29 33
16 21 23 21 19 17 15 14 14 12 9 6 2 0 3 6 8 11 13 16 18 20 21 21 20 17 20 19 19 17 17 19 21 24 26 26 26 27 25 26 27 28 30
22 21 19 18 16 16 14 12 10 7 4 2 1 2 5 8 11 14 15 15 16 16 19 19 20 20 19 16 15 15 16 18 21 23 24 25 26 27 29 28 29 29 31
18 17 16 15 15 13 10 8 5 3 2 3 4 6 9 11 12 13 14 16 17 18 20 20 20 18 16 15 13 13 15 18 20 23 24 24 26 29 30 30 31 32 34
16 16 14 12 10 8 5 4 2 1 3 5 7 8 10 11 12 13 14 16 16 18 20 19 17 16 14 13 13 14 16 18 20 21 22 25 28 31 32 31 31 32 34
13 12 11 8 6 4 2 1 2 5 9 10 11 12 13 13 12 15 17 17 18 19 19 18 16 15 15 17 18 18 17 19 20 20 22 27 30 33 35 34 33 32 35
7 8 6 4 2 2 3 4 5 7 8 10 11 11 12 13 13 16 17 18 18 18 16 14 14 15 16 18 19 19 21 21 19 21 24 27 32 34 34 33 34 34 36
5 4 2 0 1 2 3 5 6 8 9 10 11 12 13 14 15 16 16 16 16 13 12 12 13 15 17 19 19 20 22 21 19 22 25 30 32 32 34 34 34 36 37
4 3 3 3 3 4 5 7 9 11 11 12 12 12 13 14 15 15 15 16 16 13 11 11 13 15 17 19 19 21 22 20 21 25 26 31 31 32 33 34 36 36 35
6 5 4 3 4 5 7 9 10 11 12 13 13 13 14 14 13 13 14 14 12 12 12 13 14 16 18 19 20 22 23 18 21 24 29 31 32 32 33 34 35 38 36
6 5 4 4 5 7 9 10 11 12 13 13 13 13 12 13 13 13 14 11 11 11 13 14 16 17 18 19 20 23 22 18 22 27 29 32 34 34 33 34 36 37 36
6 4 4 5 7 8 9 10 12 12 12 12 13 12 12 12 13 13 10 9 10 11 14 17 17 18 20 19 21 24 19 19 23 27 30 33 37 38 37 35 34 35 38
5 5 5 6 8 9 10 11 12 12 12 13 13 12 12 12 11 10 8 8 9 11 14 17 18 19 19 19 20 22 18 18 24 27 31 35 40 38 35 34 35 36 37
6 6 7 8 9 10 11 12 12 12 12 12 12 12 12 11 9 8 9 9 10 12 15 17 18 20 20 20 20 19 15 17 23 27 30 34 36 32 32 33 32 35 35
7 7 8 9 10 10 12 12 13 12 12 12 12 11 11 10 10 9 9 10 12 14 16 17 19 20 20 20 20 20 14 16 20 25 28 34 29 32 31 32 32 35 33
8 8 9 10 10 12 13 13 13 13 12 12 13 12 12 12 11 10 10 11 13 15 17 19 19 20 20 19 20 21 16 17 21 26 29 30 29 31 32 32 32 33 32

GFSGL_850_spd_060.txt.gz
Wind_Speed
22 21 21 23 26 28 26 26 28 29 30 32 31 31 31 29 26 25 27 28 27 23 20 17 15 13 13 15 14 15 17 21 26 27 27 26 29 30 32 33 33 34 35
15 17 20 22 23 24 22 23 26 27 28 28 27 26 25 25 26 27 27 24 20 19 17 16 15 13 13 12 16 17 19 21 25 28 29 30 31 31 33 34 34 34 34
12 15 18 19 18 16 14 17 19 19 21 23 22 23 23 26 27 25 23 22 18 17 15 13 11 10 10 12 18 20 20 22 24 27 30 31 33 32 34 35 36 36 34
20 22 19 15 11 9 8 10 15 19 21 22 23 24 24 25 25 23 19 17 16 12 9 11 10 12 13 13 19 19 20 22 25 27 29 31 32 33 34 36 40 37 34
13 16 11 7 6 7 9 12 16 20 21 23 24 24 24 22 19 19 16 12 9 8 8 9 10 11 13 16 18 20 22 23 25 27 29 31 33 34 34 37 38 35 35
11 6 6 5 7 10 11 14 16 19 20 21 23 22 21 18 15 13 12 8 6 7 7 8 10 14 16 17 17 18 20 22 23 25 27 30 33 35 35 33 32 35 38
4 1 2 3 6 6 9 12 14 17 20 20 20 19 17 14 11 7 5 4 4 5 7 10 12 14 17 19 20 22 21 19 18 21 27 30 33 31 28 30 32 35 38
3 4 4 4 6 9 11 15 20 23 21 19 17 15 14 13 9 4 3 0 2 6 10 12 15 17 19 20 20 19 19 21 22 25 27 28 25 24 27 30 34 37 38
3 7 7 6 10 12 17 20 19 18 19 19 16 12 10 7 6 4 2 3 5 8 12 15 18 19 19 19 17 19 24 25 23 21 20 21 22 23 24 28 30 31 38
6 8 10 13 14 16 18 18 17 17 17 14 12 10 8 5 4 3 6 7 10 12 15 17 17 18 17 14 18 23 25 21 19 19 17 18 20 22 21 22 26 29 32
12 14 15 16 18 19 19 17 15 12 12 12 10 8 6 3 2 7 9 11 14 15 16 17 18 18 15 16 16 18 18 18 20 20 21 22 21 20 20 22 25 28 31
13 15 18 18 17 16 15 15 14 12 11 10 6 4 3 3 5 9 10 13 14 16 18 18 18 18 18 16 15 14 14 15 18 20 22 22 21 21 22 24 25 27 28
17 18 18 17 16 15 13 12 10 9 6 5 4 4 5 6 7 10 12 13 14 14 16 17 17 17 15 13 12 13 14 16 19 20 22 21 21 24 25 27 28 28 29
17 17 16 15 14 12 10 8 6 5 3 2 3 5 7 9 11 11 12 14 15 15 16 16 16 15 13 12 11 12 14 16 19 21 21 20 23 27 29 30 31 30 33
15 15 14 12 10 8 7 6 5 5 6 7 7 8 9 10 11 12 13 15 15 16 17 16 14 11 10 10 10 13 14 16 18 18 19 22 25 30 32 30 30 31 34
12 12 10 8 6 5 5 5 4 5 7 10 12 12 12 11 11 13 15 15 15 15 15 14 12 12 13 14 16 15 14 16 17 17 19 22 27 31 32 31 31 32 35
7 7 6 5 3 2 2 3 6 8 10 11 11 10 11 12 13 13 14 15 14 15 14 12 11 12 14 15 17 17 18 18 18 17 21 23 28 30 32 32 32 34 37
6 5 3 2 2 3 4 6 7 9 9 10 11 11 13 12 13 13 13 13 12 11 11 11 12 13 15 17 18 18 19 19 17 18 22 25 27 30 32 32 33 34 37
5 2 1 2 3 4 6 7 9 10 11 12 12 12 13 12 12 12 13 13 12 10 9 9 12 14 16 17 18 18 20 21 18 20 22 26 28 31 33 33 33 34 35
3 2 2 3 4 6 7 9 10 11 13 13 13 13 13 13 12 11 11 11 10 9 10 11 13 15 16 18 19 19 21 20 15 19 23 27 30 34 36 35 36 37 38
5 4 4 4 5 7 9 9 11 13 13 14 14 13 13 14 13 12 10 9 8 9 11 13 15 16 18 19 20 21 23 19 16 21 25 28 31 37 34 36 37 38 36
6 6 5 6 7 8 9 10 12 13 14 14 13 13 12 12 12 11 9 8 8 10 13 16 16 18 20 21 22 23 24 22 18 23 26 30 32 37 34 38 36 35 35
8 7 6 6 7 9 9 11 13 13 13 13 13 13 12 11 10 9 9 9 8 9 13 16 18 19 20 20 21 22 25 22 19 22 27 31 34 38 35 36 36 37 37
8 7 7 7 8 9 11 13 14 14 13 13 13 12 12 11 10 10 11 10 10 11 13 16 19 21 22 21 21 20 23 21 19 22 25 33 34 34 34 35 35 36 38
8 7 7 8 9 10 12 13 14 14 14 13 13 13 13 12 12 12 12 12 12 13 14 16 19 22 22 21 21 21 22 21 20 22 25 28 33 33 33 34 34 37 36
9 8 8 9 10 11 13 14 14 15 14 14 14 14 14 14 14 13 13 13 13 14 16 17 20 21 21 22 20 21 22 23 21 20 25 30 33 32 32 32 32 37 33

GFSGL_850_spd_063.txt.gz
Wind_Speed
14 17 18 17 17 18 20 22 24 25 27 28 28 27 28 28 30 30 28 27 30 29 28 27 25 24 20 17 16 16 16 17 19 20 21 21 23 25 28 30 31 32 33
6 7 9 12 15 18 21 24 25 26 27 26 22 21 22 23 25 26 26 26 26 27 25 23 20 18 15 15 14 15 13 14 18 21 23 23 26 26 29 30 30 31 32
13 12 11 11 14 18 18 18 18 17 15 17 16 18 20 23 26 26 26 27 26 23 19 16 13 12 13 14 13 13 11 15 17 22 26 25 28 28 29 31 31 32 31
10 11 13 16 17 17 10 8 8 10 12 15 17 19 22 24 24 25 25 23 20 17 14 13 12 12 10 12 12 12 14 17 19 23 24 25 26 28 29 30 28 28 29
11 10 12 13 10 7 7 6 8 11 14 16 18 21 23 23 22 21 19 15 13 11 10 9 7 7 7 10 11 12 14 16 18 21 22 23 25 21 23 25 25 23 26
12 11 9 7 5 3 4 4 5 8 11 16 19 22 24 23 19 14 11 11 10 8 6 5 5 6 8 9 10 11 14 15 17 20 23 22 21 23 23 21 23 25 27
13 9 8 8 8 6 2 4 5 10 14 16 19 18 16 14 14 13 10 7 5 2 1 2 3 6 9 10 12 13 14 14 15 17 20 21 22 22 22 25 27 26 29
10 8 8 8 8 7 9 12 14 17 18 18 16 16 17 15 12 10 6 5 4 3 2 3 6 9 11 14 13 14 16 17 17 19 20 19 18 19 21 23 27 29 31
7 7 8 8 9 11 12 14 17 16 17 16 16 15 13 12 10 8 7 4 1 3 6 8 10 12 13 12 13 17 18 17 15 14 14 15 16 17 19 23 24 26 31
8 9 12 13 14 15 15 15 16 16 17 16 14 11 10 8 6 5 4 4 5 7 9 11 11 12 13 9 12 16 16 14 14 12 11 12 15 16 16 18 22 26 28
15 16 16 16 17 18 18 16 14 13 11 13 11 11 8 7 8 8 8 8 8 9 11 12 12 12 12 13 12 13 13 13 13 14 15 15 15 14 15 18 21 26 29
19 19 19 18 16 15 13 14 14 13 11 11 9 8 7 4 3 5 6 9 11 11 12 12 13 13 12 11 9 9 10 11 13 15 16 15 14 14 17 20 23 25 27
19 17 16 15 15 15 13 12 11 9 7 7 6 5 4 5 6 7 8 9 11 12 12 11 12 11 9 8 7 8 10 12 14 15 16 15 16 18 20 24 24 25 27
15 15 15 13 13 12 10 9 8 7 6 6 6 5 5 6 8 9 11 12 11 11 10 10 10 9 7 7 8 9 11 12 15 17 17 17 19 21 24 26 26 27 30
16 15 13 11 10 8 7 6 5 5 5 5 6 7 8 8 9 11 12 12 12 11 11 10 8 5 5 6 7 9 10 12 14 16 15 18 21 24 26 25 25 27 29
13 12 10 8 7 6 5 5 6 7 8 9 10 11 11 11 11 12 12 12 11 11 9 8 6 6 7 8 10 10 10 12 14 14 14 19 22 25 28 28 28 27 30
9 9 7 6 4 4 4 5 5 6 8 10 10 11 11 11 11 11 11 10 10 10 9 7 7 8 9 11 12 14 13 14 16 15 15 19 23 26 28 33 32 29 30
9 7 5 3 3 2 2 3 6 7 8 9 11 10 10 11 11 11 10 9 9 9 7 7 8 9 11 13 14 15 15 16 17 15 16 20 24 26 30 33 29 32 34
8 5 4 3 2 1 3 5 7 8 9 10 11 11 11 10 10 10 10 9 8 5 5 6 9 11 13 14 16 16 17 18 19 16 17 21 23 27 31 33 30 32 32
8 6 4 2 1 3 5 6 7 9 10 11 11 12 12 10 9 9 9 8 6 5 6 7 9 12 13 16 16 17 18 18 17 15 17 22 23 28 32 34 32 36 37
8 5 3 3 3 4 6 7 8 10 11 11 11 12 12 12 10 9 8 6 5 6 7 9 10 12 14 16 18 19 20 20 20 18 18 21 24 31 33 33 34 37 37
7 5 5 5 4 5 7 7 9 11 12 11 11 11 11 10 10 9 7 7 7 8 9 11 13 15 17 18 20 21 22 21 22 21 20 22 26 30 34 35 36 37 37
8 7 7 5 5 7 7 8 10 11 12 12 11 11 10 10 9 9 9 9 9 9 11 13 15 17 18 19 19 21 23 22 24 24 24 25 28 31 35 36 37 38 36
9 8 7 7 7 8 8 9 11 12 13 12 12 11 11 11 11 11 11 11 11 11 12 14 16 19 21 20 20 20 20 22 23 24 23 24 29 35 35 37 36 37 36
10 10 8 8 8 8 8 10 12 13 14 13 13 12 12 13 13 13 13 13 13 13 12 14 16 19 20 20 21 20 21 21 21 24 23 24 30 33 34 34 34 36 36
11 11 9 8 8 9 9 11 13 14 14 14 14 14 14 14 15 15 15 14 14 13 13 14 15 19 20 20 20 21 20 20 21 21 21 28 31 32 33 33 34 36 36

GFSGL_850_spd_066.txt.gz
Wind_Speed
8 10 12 15 16 16 17 18 20 21 24 25 26 27 26 24 24 26 28 31 31 31 31 33 31 27 23 20 17 17 17 15 17 21 22 20 18 20 26 28 29 31 29
6 5 4 5 7 9 12 15 18 21 24 25 26 24 23 22 21 22 25 27 27 27 26 25 23 21 17 15 16 18 17 17 17 18 20 17 18 23 27 28 26 27 28
5 6 6 6 7 8 10 14 18 19 20 20 19 20 18 19 19 21 23 25 23 20 20 17 16 15 14 15 15 15 15 16 15 15 18 18 21 20 22 22 23 24 23
5 3 4 5 7 9 12 14 12 12 11 11 13 13 15 17 17 20 22 22 20 17 15 13 12 12 13 13 12 13 11 11 14 15 14 13 16 16 18 18 19 19 20
4 4 6 8 7 6 6 6 8 8 9 9 11 12 14 15 15 16 17 17 16 16 13 11 10 11 12 12 8 8 9 12 13 14 13 12 13 13 15 17 18 18 20
6 8 7 5 6 5 5 4 4 3 3 3 5 8 12 15 15 14 13 13 12 10 9 8 8 7 5 5 5 7 11 12 13 12 13 13 14 15 15 15 17 19 22
9 7 8 8 8 8 7 6 5 4 5 9 13 14 14 13 12 11 11 11 9 8 6 3 1 4 6 8 9 11 12 13 14 13 14 15 15 13 16 18 17 20 23
8 8 9 9 10 10 10 11 11 12 13 14 12 11 12 13 11 11 9 7 6 4 2 1 3 6 9 10 9 11 13 13 13 14 14 14 13 13 15 17 19 20 21
9 9 11 11 14 14 16 17 16 14 15 14 12 11 10 10 8 9 7 5 3 1 2 4 6 8 8 9 9 13 12 13 13 12 12 12 12 14 15 18 19 18 23
11 13 14 16 16 17 17 17 15 13 14 13 11 9 9 10 8 5 4 3 3 4 6 7 8 8 8 8 9 11 11 9 9 8 9 11 13 13 14 15 18 21 23
17 18 18 17 17 17 16 14 13 12 11 10 9 9 8 7 6 6 5 5 5 6 6 7 7 8 9 9 8 8 8 8 9 10 11 11 12 11 12 15 19 23 26
19 20 19 18 17 14 13 14 13 12 10 9 8 6 4 3 3 5 8 8 8 6 6 8 8 9 8 8 7 7 7 7 9 10 11 12 12 12 15 17 20 23 24
19 18 16 15 15 14 13 12 10 9 8 6 4 3 3 4 5 6 8 9 9 8 8 8 9 9 8 6 5 6 7 9 10 11 12 12 13 15 17 20 23 25 27
16 15 16 14 13 12 10 9 7 6 4 3 2 4 5 7 7 8 9 10 10 9 8 8 7 6 4 4 5 7 8 9 11 13 14 13 15 18 19 22 26 27 31
16 15 14 12 10 9 8 7 5 3 3 3 4 5 5 6 7 8 9 8 9 9 8 7 5 4 4 5 6 8 10 10 12 14 15 15 16 19 22 23 25 29 29
14 13 11 9 8 7 5 4 2 1 4 5 6 7 8 8 11 11 12 11 10 9 7 6 4 4 5 7 9 10 11 12 14 15 16 16 18 21 24 25 26 26 26
12 10 9 7 6 5 3 1 2 5 6 8 8 9 9 11 11 11 11 10 9 7 6 5 4 5 7 9 11 12 13 13 15 17 17 16 19 22 24 27 28 27 27
12 10 8 7 5 4 2 1 3 5 7 9 10 10 10 11 11 10 9 8 8 7 5 4 5 7 10 11 13 14 15 16 17 19 19 17 19 23 24 27 30 28 28
11 9 7 6 5 3 2 2 4 6 7 9 10 10 11 11 11 11 9 8 8 6 5 6 7 9 11 12 15 16 17 18 19 20 20 19 20 22 24 27 31 29 28
13 10 8 7 6 4 3 4 5 7 8 10 10 10 11 11 11 11 10 9 7 6 7 7 8 10 12 14 16 18 19 20 20 20 21 20 21 23 25 29 32 33 33
13 11 10 9 7 5 5 6 6 8 9 10 10 10 10 10 11 10 10 9 8 8 9 9 10 11 13 16 18 20 21 22 22 22 23 23 23 26 26 29 34 34 34
15 13 11 9 7 6 6 7 8 9 10 11 11 11 11 11 11 11 10 9 10 11 12 12 12 13 15 17 19 21 22 23 23 23 25 25 25 26 27 31 34 35 34
16 14 12 10 8 8 8 8 9 10 11 12 12 12 12 12 12 13 13 13 13 14 14 15 15 15 16 18 20 21 23 22 23 24 24 26 27 27 29 33 36 35 38
17 14 12 11 10 9 9 9 10 11 12 13 13 13 14 14 14 15 15 15 16 16 16 16 17 17 18 19 20 21 21 22 23 23 23 26 27 30 35 35 35 35 34
18 15 13 12 11 10 10 10 11 12 13 14 14 15 15 15 16 17 17 17 17 17 17 17 17 18 19 20 21 19 20 22 20 21 24 26 30 32 32 32 34 35 36
18 16 15 13 12 11 11 12 12 13 14 15 16 16 16 16 17 18 18 19 18 18 17 16 16 18 19 21 20 18 22 20 19 20 22 27 30 31 31 32 34 36 38

GFSGL_850_spd_069.txt.gz
Wind_Speed
7 7 7 8 10 12 13 14 15 16 18 19 21 23 24 25 23 22 22 24 26 28 30 31 30 30 30 25 22 16 14 14 12 20 18 19 22 23 24 25 24 25 28
6 5 3 2 3 5 7 9 11 13 16 18 20 22 23 22 21 19 20 22 23 25 25 25 24 21 17 14 11 11 9 13 15 17 17 18 20 21 18 22 24 25 27
4 4 5 4 4 4 5 7 10 12 14 16 17 18 17 15 16 17 19 19 19 20 18 17 16 14 9 7 6 13 11 12 13 14 15 16 16 15 17 19 22 22 22
4 3 3 3 5 6 7 8 10 12 12 11 11 12 12 13 13 14 13 13 14 13 12 10 10 10 9 9 10 11 10 10 11 11 10 11 13 15 17 18 17 19 24
4 3 4 4 3 3 3 4 6 6 6 6 7 7 7 7 5 5 5 8 9 10 9 8 9 8 8 8 8 8 8 7 7 9 11 10 12 13 11 15 20 20 22
3 2 2 1 1 3 4 3 4 5 6 6 5 3 1 3 7 8 6 7 7 6 6 9 8 7 7 6 4 7 8 8 9 10 12 13 11 11 14 17 18 23 25
3 2 2 4 7 8 7 8 9 9 8 9 9 7 7 9 8 8 8 6 8 7 6 4 2 2 2 3 5 7 9 8 9 12 13 12 14 13 17 19 18 18 22
4 5 5 7 8 10 10 13 14 13 12 13 12 9 9 10 7 6 5 2 2 2 3 4 3 4 5 6 6 8 9 10 10 11 12 13 12 12 13 16 18 21 22
5 7 8 9 13 13 14 16 15 13 14 14 13 11 9 9 6 5 6 5 3 1 1 3 5 7 7 7 7 9 9 8 10 12 10 10 10 12 14 16 16 17 22
8 11 13 15 16 16 17 18 16 14 13 11 10 10 10 9 8 6 5 7 6 6 6 8 7 8 9 10 9 8 10 8 8 8 8 9 10 12 12 13 14 17 20
14 16 17 18 18 17 16 15 12 10 10 10 9 9 7 6 5 5 5 5 6 7 7 9 10 10 11 10 9 8 8 7 6 9 8 9 11 11 12 13 15 19 22
18 18 18 18 16 14 12 12 11 10 8 7 5 4 4 5 7 9 9 9 9 8 9 10 11 10 10 8 6 5 5 6 7 9 10 10 12 12 13 16 18 21 23
19 17 16 15 15 13 11 10 9 7 4 3 3 4 5 6 8 8 10 11 11 10 10 11 10 9 7 6 4 5 6 7 8 10 11 13 14 14 16 18 19 21 24
16 15 15 13 12 10 9 8 5 4 2 2 3 4 6 7 8 9 11 11 12 9 10 9 9 7 6 4 4 5 7 9 10 12 13 15 16 16 17 19 23 24 27
15 15 13 12 10 9 8 6 3 1 1 3 4 6 6 7 10 11 11 11 11 11 10 9 7 6 4 5 6 8 9 10 11 14 15 17 18 18 19 21 23 25 26
15 13 12 10 9 7 5 4 1 1 3 4 6 8 9 10 11 12 12 12 11 10 9 7 6 6 6 7 8 9 11 12 13 15 17 19 20 19 21 23 23 24 28
14 12 11 9 8 7 5 3 2 3 5 7 8 9 9 12 13 13 13 12 11 9 8 7 6 6 7 8 10 11 12 13 15 16 18 19 20 20 22 24 25 25 30
13 11 10 9 8 7 5 4 4 5 7 10 10 12 12 12 13 13 12 11 10 9 8 8 7 8 9 10 11 12 14 15 16 18 19 20 21 22 23 25 26 29 31
15 13 11 10 9 8 6 5 6 6 7 9 12 13 12 13 12 12 11 11 11 10 9 8 9 10 11 12 13 14 15 17 18 20 20 20 21 23 24 25 28 29 29
16 14 13 11 10 9 8 7 7 7 8 10 11 12 13 14 14 14 13 12 11 10 10 10 11 12 13 14 14 16 17 18 19 20 21 21 21 23 26 27 28 30 34
17 16 14 13 12 10 9 8 8 8 10 11 12 12 12 13 13 14 13 13 12 11 11 13 13 14 15 15 16 18 19 20 20 21 22 23 24 25 25 27 28 32 34
18 17 16 14 13 12 11 10 9 10 11 12 13 14 13 14 14 14 14 14 14 14 15 15 16 16 16 17 18 20 21 21 21 21 24 25 25 26 27 28 31 34 35
20 19 17 16 15 14 13 11 11 11 12 13 14 15 15 15 15 15 16 16 17 17 17 18 18 17 17 18 19 20 23 22 21 23 24 24 25 26 27 32 34 36 36
22 21 19 18 16 15 14 13 13 13 13 14 15 16 17 17 17 17 17 18 19 19 19 19 19 18 18 19 19 21 22 22 22 24 22 24 26 27 31 33 36 36 37
24 22 21 20 18 16 15 14 14 14 14 15 17 18 18 18 18 18 19 20 20 20 19 19 19 19 18 19 19 20 21 19 22 23 23 25 28 31 32 33 36 37 37
25 24 22 21 19 17 15 15 14 15 15 17 18 18 19 19 19 19 20 21 21 21 20 19 19 18 18 19 19 21 19 20 22 22 21 24 26 31 32 33 35 37 36

GFSGL_850_spd_072.txt.gz
Wind_Speed
5 5 5 5 7 10 12 12 14 15 15 16 18 18 17 17 17 17 16 17 19 21 22 24 27 29 30 29 26 23 19 17 15 16 14 14 17 17 19 20 20 21 22
2 6 4 4 6 8 9 10 12 13 12 12 13 14 16 16 16 17 16 14 17 19 20 21 22 23 22 19 15 11 10 10 9 11 10 14 13 14 15 16 17 17 18
3 4 5 6 5 5 5 5 6 7 9 10 12 14 13 13 12 12 13 14 16 17 18 16 14 13 12 9 6 6 6 6 6 10 10 8 9 10 10 12 13 14 15
2 2 2 3 4 5 5 5 6 8 10 10 10 9 8 8 9 10 10 9 8 8 7 6 6 6 4 3 4 7 7 7 6 6 6 6 7 8 10 12 13 15 19
2 2 2 2 2 2 1 1 2 1 1 2 4 6 5 5 5 3 3 2 1 2 3 4 3 3 6 5 5 4 4 3 5 7 6 6 6 8 9 11 16 19 17
1 1 2 1 1 2 1 0 1 3 6 6 7 7 7 9 10 8 6 5 5 5 5 5 5 5 5 4 4 4 6 5 6 7 8 7 6 6 10 15 17 18 20
1 1 1 2 3 4 3 5 8 11 12 13 14 12 13 12 10 8 7 4 3 2 2 2 4 3 5 4 5 6 7 6 7 8 8 8 10 11 13 13 13 14 16
3 4 4 4 5 6 10 13 15 16 16 16 15 13 10 11 9 8 7 4 2 0 1 4 4 1 3 3 6 7 7 8 7 7 9 9 9 9 10 12 15 17 17
5 4 4 6 9 13 15 17 17 16 16 16 15 12 10 10 7 6 4 4 4 4 4 4 5 5 6 8 7 8 8 8 8 9 5 5 5 6 9 12 12 15 20
7 8 9 11 13 16 17 18 17 15 14 13 12 11 10 8 7 5 5 5 5 6 7 7 6 7 9 9 9 9 9 8 7 6 5 5 6 7 8 11 12 15 18
11 13 14 15 16 17 17 15 12 12 11 11 9 7 6 6 6 6 7 6 7 7 7 8 10 10 9 9 9 7 7 7 6 5 5 6 7 8 10 11 13 17 20
15 16 18 16 15 15 13 13 11 9 8 7 6 5 6 7 8 9 9 9 9 9 10 10 10 10 9 8 5 4 4 4 4 5 6 8 9 10 11 12 13 16 18
18 18 16 15 13 13 11 10 8 6 5 4 3 4 6 7 7 8 8 9 9 9 9 9 9 8 7 5 3 2 4 5 6 7 8 10 11 13 13 13 14 17 20
19 17 16 14 13 11 9 7 5 4 2 1 3 5 7 8 9 11 12 12 12 12 11 10 8 6 5 3 3 4 5 7 8 9 11 12 13 14 14 14 17 20 22
16 16 15 13 12 11 9 6 3 2 1 3 5 7 9 10 10 11 11 11 11 10 10 8 6 6 5 4 5 6 8 9 10 12 13 14 15 16 16 15 17 21 22
17 16 14 13 11 9 7 5 4 2 3 5 7 7 8 9 10 11 11 11 10 9 8 7 6 6 5 6 7 9 10 11 12 13 14 16 17 19 19 18 19 21 23
17 16 15 13 11 10 8 6 4 3 4 5 6 8 9 11 11 12 11 11 11 9 9 8 7 7 7 8 10 11 11 12 13 14 15 17 18 18 19 20 21 22 25
18 15 14 12 12 10 8 6 5 6 6 6 8 10 10 10 12 12 12 11 10 10 9 8 8 8 9 10 11 11 11 12 14 15 16 17 17 18 19 20 21 23 25
18 16 15 14 12 10 9 8 8 8 8 9 10 10 11 12 12 12 12 12 11 10 10 9 8 9 10 12 12 13 13 14 16 16 17 18 18 19 22 22 23 23 24
19 18 16 14 13 12 11 10 9 9 9 9 10 12 14 14 14 13 13 12 11 11 10 9 10 12 13 14 14 15 15 16 17 17 18 18 19 20 22 23 24 26 27
21 19 18 16 15 14 12 11 11 10 10 10 11 12 13 14 14 15 14 14 13 12 11 12 13 14 14 16 16 17 18 18 19 19 20 20 22 23 22 23 25 27 30
22 21 20 18 16 15 13 13 12 12 11 12 12 13 14 14 15 15 15 15 14 14 14 15 15 15 15 16 18 19 20 19 20 20 21 23 24 23 23 25 27 30 31
24 23 21 20 18 16 16 14 14 13 13 13 13 14 15 16 16 16 16 16 16 15 16 17 17 16 16 17 18 19 21 20 20 21 22 24 25 24 25 27 29 31 32
26 24 22 20 19 18 17 16 15 14 14 14 15 15 16 17 17 17 17 17 17 17 17 18 18 18 17 17 18 18 19 20 21 21 21 25 26 26 27 28 32 34 36
30 26 24 22 20 19 18 17 16 15 15 15 16 16 17 18 18 18 17 17 18 18 18 18 17 18 18 18 17 17 19 19 20 20 23 26 28 29 30 30 33 34 35
34 31 26 22 20 21 19 18 17 16 16 16 16 17 18 18 19 19 18 18 18 18 17 16 17 17 17 17 16 18 19 19 19 19 21 24 26 27 28 32 33 35 36

GFSGL_850_spd_075.txt.gz
Wind_Speed
7 8 8 10 11 12 14 15 15 16 17 18 19 19 19 19 18 17 17 17 17 15 15 18 21 24 25 25 24 23 21 19 20 20 19 18 17 15 17 15 15 15 18
7 8 8 9 9 9 10 11 12 13 14 14 14 14 14 15 15 15 15 14 14 14 14 16 18 20 20 18 18 16 13 12 12 12 13 13 11 11 10 11 14 16 16
6 7 8 9 8 7 7 7 7 6 8 8 9 11 11 11 12 12 9 8 10 12 13 14 15 14 12 9 7 6 6 7 7 8 8 8 7 9 10 9 11 12 13
6 6 6 6 7 8 7 8 8 8 8 7 7 6 6 6 8 6 5 5 7 7 7 6 6 5 5 4 3 6 6 6 6 4 8 9 8 9 10 9 9 10 12
4 5 5 5 5 5 4 4 4 4 3 3 2 3 2 1 1 2 2 2 2 1 1 2 2 3 4 4 5 5 6 5 4 5 10 8 8 7 8 9 10 12 13
5 4 4 4 5 5 5 4 4 3 3 3 2 5 7 8 11 10 9 7 7 5 3 1 1 3 5 7 7 7 4 3 5 7 9 8 8 7 8 10 12 13 11
6 5 4 4 5 5 5 5 7 7 7 9 12 12 12 14 12 12 11 8 6 5 3 1 2 3 5 6 3 2 3 6 7 7 8 9 9 10 10 10 9 10 12
7 5 4 3 5 7 8 10 12 12 13 14 14 12 12 14 12 11 9 6 4 2 1 1 2 3 4 3 5 6 7 6 6 7 8 9 9 9 8 9 10 11 11
7 5 5 7 8 11 13 14 15 15 14 14 13 11 10 11 9 7 6 4 3 2 3 4 4 5 5 7 6 7 7 7 8 9 7 5 6 6 8 9 9 11 13
8 7 7 9 11 14 15 16 17 14 12 11 11 10 9 7 5 4 3 4 5 5 6 6 6 7 9 9 8 8 8 7 7 7 6 6 6 7 8 9 10 11 14
9 9 11 13 16 17 17 16 13 11 10 9 8 7 5 5 4 5 6 7 7 7 8 8 8 8 8 9 9 6 6 6 6 5 5 6 7 8 9 11 11 13 15
12 13 15 17 18 16 14 14 12 10 7 6 4 3 4 5 6 7 7 7 7 8 8 9 9 9 8 8 6 4 4 4 4 5 7 7 8 9 11 11 11 13 16
16 17 18 17 16 14 13 12 10 8 5 3 1 3 4 5 6 7 8 9 8 8 7 8 7 7 6 5 3 3 4 4 6 7 8 9 10 11 11 13 13 15 16
18 19 18 17 16 14 13 10 8 5 3 1 2 3 4 5 7 10 11 11 10 10 9 8 7 6 4 4 3 4 5 6 8 9 10 11 12 12 13 14 16 16 19
20 19 18 16 14 13 11 8 7 5 3 3 3 4 6 7 8 10 10 10 9 8 8 7 6 6 5 5 5 6 7 9 10 12 13 12 13 14 15 15 16 17 20
21 20 18 16 14 13 11 9 7 6 5 4 4 5 7 7 8 9 10 9 8 8 8 7 7 7 6 6 7 8 10 11 11 12 12 13 14 15 15 14 15 16 19
19 19 18 17 15 14 12 10 8 8 6 5 4 6 7 7 8 9 9 8 8 8 8 8 8 7 7 8 9 10 10 10 11 12 13 14 15 14 14 15 16 19 21
19 18 18 16 15 14 13 11 10 8 7 6 6 7 7 8 9 9 9 9 9 9 9 9 8 8 9 9 11 11 11 11 12 13 14 14 15 16 16 17 18 20 22
21 21 19 18 16 15 13 12 11 9 8 8 7 8 8 9 9 9 10 10 9 9 10 9 9 9 10 12 12 13 13 12 13 14 15 14 14 16 18 20 20 20 21
22 21 20 19 18 17 16 14 12 11 10 10 9 9 9 10 10 10 10 10 10 10 10 10 10 11 12 13 15 16 15 14 14 15 15 16 16 17 20 21 20 22 23
24 24 22 22 21 18 17 15 14 13 12 11 10 11 11 11 11 12 12 12 12 12 12 13 13 14 14 15 17 18 18 17 16 17 17 18 18 20 20 21 21 23 25
25 26 25 24 21 20 18 16 16 15 13 12 12 12 11 12 12 13 13 13 14 14 15 15 15 15 16 17 18 20 20 19 18 18 19 20 19 20 22 22 23 25 26
28 28 27 25 24 21 20 18 17 15 14 14 13 13 12 13 13 14 15 14 15 15 16 17 18 17 16 18 19 20 21 20 19 20 21 22 21 22 23 25 25 27 26
31 30 29 27 25 24 22 19 17 16 15 15 14 14 14 14 14 15 16 16 17 17 17 18 19 19 18 17 18 19 21 20 20 20 20 23 24 23 25 26 27 28 29
35 35 34 30 27 25 22 20 18 16 16 15 15 15 15 15 15 16 16 17 18 18 17 17 17 18 17 18 18 18 19 20 21 20 21 22 24 26 28 29 30 31 31
38 37 37 34 31 26 23 20 16 16 17 16 16 16 15 16 16 17 17 18 19 18 17 17 17 18 19 19 18 18 19 20 20 19 20 23 26 27 27 30 31 32 33

GFSGL_850_spd_078.txt.gz
Wind_Speed
10 10 10 11 12 13 14 15 15 16 16 17 19 19 19 18 19 21 20 18 17 16 16 16 16 17 17 20 21 21 20 19 20 21 18 16 17 18 18 19 18 17 17
8 8 9 10 11 11 11 12 13 14 14 14 14 14 15 15 14 14 14 14 14 13 12 11 11 13 15 18 19 17 15 14 13 14 12 8 9 10 12 13 12 13 13
8 9 10 10 10 9 8 7 7 8 8 9 9 10 11 11 11 11 11 10 8 6 7 8 10 11 11 11 12 11 10 10 10 9 9 7 8 10 11 11 10 11 12
9 9 9 9 9 9 9 8 8 8 8 8 9 9 9 8 7 7 6 6 5 4 4 6 5 5 5 5 6 7 7 7 8 8 9 8 9 8 8 9 9 11 11
8 8 8 8 8 8 8 8 8 8 7 6 6 6 5 4 4 3 2 3 2 1 1 1 1 1 3 4 4 5 7 8 8 7 7 6 7 8 9 10 9 10 11
8 7 7 7 7 8 7 7 6 6 5 5 5 4 5 5 6 7 7 5 4 4 2 1 1 1 2 3 5 7 7 6 6 7 8 8 10 10 10 10 11 11 6
8 7 7 7 7 7 6 6 7 7 7 7 9 9 10 12 12 11 10 6 4 3 2 1 2 3 4 6 6 6 6 6 6 7 9 10 10 11 11 10 9 9 9
9 8 8 7 7 7 8 9 9 10 11 13 13 12 12 13 11 9 8 4 2 1 2 3 3 4 6 6 6 7 7 8 9 10 9 10 10 11 10 9 9 10 10
9 9 8 7 8 9 11 12 13 13 14 14 13 12 10 9 8 6 4 2 2 2 4 5 6 7 8 8 8 8 9 9 10 11 9 8 8 7 8 9 9 11 12
10 9 8 8 10 12 13 15 15 14 13 13 12 10 7 5 4 2 3 4 5 5 6 7 8 8 9 9 8 8 8 9 9 9 8 8 7 8 9 11 12 13 13
11 10 9 10 12 14 16 16 15 13 12 11 8 6 4 2 1 2 3 5 6 6 6 7 8 8 8 9 9 7 6 7 7 7 7 7 8 10 11 12 13 15 16
11 11 12 14 16 18 17 15 14 12 10 8 6 3 1 1 3 4 5 5 6 7 6 7 7 7 6 6 6 5 5 5 5 6 7 8 10 11 13 14 16 17 18
14 14 16 18 18 16 15 14 13 11 8 5 3 1 2 3 4 5 6 7 7 7 7 7 7 7 7 6 5 5 6 6 7 8 10 11 12 13 14 16 16 17 18
17 18 19 20 19 17 16 14 11 8 6 4 3 3 4 4 5 6 7 8 9 9 8 7 7 6 6 6 6 6 7 8 9 10 11 13 14 14 14 15 16 16 18
19 20 21 20 18 17 15 12 9 8 6 4 4 5 6 5 6 7 8 9 8 8 7 8 7 7 7 7 7 8 9 10 12 13 14 14 14 14 14 14 14 14 16
21 23 22 21 19 17 14 12 10 8 7 7 7 7 6 6 6 8 9 8 9 9 8 8 8 8 8 8 8 9 11 13 13 13 13 14 14 14 14 12 13 15 18
23 23 22 20 19 17 14 13 11 11 10 9 9 8 6 6 6 7 7 8 8 9 9 9 9 9 9 9 10 11 13 13 13 13 14 14 14 14 14 14 15 18 19
22 21 20 19 17 16 15 14 13 12 11 11 10 8 7 7 7 7 8 8 9 9 9 9 10 10 10 11 12 13 14 14 14 15 14 14 14 16 16 16 17 20 21
24 23 21 20 19 17 16 16 16 15 14 12 12 10 9 9 9 9 9 10 10 10 11 10 10 11 12 13 14 16 16 16 16 16 15 15 14 17 18 18 20 20 20
24 23 22 22 21 21 20 19 19 17 16 15 14 12 12 11 10 11 11 11 11 12 12 12 13 13 14 15 17 18 19 18 18 18 17 16 17 18 19 20 21 22 22
25 24 24 24 24 23 21 21 19 18 18 16 14 14 13 13 12 12 12 12 13 13 14 15 15 15 16 18 20 20 21 21 20 20 19 19 19 20 20 21 22 22 23
27 26 27 26 25 25 24 22 21 21 20 18 16 16 16 16 14 14 14 14 14 15 16 18 17 16 17 19 20 22 23 23 22 21 21 22 21 22 22 22 22 24 25
28 28 29 29 28 26 26 24 23 22 21 19 18 17 17 17 16 15 15 15 17 16 17 19 19 18 18 20 21 22 23 23 22 23 24 24 24 24 23 23 24 26 27
31 32 32 32 31 30 29 27 25 23 22 21 20 18 17 17 17 17 17 18 18 17 18 19 19 19 19 19 19 20 22 23 23 23 23 24 25 24 24 25 26 27 27
32 34 36 36 35 34 31 29 27 25 24 21 20 19 18 18 18 18 18 19 19 19 19 20 19 19 19 19 19 20 21 22 23 23 23 24 25 26 26 27 28 29 29
33 35 38 39 39 39 38 33 29 26 24 21 17 20 19 19 19 19 19 20 20 20 20 20 20 20 20 21 21 21 22 22 22 22 23 24 26 27 28 29 30 31 32

GFSGL_850_spd_081.txt.gz
Wind_Speed
9 9 10 11 12 13 14 15 15 15 15 16 18 20 21 22 22 22 22 22 20 18 17 16 16 17 14 14 14 16 18 19 18 19 19 17 16 13 16 19 21 22 22
7 8 9 10 11 12 13 13 14 15 15 16 16 16 16 16 16 16 16 15 14 14 13 11 12 11 11 12 13 13 14 13 14 14 14 14 12 12 13 14 16 16 15
7 8 9 10 11 11 11 11 11 11 12 13 14 14 13 13 13 13 13 13 11 8 7 8 8 7 8 10 9 8 8 8 8 9 10 9 9 10 11 12 13 12 12
8 9 9 10 9 10 10 10 10 9 10 10 11 12 11 11 10 10 9 8 6 5 7 7 6 5 4 3 3 4 6 7 7 7 7 7 8 9 9 9 9 11 13
8 8 8 8 8 9 9 10 10 10 10 11 10 9 8 8 7 6 6 5 5 5 4 3 2 2 2 2 3 5 6 7 8 8 7 7 7 7 8 10 12 12 13
9 8 7 7 8 9 9 9 8 8 7 7 6 6 6 6 7 6 6 6 6 5 3 1 0 1 2 3 5 6 7 7 8 8 8 7 8 9 10 11 11 13 12
9 8 8 8 9 8 8 8 8 8 7 7 7 8 9 10 10 9 9 7 5 4 2 1 2 4 5 6 6 6 7 8 7 7 8 9 10 11 12 13 13 12 10
10 9 9 9 8 8 8 8 8 8 8 10 11 11 11 12 11 9 7 5 3 2 2 3 4 5 7 7 8 8 9 9 10 10 9 9 10 11 11 12 10 10 10
11 9 9 9 9 9 9 10 10 11 12 13 13 12 10 10 9 7 4 2 2 2 4 5 6 8 9 8 9 9 9 9 10 11 10 9 9 9 7 9 8 11 12
12 9 9 9 9 10 11 12 13 13 13 13 13 11 8 6 4 3 1 2 3 4 5 6 7 8 9 9 9 8 8 9 9 9 9 8 7 7 8 9 11 12 14
12 10 10 9 9 11 13 14 15 14 13 12 10 8 5 3 1 1 2 3 4 4 5 6 8 8 8 8 8 7 7 6 7 7 7 7 7 9 10 11 13 15 17
12 11 11 11 12 15 16 17 16 14 12 10 8 5 2 1 1 2 4 4 5 5 5 6 7 7 7 8 7 7 7 6 6 6 6 7 9 11 13 14 16 18 19
13 12 13 13 15 17 18 17 16 14 11 8 6 4 2 2 2 4 6 6 5 5 6 6 7 6 7 7 7 7 6 7 7 8 9 11 12 14 15 16 17 18 20
15 15 15 16 19 19 18 17 14 12 10 8 5 4 3 4 4 5 6 7 7 7 7 7 8 7 7 7 7 8 8 9 10 11 12 13 14 15 15 16 17 17 19
16 17 18 20 21 19 17 15 13 11 9 7 6 5 5 5 6 7 6 7 7 8 7 8 8 8 8 9 9 9 10 11 13 14 15 15 15 15 15 14 15 16 17
19 20 21 23 21 20 18 17 15 13 11 9 8 7 7 7 8 7 7 7 7 8 8 9 10 10 10 11 11 11 12 14 14 15 15 15 15 15 15 12 14 16 18
21 21 22 23 22 21 19 17 15 13 11 10 10 9 8 8 8 7 7 8 9 9 10 10 11 11 12 12 13 13 14 15 16 16 16 15 15 16 15 15 14 17 19
22 20 23 23 22 20 19 16 16 15 13 12 11 11 10 10 9 8 9 10 10 11 11 11 12 13 13 14 14 16 17 17 17 18 17 16 16 17 17 16 16 19 21
21 24 24 23 21 19 18 18 18 17 16 14 14 13 12 12 11 11 11 11 12 12 13 13 14 15 16 16 16 18 19 20 20 20 19 18 18 19 19 18 19 20 21
23 22 23 23 23 23 22 22 21 20 19 18 17 14 15 15 13 12 13 13 13 13 15 16 16 17 17 17 19 20 21 22 22 22 22 21 20 19 21 21 22 23 23
25 26 26 25 25 25 24 24 22 21 21 20 18 16 17 18 15 15 15 15 15 16 16 17 17 18 18 20 21 22 23 24 23 23 23 22 21 22 22 23 24 23 24
24 26 28 28 27 27 27 26 25 24 23 22 20 19 19 20 18 17 17 17 17 18 17 19 19 18 19 21 22 23 23 24 24 23 24 24 24 24 24 24 24 24 24
26 29 30 31 30 28 29 29 28 27 26 24 22 22 22 21 19 18 18 17 19 19 18 20 20 20 20 21 22 23 23 23 22 23 24 25 26 26 25 25 25 26 25
27 30 33 33 33 32 32 32 31 29 28 26 25 24 23 22 21 19 18 19 20 20 20 20 20 21 22 22 22 22 22 22 23 23 24 25 26 26 26 26 27 27 27
28 30 33 36 37 37 37 36 34 32 29 29 27 26 24 22 21 19 19 19 21 22 20 20 21 21 22 22 23 23 23 23 24 24 25 26 27 26 27 27 27 28 28
28 31 33 34 37 39 40 39 38 36 37 34 29 27 25 23 19 20 19 22 24 23 21 21 21 21 22 23 23 24 23 24 25 24 24 26 27 28 28 28 28 29 31

GFSGL_850_spd_084.txt.gz
Wind_Speed
9 9 10 10 11 12 13 13 14 14 14 14 14 15 16 16 17 20 20 22 24 23 20 19 19 19 18 16 15 14 13 13 15 16 17 15 13 11 11 14 15 15 17
7 8 9 10 11 13 13 13 14 15 15 16 16 17 18 18 19 21 21 21 20 18 16 15 15 14 12 9 9 11 13 12 13 14 13 11 9 9 10 12 14 15 13
6 7 9 10 11 12 12 12 13 13 14 14 15 15 15 15 15 15 15 15 14 13 12 10 10 8 7 7 8 7 7 8 9 9 9 9 8 8 8 10 11 13 12
6 7 8 10 11 11 11 11 11 10 10 10 10 11 11 11 12 12 12 11 10 9 7 7 4 3 5 5 4 4 5 6 6 6 7 7 7 7 9 9 9 10 11
7 7 8 9 9 9 10 10 10 11 11 11 10 11 11 11 10 10 10 9 8 7 7 5 4 5 6 5 3 4 5 6 7 6 6 6 7 7 8 8 9 10 11
8 8 8 9 9 9 10 10 10 9 10 10 10 10 10 10 10 8 7 8 8 7 5 4 4 3 3 2 2 4 5 6 7 7 7 7 7 8 9 10 11 12 11
10 9 10 10 11 11 10 10 11 10 10 9 8 8 8 8 9 9 10 8 7 6 4 3 2 2 2 3 4 5 6 7 7 7 7 8 9 10 10 11 11 12 10
12 11 11 11 11 10 9 9 9 10 9 9 9 10 10 11 11 10 9 7 5 4 2 1 1 3 3 4 6 7 8 8 8 8 8 8 9 9 10 11 10 9 8
13 13 12 11 11 10 10 10 10 10 10 12 12 12 11 11 10 7 6 4 3 1 1 2 3 4 6 5 7 7 7 7 8 9 9 8 7 8 9 7 5 7 8
13 12 12 11 11 10 10 11 12 12 13 13 14 14 12 9 7 5 3 2 1 2 2 3 4 5 6 6 6 6 6 6 6 7 7 7 6 6 6 7 8 9 11
14 13 13 12 10 10 11 13 15 15 15 15 14 12 9 7 5 3 2 1 2 2 3 3 5 6 6 6 5 5 5 4 5 5 5 5 5 6 8 9 11 12 14
14 14 14 12 12 12 14 16 17 17 16 15 12 9 7 5 3 2 0 1 2 2 3 4 5 6 5 5 5 6 5 4 5 5 5 5 7 9 11 13 14 16 17
15 14 13 13 12 13 16 18 20 18 16 13 10 8 6 4 3 2 2 2 2 3 4 4 4 5 5 5 6 5 5 6 6 6 7 9 10 12 13 15 16 16 18
16 15 14 14 14 16 18 19 17 17 15 12 9 7 6 5 4 4 4 4 5 4 4 4 5 5 5 6 6 7 7 8 8 8 10 12 14 14 14 14 15 15 16
17 16 16 15 16 18 20 18 17 14 12 10 9 8 7 6 6 5 5 5 6 5 5 6 6 7 7 7 8 8 9 10 11 12 13 14 14 14 14 13 13 14 16
19 19 18 18 18 21 20 20 18 17 15 12 11 9 8 7 6 6 6 6 7 6 5 6 8 9 9 10 10 11 11 12 13 14 16 15 15 15 15 14 13 14 16
21 21 20 21 21 23 22 21 18 17 15 13 11 10 9 8 8 7 7 8 8 7 7 8 9 10 10 11 12 13 13 14 15 16 17 16 16 16 16 15 14 15 17
20 20 20 21 23 23 21 19 18 18 15 14 13 12 11 10 10 9 10 10 9 9 9 10 11 12 12 13 14 14 14 15 17 18 18 19 18 18 19 17 16 18 19
18 21 21 21 22 23 21 20 20 19 19 17 16 15 13 12 12 12 12 12 11 11 11 11 12 13 14 15 15 16 17 17 18 19 20 20 20 21 21 20 20 19 21
16 19 20 22 23 25 24 24 23 23 21 20 20 17 15 16 15 14 14 14 13 12 13 14 14 15 16 17 18 18 19 19 19 20 21 22 21 22 22 22 21 22 22
16 19 23 24 26 27 26 26 25 24 23 23 21 18 18 20 18 17 17 17 16 15 15 16 15 16 17 18 19 20 20 20 20 21 21 22 22 23 23 23 23 24 25
18 20 24 27 27 28 27 27 27 27 27 26 23 21 21 23 21 19 18 18 18 17 17 17 17 17 17 19 19 21 21 21 20 21 22 22 23 24 24 25 24 25 25
21 22 26 28 28 29 29 30 29 29 29 28 25 24 24 25 24 21 20 18 18 19 17 18 18 17 19 20 20 21 21 20 20 22 22 22 23 24 25 26 26 26 26
22 24 25 29 32 32 32 33 32 31 31 31 29 28 27 25 25 23 21 20 19 20 18 20 18 19 21 21 21 22 21 21 22 22 23 24 25 25 26 27 26 26 27
24 26 27 30 33 34 35 37 36 36 35 34 32 31 29 26 26 25 23 22 21 18 18 19 23 23 22 21 21 22 22 22 23 23 24 25 25 26 27 26 25 25 26
26 27 28 29 31 33 36 36 37 38 39 37 36 33 32 33 28 26 24 24 22 23 27 25 25 23 22 22 22 22 24 23 24 24 25 26 26 26 26 26 26 26 27

GFSGL_850_spd_087.txt.gz
Wind_Speed
13 12 11 12 12 13 14 15 15 15 14 15 14 13 11 12 14 16 18 17 18 20 23 26 21 19 18 17 16 15 14 14 11 12 11 11 12 13 12 12 11 10 12
11 11 11 11 11 12 13 14 14 15 16 16 16 16 16 16 17 17 18 21 22 24 23 21 17 16 15 15 14 14 14 12 11 11 10 10 10 10 10 9 9 10 10
10 9 9 9 10 11 13 13 13 14 14 15 15 15 15 16 16 18 18 18 18 17 17 16 14 13 12 11 11 8 6 6 7 7 7 7 7 6 6 7 9 11 12
8 7 7 8 9 11 12 12 12 12 12 12 12 12 12 13 13 14 14 14 15 15 14 12 10 8 7 6 4 4 4 5 5 5 6 6 6 6 7 8 9 9 11
8 7 7 7 8 9 11 11 11 11 11 11 11 11 11 12 12 12 12 12 11 10 9 8 7 7 6 5 4 5 5 6 6 5 4 5 6 7 7 8 9 9 11
10 8 8 8 9 9 9 10 11 11 11 11 12 11 12 12 12 11 10 9 9 9 8 7 6 5 3 4 5 5 5 5 5 4 5 6 6 7 8 9 10 10 10
12 10 10 10 10 10 11 11 12 12 11 11 9 9 10 9 9 9 9 9 9 9 8 7 5 4 4 5 5 4 4 5 5 5 5 6 7 8 9 9 9 9 9
13 13 12 11 11 11 10 9 9 10 11 11 10 9 9 9 11 11 11 10 9 8 7 5 5 4 5 4 4 5 5 5 5 5 5 5 6 6 7 7 8 7 6
14 13 13 12 11 11 10 9 9 10 11 11 10 10 10 12 12 11 10 9 8 7 5 5 5 4 4 4 3 4 4 5 4 4 4 4 5 5 4 4 4 5 6
14 14 14 13 12 11 9 10 10 11 11 12 12 13 13 12 11 9 9 8 6 5 5 4 3 3 3 2 2 2 2 3 2 3 3 3 3 4 4 4 5 7 9
15 15 15 13 13 11 9 11 13 13 13 14 15 15 13 11 9 8 6 6 6 5 5 4 3 2 2 2 2 1 1 2 1 2 2 2 3 4 5 6 8 10 11
15 15 14 13 13 13 12 13 15 16 16 16 16 14 12 10 9 8 6 6 5 5 5 4 3 2 2 1 1 2 2 2 2 2 3 3 5 7 8 10 11 12 13
16 15 14 14 14 13 14 16 18 18 18 18 16 14 12 10 9 7 5 5 4 5 4 3 2 2 3 2 2 2 2 3 3 4 5 6 7 9 11 12 12 13 14
15 15 15 15 14 14 15 16 19 20 20 19 17 14 12 11 10 8 6 5 4 4 3 3 3 3 3 3 3 3 4 5 5 6 7 8 10 12 11 11 12 13 13
17 16 16 15 15 15 16 17 19 18 17 15 13 13 12 10 9 9 7 6 5 5 4 5 5 4 4 4 4 5 6 6 7 8 8 10 12 12 11 11 11 13 13
18 18 18 16 17 16 17 20 22 20 19 18 17 14 13 12 11 9 8 8 7 6 7 7 6 5 5 5 5 6 7 8 9 9 10 12 13 13 13 12 12 13 14
18 19 18 18 18 18 20 23 23 23 22 20 17 15 13 12 12 10 10 9 8 8 8 8 7 6 6 6 7 7 8 10 10 11 12 13 14 15 15 14 14 14 15
17 20 20 20 19 19 22 24 23 23 21 18 17 15 15 14 13 12 11 11 10 10 9 10 9 8 8 8 9 9 10 11 12 13 14 14 15 16 16 17 17 17 18
14 16 18 20 19 20 22 25 24 24 23 20 19 19 18 16 15 15 15 14 12 12 12 12 11 11 10 10 10 11 11 12 13 14 15 15 16 17 17 18 19 19 19
13 13 16 19 20 23 24 27 27 26 25 23 23 20 18 19 20 18 17 16 15 14 14 14 13 13 12 12 13 13 13 14 14 15 16 17 17 19 19 19 20 20 19
14 13 14 18 22 24 25 28 28 27 26 26 24 21 21 23 21 21 20 20 19 17 16 16 15 15 14 14 14 14 15 15 15 16 17 17 18 20 19 20 21 20 21
16 15 17 20 21 24 26 28 29 29 28 28 26 24 24 27 26 24 23 22 21 19 19 19 18 16 16 15 16 15 16 16 16 17 18 18 19 20 20 21 21 21 21
17 18 19 21 23 24 27 28 30 31 30 30 28 27 27 29 28 27 25 23 22 22 21 21 19 17 17 15 17 16 17 17 17 19 19 19 20 20 21 22 22 23 23
20 21 22 22 24 27 29 31 32 32 32 32 31 31 30 30 31 29 26 24 24 24 23 22 21 18 16 16 18 19 19 18 19 19 20 20 21 21 23 23 24 24 23
21 23 25 26 26 28 29 31 33 35 35 35 35 34 32 32 32 31 28 26 25 26 25 23 22 18 18 19 22 21 20 20 21 20 20 21 22 23 23 24 23 22 22
22 23 25 26 28 29 30 31 32 33 34 34 35 35 35 35 37 35 32 31 29 28 26 27 24 21 27 22 22 21 20 20 22 21 21 22 23 23 24 23 23 23 22

GFSGL_850_spd_090.txt.gz
Wind_Speed
18 17 16 16 16 17 17 17 16 16 16 16 16 16 16 15 13 14 15 16 18 20 22 22 21 23 24 20 19 17 16 15 15 16 13 13 11 11 12 13 13 12 12
14 15 15 14 14 15 16 17 17 18 18 18 18 18 17 16 15 16 17 17 20 20 22 22 25 23 20 17 15 14 14 14 13 13 12 11 11 12 12 12 11 11 11
13 12 13 12 12 12 14 15 16 17 18 19 18 18 18 18 19 20 22 21 22 23 23 23 20 19 17 14 12 11 10 9 9 10 10 10 9 9 7 7 8 10 12
14 12 11 9 11 12 13 14 14 15 16 16 17 17 17 17 18 19 20 21 21 20 20 19 17 15 11 9 8 7 6 7 6 7 8 8 8 8 7 8 9 10 11
12 11 10 10 10 11 12 13 14 14 14 14 14 14 14 14 16 16 16 17 18 17 16 14 12 10 9 8 8 7 7 7 7 8 8 8 7 7 7 8 8 9 12
13 12 11 11 10 11 12 12 14 14 15 15 14 14 14 14 15 15 15 14 13 12 12 11 11 9 9 10 10 8 8 7 8 8 7 7 8 7 8 9 9 9 5
14 14 13 12 12 12 13 14 15 16 15 15 14 14 14 14 14 15 14 12 11 12 12 10 10 9 8 8 7 6 6 7 8 7 7 8 7 7 8 7 8 8 8
15 15 14 14 14 14 14 15 16 14 14 15 14 12 12 11 12 13 12 12 12 12 12 11 9 8 7 7 6 6 6 7 6 6 6 6 6 5 5 5 5 5 4
17 15 15 15 15 15 15 14 14 14 13 13 12 11 11 11 12 13 12 12 12 12 10 9 8 7 7 7 7 6 6 5 4 4 4 4 4 3 4 3 2 2 3
17 16 16 16 16 16 15 14 12 13 12 11 11 11 12 12 13 12 12 11 11 10 10 9 9 8 7 7 6 5 5 4 4 3 3 3 3 3 3 3 4 4 5
17 17 18 18 17 17 15 14 12 12 12 12 13 14 15 14 13 11 11 11 11 10 10 9 8 7 6 6 5 5 5 5 4 4 4 4 4 4 5 5 6 8 9
18 18 18 18 17 16 16 15 14 14 15 15 16 16 16 14 13 11 10 11 11 11 10 9 8 6 6 6 5 5 5 5 4 5 5 6 6 7 7 9 10 11 12
18 19 19 18 17 16 16 16 17 17 18 17 19 18 16 14 13 11 10 10 10 9 9 9 8 7 5 5 5 5 6 6 6 7 7 8 8 9 10 11 11 12 11
18 19 18 18 17 17 16 17 18 19 20 21 21 19 17 15 14 12 11 9 9 9 9 8 8 7 7 6 6 6 7 7 7 8 9 10 10 11 11 11 11 12 12
18 18 19 18 18 17 17 17 17 19 20 21 20 19 17 15 12 12 12 11 10 10 9 9 9 8 8 8 8 8 8 9 9 10 10 11 11 12 12 12 12 13 14
17 19 19 18 19 18 18 17 18 19 20 21 20 19 17 15 15 13 13 13 12 11 11 11 10 10 10 10 10 10 10 10 10 11 12 12 13 13 13 13 14 14 15
16 18 19 20 21 20 19 19 20 22 24 24 23 21 18 16 16 14 14 13 13 14 14 13 13 12 12 12 12 11 11 11 12 12 13 13 14 15 15 15 15 16 17
15 16 19 21 21 21 20 20 20 24 26 26 24 21 19 18 17 16 16 16 18 18 16 15 14 14 14 14 14 13 12 13 13 13 14 15 15 16 17 16 16 16 17
16 16 16 17 20 20 20 21 22 25 26 25 23 23 22 20 19 19 19 21 20 19 18 17 16 16 16 16 15 15 14 14 14 15 15 16 16 17 18 18 18 19 19
16 15 16 16 16 20 22 23 24 27 28 29 27 25 23 22 25 24 24 23 22 21 20 20 19 18 18 17 17 17 17 15 15 16 16 17 17 19 19 19 19 19 19
15 15 16 16 17 20 23 24 25 28 31 31 29 26 25 26 25 25 25 25 24 23 22 22 21 20 20 20 20 19 19 17 16 17 17 17 19 19 19 20 20 20 20
15 16 16 19 17 19 22 24 26 27 31 32 30 29 27 29 30 29 29 28 26 25 24 24 24 24 23 22 21 20 20 18 17 18 18 19 20 20 20 20 20 20 21
17 17 18 19 21 20 22 25 27 29 30 32 32 31 30 32 32 32 32 29 29 28 26 27 26 26 25 23 23 22 20 19 17 20 19 20 21 20 20 21 20 21 22
18 20 21 22 22 23 25 26 28 29 30 31 33 34 34 34 34 34 34 32 31 29 29 29 29 27 25 24 24 22 20 19 22 21 20 21 22 21 21 22 22 22 23
19 20 22 23 24 25 26 27 28 28 30 32 34 35 36 36 36 36 35 35 34 32 31 30 30 27 26 26 26 23 21 26 23 21 21 22 23 22 22 22 23 23 23
18 20 21 23 24 25 26 27 28 29 29 29 30 32 34 35 36 37 37 37 36 35 34 34 34 33 30 30 29 25 27 22 23 22 22 23 23 23 23 23 23 23 22

GFSGL_850_spd_093.txt.gz
Wind_Speed
25 18 17 17 17 17 18 18 18 18 18 18 17 17 18 18 17 17 17 18 19 21 22 27 28 20 22 22 22 23 20 20 20 20 21 17 16 13 13 10 11 11 13
20 17 16 14 14 15 16 17 17 18 19 19 19 19 19 19 18 16 16 14 16 17 20 22 24 21 23 23 21 17 15 15 17 18 17 14 13 11 11 11 10 11 12
14 14 14 13 12 14 14 15 15 17 18 19 19 20 20 19 19 18 17 18 19 18 19 21 22 23 23 19 16 14 13 14 15 14 13 12 12 10 8 7 8 9 10
14 14 13 12 12 12 12 13 14 15 17 18 18 18 18 18 19 18 19 21 22 21 21 20 21 20 18 15 13 12 11 11 10 8 9 9 9 8 7 8 8 10 11
13 13 12 11 11 11 11 11 12 14 15 16 16 17 16 17 17 17 18 19 19 19 19 19 19 17 15 13 12 10 8 9 9 9 8 9 9 8 8 7 9 10 12
13 13 12 11 11 11 11 12 12 13 15 15 16 17 16 16 15 15 16 16 17 18 17 17 15 14 13 12 12 10 9 10 10 9 9 8 10 10 8 9 9 9 7
13 13 12 12 12 12 13 13 14 15 17 18 17 16 16 16 15 16 17 16 15 15 13 12 12 12 12 11 10 10 10 11 10 10 10 11 10 10 8 8 8 8 7
13 13 13 13 14 14 15 15 15 16 16 17 16 16 15 14 14 13 14 15 15 14 13 13 12 11 11 11 10 9 9 9 9 10 11 10 10 8 7 7 7 5 4
15 14 14 15 15 16 16 15 16 16 15 14 14 14 12 12 11 11 11 12 12 13 14 13 12 11 11 11 9 9 9 8 8 9 8 8 7 7 6 6 5 4 3
16 16 16 16 17 17 17 17 17 15 13 12 13 12 11 11 11 11 12 13 13 14 14 12 12 11 10 9 9 9 8 7 7 7 6 5 5 5 5 5 4 4 5
16 17 17 17 17 18 17 17 17 15 13 12 13 12 11 12 12 13 13 13 13 14 13 12 12 10 10 9 9 9 9 7 7 6 5 5 5 4 5 6 6 7 8
17 17 18 18 18 18 17 16 15 15 15 13 13 13 14 14 14 14 13 13 13 13 13 12 12 10 9 9 10 9 9 8 7 7 6 6 6 6 7 7 8 10 11
16 17 18 18 19 18 17 16 16 16 16 16 15 15 16 15 15 14 14 14 14 14 14 13 11 10 10 10 10 9 9 9 8 7 7 7 8 8 9 10 11 12 12
15 17 19 19 18 17 17 17 17 18 18 18 18 18 18 17 16 14 14 14 13 13 13 12 11 11 11 11 10 10 10 10 9 8 9 9 9 9 11 12 12 13 13
15 17 19 18 18 18 18 17 17 18 18 19 20 19 19 18 15 14 14 13 12 11 12 12 11 12 12 12 11 11 11 10 10 10 10 11 11 11 11 12 13 13 14
15 17 18 18 19 19 19 19 18 18 17 19 20 21 19 17 16 15 15 15 15 14 14 13 14 14 14 13 13 13 12 12 11 12 12 12 12 12 13 13 14 15 16
15 16 16 16 19 20 20 20 20 18 19 21 23 22 21 19 18 17 16 15 16 17 17 16 16 16 15 15 14 14 13 13 13 13 13 13 13 14 14 14 15 16 17
15 16 17 17 18 20 21 21 20 19 20 21 24 25 24 22 20 19 18 18 20 21 20 19 18 17 16 16 15 15 15 16 15 15 14 14 15 15 16 16 16 17 17
16 17 17 17 18 18 18 20 20 20 20 21 22 24 24 23 22 21 21 24 23 22 21 20 19 18 18 17 17 17 17 18 17 16 16 16 16 16 18 17 17 18 18
14 16 17 18 17 17 17 18 20 21 22 22 24 24 23 24 26 26 27 26 25 25 23 22 21 21 20 20 19 19 19 19 19 19 18 18 17 18 19 18 19 19 19
16 15 16 17 18 17 17 18 20 21 23 24 26 26 26 27 28 28 28 28 28 26 25 23 23 23 22 23 22 22 21 21 20 20 20 19 18 20 19 20 21 21 21
16 16 16 18 19 18 17 18 19 21 23 25 26 29 29 31 31 32 31 31 29 28 28 26 26 26 26 25 25 25 24 23 22 21 20 20 21 21 21 21 22 22 22
16 16 17 17 19 20 20 21 21 22 23 25 26 27 30 33 34 34 34 33 32 31 30 30 30 29 28 28 27 27 26 24 22 20 20 21 22 22 22 22 22 23 23
15 17 18 19 20 22 23 24 24 24 24 25 26 28 30 32 34 36 35 35 35 33 32 32 32 31 30 30 29 28 26 25 24 22 21 22 25 25 24 23 23 23 24
17 19 20 21 23 24 24 25 25 25 26 26 26 27 28 30 33 34 35 36 37 36 35 34 34 33 33 33 30 27 25 26 25 25 24 26 25 25 25 24 24 24 25
15 16 18 20 22 23 24 25 25 26 27 27 27 27 27 28 29 31 32 34 36 37 38 40 39 36 35 33 33 31 31 31 30 29 27 24 26 26 26 24 24 25 25

GFSGL_850_spd_096.txt.gz
Wind_Speed
18 12 9 12 16 18 18 18 18 18 19 19 17 17 17 16 16 16 17 19 23 22 21 22 24 24 24 20 22 21 20 22 21 21 21 20 19 17 13 9 11 12 11
21 22 21 16 17 17 17 16 16 16 17 17 18 19 19 18 19 18 17 15 14 17 20 22 24 27 22 20 22 21 23 21 19 19 20 18 17 14 11 9 12 13 10
22 23 24 23 20 18 16 14 15 16 16 17 19 19 20 19 19 19 18 17 16 16 18 19 20 23 20 20 24 20 18 16 16 16 17 16 13 13 10 9 10 8 7
16 16 17 17 15 14 13 12 13 13 14 16 17 17 17 17 19 19 20 20 19 19 19 20 20 22 21 22 20 17 15 15 15 14 13 12 12 11 10 9 10 8 7
15 15 15 14 12 11 10 10 10 11 12 14 15 16 17 17 16 17 19 20 20 20 20 21 21 21 20 19 16 15 14 13 13 12 11 10 10 11 11 10 11 10 9
14 13 12 11 10 10 9 9 9 10 12 14 15 16 17 17 17 16 18 18 18 19 18 18 20 19 18 17 14 13 12 13 13 12 11 11 11 11 11 11 11 11 10
13 12 11 10 10 10 10 11 11 11 12 13 15 17 18 18 17 18 18 18 18 17 17 17 15 13 13 12 13 14 14 15 14 13 12 12 11 11 10 11 10 10 12
11 11 11 11 11 12 12 12 13 14 14 14 15 17 18 17 17 17 16 17 17 16 15 14 13 13 12 13 12 13 13 12 13 12 12 11 10 10 10 10 10 9 8
13 12 12 11 12 12 13 14 14 15 16 17 16 14 16 15 15 13 12 13 14 14 13 13 13 13 13 13 12 12 12 12 12 11 10 11 10 10 10 9 9 8 8
13 13 13 13 13 14 15 15 15 16 17 17 15 12 13 14 12 10 11 13 14 14 15 13 13 12 12 12 12 13 11 11 10 10 9 9 9 9 8 8 7 8 7
12 14 15 14 15 15 16 16 17 17 17 16 14 12 11 13 12 11 12 12 12 13 13 13 14 11 11 11 12 12 11 10 10 9 9 9 9 9 7 7 7 7 7
14 15 15 15 15 16 16 17 18 17 16 15 15 14 12 13 12 13 13 13 13 13 13 13 12 10 11 11 11 11 10 9 10 10 10 9 8 8 7 7 8 9 9
14 14 15 15 16 17 17 16 16 16 16 15 15 15 14 14 14 14 14 14 14 15 14 13 11 11 10 10 10 10 11 11 11 10 9 8 8 7 8 9 9 10 11
11 12 14 15 17 17 16 16 16 16 16 16 17 17 17 16 15 15 14 15 15 15 14 13 12 11 11 11 11 11 11 12 11 10 10 9 8 9 9 10 11 12 11
11 13 14 15 17 16 16 16 16 17 16 16 17 17 18 17 13 14 13 13 12 12 12 12 12 12 12 11 12 12 13 13 12 11 11 9 10 10 11 12 12 13 12
13 14 15 14 16 16 16 17 17 18 18 18 16 17 17 16 14 14 13 13 13 13 13 12 13 13 13 13 13 13 13 13 12 12 12 12 12 12 12 13 13 13 13
14 14 16 16 15 16 16 18 19 17 18 18 17 17 19 17 16 15 14 14 15 16 17 15 15 15 14 14 14 14 13 13 14 14 13 13 14 14 14 14 14 14 15
14 15 16 16 16 16 16 17 18 18 19 19 17 18 20 20 19 17 16 17 19 21 21 18 17 16 15 15 15 14 14 15 16 15 15 15 15 15 16 15 14 16 15
13 14 15 16 17 17 17 17 17 17 19 19 17 17 18 19 21 20 20 23 23 22 21 19 17 17 17 16 15 16 16 17 17 18 17 17 17 17 17 16 15 16 17
14 14 15 15 16 17 17 16 17 17 17 19 19 18 16 20 24 25 26 26 25 24 23 22 20 19 18 18 18 19 19 19 20 20 19 19 19 19 18 17 18 17 17
14 14 14 16 16 16 16 16 15 16 17 18 19 19 18 21 23 25 27 27 27 27 26 23 22 21 20 21 21 22 22 22 22 22 21 21 21 21 19 18 20 19 19
13 13 14 15 16 17 17 17 17 17 17 18 19 19 20 22 26 28 30 30 29 29 27 26 26 24 24 23 23 24 24 24 23 23 23 22 23 22 21 21 22 20 20
13 13 14 14 16 17 18 18 18 19 19 19 19 20 20 23 25 27 30 33 32 31 30 29 29 29 27 27 26 26 27 26 24 23 24 25 24 24 22 21 21 22 22
14 14 15 16 17 18 19 20 21 22 22 23 22 22 22 23 24 26 28 29 33 33 34 33 33 32 31 30 29 29 28 27 25 26 26 26 26 25 23 21 23 23 23
15 15 15 16 18 19 20 21 22 22 23 23 23 24 24 24 25 25 26 28 31 32 34 36 36 35 34 33 32 31 30 28 28 28 27 26 28 27 24 25 24 24 25
16 16 16 16 17 17 18 20 21 21 22 23 24 24 24 25 25 25 26 26 27 30 32 34 36 36 36 37 36 34 31 29 31 30 27 30 30 29 30 26 23 26 26

GFSGL_850_spd_099.txt.gz
Wind_Speed
23 22 23 22 20 18 16 17 19 22 24 23 23 23 22 22 22 22 23 22 22 21 21 22 23 25 25 21 19 24 21 22 24 23 23 21 19 17 19 14 12 11 11
23 21 21 18 13 12 13 16 16 16 17 17 18 18 19 19 20 20 20 21 20 19 17 18 19 24 20 21 18 21 21 21 23 24 22 20 19 17 15 12 11 11 10
24 23 21 19 18 19 20 19 19 19 19 18 18 17 18 18 19 20 20 20 19 18 17 16 19 20 21 20 22 21 21 23 22 21 20 20 18 16 14 13 11 9 9
25 24 21 20 19 18 18 18 18 16 15 14 14 15 17 17 17 18 19 20 19 17 17 17 20 20 20 21 19 21 22 21 20 19 18 17 17 16 15 13 12 10 10
19 19 19 18 16 15 15 14 12 12 12 12 12 13 14 15 16 18 18 18 20 19 19 20 21 22 22 24 24 23 20 20 19 18 18 17 16 16 15 13 13 11 10
17 17 16 14 13 12 12 12 12 12 11 11 11 12 14 15 17 19 19 19 19 19 20 20 21 22 23 23 23 21 19 18 17 17 15 14 14 14 14 13 14 12 9
15 14 13 12 12 12 12 12 11 11 12 13 14 15 15 17 20 20 21 19 19 19 19 18 19 19 20 19 19 19 19 17 16 14 13 13 14 13 12 13 13 12 10
13 13 13 12 11 11 11 12 13 13 14 14 16 17 17 17 18 20 20 19 18 19 18 18 18 16 15 15 14 15 16 16 16 15 14 12 11 12 11 11 12 12 9
13 13 12 11 12 12 11 12 13 14 15 17 17 18 19 17 16 18 16 15 15 15 15 15 14 14 16 15 14 14 15 16 15 14 14 13 11 12 11 10 10 11 9
12 11 11 12 12 11 12 13 14 15 16 17 18 18 17 16 14 16 13 11 12 13 14 14 15 15 15 14 14 14 15 14 13 12 14 10 11 11 11 9 8 8 7
12 12 13 13 13 13 13 15 16 17 17 17 17 15 15 14 13 13 12 11 12 13 14 14 14 13 13 13 14 14 13 13 13 12 11 10 10 10 9 9 9 8 8
12 13 14 13 13 14 15 16 17 18 18 17 15 15 14 14 12 10 11 11 12 12 12 12 13 12 13 14 13 13 14 13 14 13 12 12 11 10 9 9 9 8 9
13 13 14 14 13 14 16 17 18 17 16 15 15 15 14 15 15 12 13 14 14 12 12 13 13 13 12 13 13 12 13 13 14 14 13 12 10 10 10 9 9 9 10
11 12 13 13 13 14 15 17 17 16 16 15 15 15 15 17 16 16 13 13 14 14 14 14 14 14 13 13 13 14 14 14 13 13 13 12 11 11 10 10 9 9 10
10 11 13 11 12 13 14 15 16 16 16 16 15 16 17 18 16 14 14 13 13 13 13 14 15 15 15 14 14 15 14 15 16 15 14 11 11 11 10 10 9 9 10
11 12 13 13 13 14 14 14 15 16 16 16 16 18 17 17 16 14 13 13 13 13 15 15 15 15 15 15 15 15 15 16 16 15 14 12 12 11 11 11 10 11 11
13 14 16 15 15 14 14 14 14 15 17 18 17 17 16 15 17 16 15 14 14 16 19 17 16 16 15 16 16 16 16 15 15 16 15 14 13 13 13 12 12 11 10
12 14 16 16 15 15 16 15 15 16 17 17 17 17 16 16 17 16 16 16 18 21 22 17 17 17 17 17 17 17 16 17 18 17 17 16 15 15 15 14 13 12 12
14 14 15 16 16 16 17 17 16 16 17 16 16 16 16 16 18 18 19 22 24 24 23 21 18 18 18 17 17 18 18 18 18 19 18 18 17 18 17 16 15 15 15
14 14 14 15 14 16 17 17 17 16 16 16 16 15 14 15 19 22 25 27 28 25 24 23 21 19 19 19 19 19 20 20 21 20 19 19 19 19 19 18 18 18 18
11 13 13 13 14 14 16 17 16 16 16 16 15 14 14 16 18 21 24 27 28 28 26 24 22 21 20 21 21 22 23 23 23 21 21 20 20 21 20 21 20 20 20
11 12 11 12 13 14 15 16 16 17 17 17 16 16 14 17 19 21 24 26 28 28 28 27 26 24 23 23 23 24 25 25 24 24 23 22 22 22 22 23 23 23 21
12 12 11 11 13 14 15 15 16 16 17 18 18 19 18 18 20 21 22 24 26 29 30 30 29 28 27 27 26 27 27 27 24 23 24 24 24 24 23 25 26 25 23
13 13 13 13 13 14 15 15 16 18 18 19 20 20 20 20 20 21 22 23 25 26 27 28 31 32 32 31 30 29 29 28 27 27 26 27 27 25 26 28 27 26 23
13 13 13 13 14 14 15 16 17 17 18 18 19 20 20 21 22 23 23 24 24 26 26 27 29 31 32 35 34 33 31 29 30 29 29 29 30 29 29 29 26 28 25
13 13 14 14 14 14 15 16 16 17 18 19 19 20 20 21 22 23 24 25 26 26 26 27 27 27 29 31 33 34 35 33 33 31 31 33 34 34 34 33 30 31 28

GFSGL_850_spd_102.txt.gz
Wind_Speed
22 22 23 24 25 24 23 23 20 18 19 23 24 23 23 24 25 25 25 24 23 23 23 23 24 27 26 26 27 25 25 27 24 22 22 19 20 19 18 18 18 12 12
23 24 26 25 24 21 18 17 17 19 20 17 18 19 19 20 21 22 22 23 23 23 23 23 23 22 22 20 21 26 22 23 26 24 23 22 22 19 17 17 16 11 12
23 24 23 21 20 20 20 20 18 16 17 16 17 17 17 17 19 20 21 22 23 22 23 22 21 19 18 19 20 21 21 22 21 20 22 22 21 19 19 17 14 13 13
23 22 22 22 21 21 19 17 16 17 17 18 18 17 16 16 17 18 19 20 22 21 21 20 17 18 19 19 20 21 23 22 20 22 24 21 19 20 18 16 15 15 13
20 22 22 21 20 19 17 16 16 15 15 15 14 13 14 14 15 16 18 20 20 21 20 20 20 20 22 22 21 21 21 23 24 23 21 19 20 20 20 17 16 14 14
19 20 20 19 17 16 16 14 14 13 13 12 12 14 15 16 16 18 19 22 23 23 21 21 21 22 23 25 25 24 24 23 21 19 19 19 18 18 17 17 16 17 15
15 16 16 15 15 14 13 12 12 12 12 13 14 16 17 18 19 19 20 21 23 24 23 23 21 21 22 23 23 23 23 22 20 16 15 13 15 15 15 16 16 15 15
14 15 14 14 14 13 13 13 13 13 14 14 16 17 19 20 22 23 22 21 21 21 21 21 19 19 20 20 18 15 15 16 16 15 14 13 14 14 15 13 12 14 16
14 14 13 13 13 13 13 12 12 13 14 15 16 18 19 20 22 22 20 19 19 18 18 17 16 16 15 15 14 14 14 15 15 15 15 15 15 14 15 14 15 14 16
13 12 13 13 14 13 13 12 13 14 15 17 18 19 21 21 20 20 19 16 16 15 15 15 14 14 14 14 13 12 12 13 12 12 13 13 13 14 14 13 13 13 14
11 13 14 14 14 13 13 13 14 15 17 18 19 19 19 18 17 17 18 15 13 14 14 14 13 13 14 14 13 13 13 13 13 13 13 13 13 13 13 13 13 13 12
13 14 14 14 14 14 14 14 15 17 19 20 20 18 17 16 16 14 15 15 13 12 13 13 12 13 12 13 12 12 14 14 14 13 13 13 12 12 11 12 12 12 11
14 14 14 14 15 15 15 15 17 18 20 20 19 18 16 15 16 16 16 17 16 14 11 12 12 13 12 13 13 13 15 13 15 15 14 13 11 12 12 12 12 11 12
14 14 14 15 15 15 15 15 16 18 19 19 18 18 16 16 18 18 18 16 16 14 12 13 14 15 15 14 14 15 15 13 13 13 14 14 14 13 13 13 12 12 12
11 12 13 14 14 15 15 15 15 15 17 18 18 18 18 18 17 18 18 18 15 12 14 15 16 17 17 16 16 15 15 15 16 16 16 15 14 15 14 14 13 13 12
11 12 13 14 15 15 15 15 14 13 14 15 18 20 19 19 18 18 18 16 14 13 15 17 17 16 16 16 16 15 16 16 16 16 16 15 15 15 15 15 14 12 11
12 14 16 17 17 16 16 16 16 15 16 15 16 17 19 19 18 17 16 16 15 17 19 20 18 17 15 15 15 16 16 15 14 17 17 17 16 17 19 17 15 14 12
13 14 16 17 18 18 18 17 16 17 17 15 15 16 16 17 18 16 16 18 19 19 20 23 19 17 17 16 16 16 16 17 19 20 20 20 20 20 20 19 18 16 14
14 16 16 17 18 18 18 17 16 17 17 17 16 14 14 17 16 17 16 20 23 22 26 25 19 17 17 17 18 18 18 19 20 21 22 22 22 22 22 21 20 20 19
15 16 15 16 15 16 16 16 16 16 17 17 17 14 11 14 16 18 22 23 24 23 27 23 22 20 19 19 19 20 21 22 24 24 24 24 24 24 25 23 23 23 22
10 10 11 13 14 14 15 15 15 17 17 17 17 14 13 14 15 17 19 21 23 24 26 27 25 23 21 21 21 22 24 24 25 25 25 25 24 26 25 26 25 24 24
10 10 10 11 12 13 14 15 16 17 17 17 17 16 14 16 17 17 18 20 21 23 27 30 28 25 25 25 24 24 25 26 26 27 27 27 26 26 27 27 27 26 25
11 11 12 11 12 13 13 15 15 16 16 17 17 18 18 18 19 20 19 18 19 21 23 26 29 29 28 27 27 28 28 28 27 27 28 28 28 29 28 29 28 27 25
10 10 10 10 12 14 14 15 16 17 18 19 20 20 20 20 20 20 20 20 21 21 22 23 25 27 28 30 31 31 31 29 29 29 29 30 30 30 31 31 30 27 23
11 11 12 12 12 13 13 13 15 17 17 17 18 19 19 19 21 21 23 23 23 24 24 25 25 26 26 27 29 32 33 32 32 32 32 32 33 33 32 33 32 30 27
13 13 14 14 15 15 15 15 15 15 16 16 16 16 17 18 19 21 21 20 22 23 24 25 26 26 26 26 26 27 29 31 33 35 36 37 36 36 35 35 33 33 34

GFSGL_850_spd_105.txt.gz
Wind_Speed
17 19 21 22 21 19 19 18 16 17 17 16 18 19 20 20 20 22 23 23 23 23 23 24 24 24 23 22 22 22 23 23 27 24 19 21 20 20 18 17 17 18 16
16 19 20 21 22 22 20 20 21 20 19 17 17 17 16 17 17 18 20 21 22 23 23 24 24 24 22 19 21 20 24 24 24 24 22 18 21 22 17 16 16 18 14
17 17 20 23 22 22 23 23 21 19 17 16 14 14 16 17 18 18 19 19 20 21 22 22 22 24 21 19 17 16 21 20 21 22 22 23 18 19 18 18 17 16 14
20 20 20 20 20 20 19 19 17 15 15 15 14 15 15 15 15 15 16 16 17 19 21 22 22 20 18 17 19 19 19 21 19 20 21 20 20 19 20 19 18 17 16
18 17 17 17 17 16 15 15 15 16 15 14 13 12 12 13 14 14 15 17 19 20 21 22 22 21 19 19 21 20 18 17 19 19 21 23 23 23 23 21 19 17 16
16 16 16 15 16 16 16 16 15 14 12 11 11 11 12 14 15 16 17 19 21 22 23 24 24 23 21 21 23 24 24 23 24 25 25 24 22 20 20 21 19 20 18
15 17 16 17 16 15 14 12 12 11 11 11 11 13 15 16 18 20 22 22 23 23 23 24 23 22 21 21 22 22 24 24 24 24 21 19 18 17 18 20 20 17 16
15 13 12 12 12 11 11 11 11 10 10 11 13 15 16 18 21 22 24 25 23 21 21 23 22 20 19 19 20 20 19 18 18 17 18 16 15 15 15 14 13 16 17
11 11 10 11 11 10 10 11 10 11 12 13 15 16 18 19 22 25 26 23 21 19 17 19 19 17 17 16 16 15 14 13 13 13 15 15 15 14 15 16 18 19 18
9 9 10 11 11 11 11 11 11 12 13 15 17 18 20 21 23 24 23 21 20 19 16 14 15 16 15 15 14 13 12 12 12 12 14 14 14 15 16 16 15 17 17
9 10 11 11 10 11 12 13 13 14 15 16 17 19 20 21 20 19 19 20 18 18 15 13 13 14 14 15 14 12 11 12 12 12 12 12 13 14 15 15 16 16 16
9 10 11 11 12 13 14 15 15 14 15 18 20 20 20 19 18 15 14 16 19 18 16 14 13 12 14 12 13 11 13 14 14 14 13 13 13 13 14 14 15 15 15
10 11 12 13 14 15 15 15 15 14 16 18 20 21 20 18 16 15 17 17 18 21 16 15 15 11 12 13 13 12 14 14 14 14 13 11 11 13 13 13 14 14 13
13 13 14 15 15 16 16 15 15 16 16 17 18 18 18 19 17 17 19 18 17 20 18 14 11 13 15 15 15 14 16 14 13 13 12 13 14 14 14 14 14 13 13
11 13 14 15 15 15 15 15 15 15 16 16 16 16 17 21 18 20 20 20 18 17 18 15 15 16 16 17 16 16 15 16 16 13 14 15 15 15 15 15 14 14 13
9 11 12 13 14 15 15 16 16 16 16 16 15 17 17 19 20 19 19 18 17 16 20 18 16 15 17 17 17 16 16 16 15 14 15 16 16 16 16 16 16 14 13
11 12 14 16 16 17 18 19 19 17 16 16 18 17 19 20 19 18 20 18 16 17 22 19 17 17 18 17 16 16 16 15 15 16 17 17 17 17 19 19 17 16 14
13 14 15 16 17 18 19 20 21 20 17 17 17 19 18 18 18 18 20 18 19 20 23 21 20 21 17 18 17 16 15 15 18 18 19 20 21 20 21 21 21 17 16
13 14 16 17 18 19 19 19 21 21 20 19 16 16 16 17 18 18 18 21 22 20 22 24 24 22 18 16 16 16 17 18 18 20 21 22 22 23 23 23 22 20 20
13 14 16 18 18 19 19 19 20 20 19 19 18 16 16 17 18 15 16 20 22 20 21 23 25 24 20 19 18 18 20 20 21 21 22 22 23 24 25 25 24 24 25
11 12 12 13 14 15 17 17 18 18 19 19 18 16 17 18 20 18 16 18 19 20 20 22 25 25 23 22 22 22 22 22 23 23 23 24 24 25 25 25 26 26 26
12 12 12 12 12 13 15 16 16 17 17 18 18 18 17 18 19 20 18 19 19 19 19 20 23 27 27 25 25 25 26 26 25 25 25 25 25 26 26 27 28 28 27
11 11 11 12 13 14 14 14 14 15 16 17 18 18 18 19 20 21 22 21 20 20 20 20 22 24 28 29 28 28 29 28 28 26 26 27 27 27 28 28 28 30 29
12 12 12 12 12 12 13 15 17 16 17 18 18 19 20 20 20 21 22 22 22 21 21 22 22 23 24 25 27 29 31 30 31 31 29 30 30 30 30 30 32 32 30
12 13 13 14 14 14 14 15 16 16 17 18 18 19 19 20 20 20 19 19 20 20 22 23 24 25 25 26 26 27 27 28 31 33 35 35 35 34 34 33 32 31 31
14 15 15 16 16 16 17 17 18 17 17 17 17 18 19 19 19 19 19 20 21 22 23 23 24 24 24 25 25 25 26 27 27 27 30 33 36 37 36 35 35 35 36

GFSGL_850_spd_108.txt.gz
Wind_Speed
11 10 11 12 12 12 11 11 11 10 11 10 10 8 9 12 14 14 13 14 15 16 17 18 19 21 21 20 21 20 18 21 24 29 22 20 22 20 20 18 17 15 17
15 13 12 13 15 14 14 14 13 13 12 13 12 9 11 10 10 11 12 14 15 17 18 19 19 19 19 21 20 16 20 21 22 28 24 20 24 22 19 21 20 17 18
16 15 14 16 16 15 15 14 15 15 15 14 11 10 10 10 11 12 13 13 14 14 15 17 18 19 20 21 19 16 17 17 19 20 18 17 19 20 23 23 21 18 17
16 13 13 14 14 15 16 17 17 15 13 10 9 10 10 11 11 11 11 11 12 13 15 17 18 20 20 20 18 15 17 18 20 22 22 17 16 19 19 21 22 20 17
13 13 13 13 15 16 16 15 13 12 9 9 10 11 10 10 10 10 11 13 14 15 17 18 19 20 22 21 19 18 18 18 16 17 16 16 17 18 21 22 22 20 18
12 13 13 13 12 13 14 12 11 10 10 10 10 9 9 9 11 12 14 15 17 18 19 20 20 21 21 21 19 18 19 22 21 22 22 21 21 19 19 20 21 23 20
14 13 12 13 13 13 13 13 11 10 9 8 9 8 8 10 12 14 16 18 19 21 21 21 19 20 23 22 18 18 19 21 23 24 24 23 21 19 17 18 21 21 21
13 13 14 14 14 14 14 12 10 10 9 9 8 7 9 12 14 17 19 21 21 22 21 19 18 18 19 18 16 16 17 18 18 19 19 19 19 17 16 16 15 19 20
12 12 11 12 13 13 12 12 10 9 8 8 7 8 10 13 16 20 22 23 22 19 18 18 18 16 12 14 15 15 13 12 12 12 13 14 15 15 15 15 19 20 20
10 12 13 13 11 11 10 11 9 9 8 8 7 9 12 14 17 22 23 21 19 18 16 16 16 13 11 13 13 13 12 11 11 11 12 13 13 14 15 16 16 17 18
9 10 10 11 11 12 12 10 9 9 9 8 8 11 13 15 18 20 20 19 18 17 17 15 15 12 14 12 13 11 12 12 11 10 10 11 12 12 13 15 15 16 16
8 9 10 11 11 11 12 11 10 11 11 11 10 11 15 17 19 17 15 15 17 19 17 18 15 13 14 14 13 11 11 12 12 12 12 12 11 12 13 14 15 16 16
7 8 10 10 12 12 12 12 12 13 14 12 14 15 16 18 16 17 15 16 17 19 18 17 17 14 14 13 10 10 12 12 12 12 11 11 11 13 12 13 13 14 15
8 9 11 12 13 13 14 14 15 15 14 15 16 15 15 15 16 17 17 17 17 17 18 18 16 13 12 11 11 12 13 13 13 13 12 13 13 12 12 12 12 12 13
10 10 12 13 13 14 14 14 15 14 15 15 15 15 14 15 13 16 19 18 17 16 18 19 17 15 14 14 14 14 14 14 13 12 12 14 14 14 14 13 14 14 14
7 9 10 12 13 14 14 15 16 17 17 16 17 16 15 18 16 17 20 19 17 16 19 20 17 15 15 15 14 14 14 14 14 13 13 15 14 14 14 15 15 15 14
9 10 11 13 14 15 16 17 18 18 19 18 18 18 16 17 17 18 18 18 18 17 18 20 16 15 15 15 15 15 14 13 13 14 16 14 16 15 17 17 17 17 16
12 12 13 13 14 15 17 18 19 19 19 20 20 19 18 18 17 17 16 18 19 18 18 20 19 15 16 17 15 15 13 12 14 15 17 15 17 17 19 19 20 18 17
12 12 13 13 15 17 18 20 20 20 22 21 21 20 17 18 18 18 18 19 21 18 17 17 18 17 18 18 16 15 14 13 15 16 15 17 18 20 21 22 20 20 20
12 13 13 13 13 14 16 18 20 19 20 20 20 18 17 17 18 18 17 17 19 21 18 18 18 18 19 19 18 17 17 17 18 18 18 18 19 20 22 22 23 23 24
13 12 13 13 13 13 14 15 16 17 18 17 17 15 16 17 17 18 17 17 18 18 18 17 17 18 19 20 21 20 19 20 20 21 20 20 20 22 22 23 24 24 25
11 12 12 13 13 13 13 13 14 15 15 15 15 16 17 17 17 18 18 18 18 18 18 19 20 19 18 19 21 24 24 23 23 23 23 22 22 23 24 25 25 26 26
11 11 11 11 12 12 12 13 14 13 13 14 15 15 16 15 16 17 18 19 20 20 19 19 19 20 21 20 20 22 26 27 25 25 25 26 25 25 26 26 27 28 28
11 12 12 12 12 12 12 12 12 13 15 17 18 18 19 19 20 19 20 19 19 20 19 19 20 21 21 22 22 22 23 24 25 28 28 28 29 28 29 29 30 30 31
11 12 12 13 13 13 13 13 14 14 15 14 15 16 16 17 18 19 21 21 21 21 22 21 21 21 22 22 23 24 24 24 24 25 26 28 30 30 31 33 32 32 31
12 14 14 14 14 14 15 15 15 15 14 14 15 15 14 15 17 17 19 20 19 21 21 20 21 22 23 23 24 23 22 22 23 23 24 26 28 29 30 31 33 34 34

GFSGL_850_spd_111.txt.gz
Wind_Speed
17 16 16 15 15 16 16 16 17 16 14 17 12 10 8 6 4 4 4 5 7 8 10 12 13 14 14 14 15 15 16 16 22 23 23 21 13 17 20 22 21 17 20
14 12 11 11 12 12 15 16 16 13 14 13 8 8 8 5 5 5 5 7 9 10 10 11 13 13 13 14 15 15 16 13 20 22 22 22 23 15 19 21 20 20 21
14 12 12 12 13 15 15 15 14 14 13 10 10 11 9 7 8 6 7 8 9 9 9 10 12 14 15 16 17 17 16 13 16 18 19 20 20 21 21 20 22 23 20
13 14 12 12 14 13 12 13 12 13 12 11 12 11 8 7 7 6 6 8 7 9 10 11 13 15 17 18 19 18 17 16 15 19 20 21 23 24 21 22 21 21 23
14 14 13 12 11 11 11 12 12 12 12 11 11 9 8 8 7 6 6 8 8 10 12 14 16 17 19 20 20 19 19 18 16 17 18 17 17 17 18 19 21 22 21
13 13 13 12 12 12 13 13 13 13 13 12 11 10 9 7 5 6 7 9 11 13 14 15 17 18 18 18 18 20 20 18 18 20 20 20 19 19 19 18 21 23 23
13 13 12 12 13 13 13 14 15 14 13 12 12 10 7 6 6 8 8 11 13 15 15 16 17 17 17 16 17 21 16 17 18 20 21 21 21 20 19 19 20 20 21
13 13 13 13 12 13 14 14 13 13 12 11 9 7 7 8 7 8 9 12 14 16 16 16 15 16 17 17 14 11 15 16 17 19 19 20 21 20 19 17 14 17 21
12 13 13 13 14 15 15 14 13 12 11 11 10 9 7 6 7 8 12 15 17 16 14 14 15 15 15 16 12 10 11 14 13 12 12 12 13 16 17 16 17 18 20
8 9 10 11 12 12 13 13 13 12 11 11 9 7 6 5 7 10 14 17 16 15 14 12 13 14 12 11 13 10 10 11 12 11 11 11 12 13 14 15 15 17 20
7 8 9 11 12 13 13 12 12 12 12 12 10 7 6 5 7 11 13 14 14 15 14 14 14 13 12 10 13 12 11 11 12 11 10 9 9 10 11 13 14 17 18
7 7 8 9 11 12 11 12 13 13 13 12 10 10 10 8 8 11 13 15 16 16 16 14 15 15 13 11 12 12 13 11 10 11 10 10 10 10 11 12 13 15 17
6 8 9 11 11 12 12 13 13 13 14 15 14 13 13 13 11 11 15 16 17 17 16 15 16 17 12 11 11 9 11 10 10 10 10 11 12 12 11 11 13 14 16
7 8 9 10 11 12 13 14 15 16 16 15 14 15 13 12 12 12 13 12 15 17 17 17 17 16 13 11 10 11 11 11 11 11 12 12 13 12 11 11 11 12 13
8 9 10 11 12 13 14 14 15 15 15 15 16 15 12 11 12 12 12 12 14 15 17 16 16 16 15 13 12 12 12 12 12 11 12 13 12 12 11 12 12 12 13
6 7 8 10 11 12 16 15 15 16 16 17 16 15 14 12 14 17 16 17 17 13 16 17 16 16 14 13 13 12 12 12 12 12 13 13 13 12 13 13 13 13 14
9 9 9 10 11 11 12 13 14 15 16 16 16 17 16 15 17 19 17 13 14 12 15 17 17 15 12 13 13 13 12 12 13 13 13 13 13 14 15 14 15 16 16
12 12 12 12 13 12 13 14 15 16 17 17 17 16 16 17 18 19 16 15 17 15 15 16 15 16 14 14 14 13 12 12 13 13 13 12 13 15 16 16 17 16 16
11 11 12 12 13 13 13 14 16 18 19 19 18 18 18 18 19 17 16 16 17 17 14 15 15 15 13 14 16 16 15 14 14 14 14 14 14 16 18 17 17 17 17
10 11 11 12 12 12 13 12 13 14 16 17 19 18 18 17 16 16 16 16 16 15 15 15 15 14 16 16 16 18 19 18 17 17 16 15 16 17 18 18 19 20 21
9 9 10 10 11 11 11 11 11 12 14 14 15 14 13 13 13 14 15 15 15 15 15 15 15 16 16 16 17 19 21 21 20 19 19 18 18 19 18 19 20 20 22
10 10 10 10 10 9 10 11 10 10 11 11 11 10 10 11 12 14 15 15 15 15 16 17 18 18 17 17 16 16 18 22 23 22 21 21 20 21 22 22 23 23 23
11 11 10 10 10 10 9 10 10 10 11 11 12 12 12 12 12 13 14 14 15 16 17 18 18 18 18 18 18 18 18 19 20 23 25 24 24 23 23 24 25 26 26
10 10 10 10 10 10 10 10 10 10 10 11 12 14 15 16 16 16 18 19 20 19 19 18 17 17 17 17 18 19 20 20 20 20 21 23 26 26 26 26 27 27 28
9 11 12 12 12 12 12 12 11 11 11 10 10 12 12 13 13 13 15 16 17 17 19 20 20 20 20 20 19 18 19 20 20 20 21 22 24 24 25 27 29 29 30
9 12 14 15 14 14 14 14 13 13 12 11 11 10 9 10 11 12 12 13 13 14 14 16 17 18 18 19 20 22 22 22 21 20 20 22 24 25 26 26 26 28 29

GFSGL_850_spd_114.txt.gz
Wind_Speed
27 24 24 25 27 30 34 28 27 25 27 29 28 23 21 20 17 16 15 15 14 13 13 12 12 12 13 12 12 13 15 16 19 21 23 20 18 18 18 18 20 18 19
25 24 24 23 23 25 25 28 28 27 27 27 24 21 20 19 18 16 14 13 12 12 11 10 9 9 10 12 12 14 15 16 19 20 21 20 19 20 21 21 19 21 22
23 23 22 22 24 25 27 29 30 27 25 26 21 20 20 18 17 15 12 12 11 10 9 9 10 11 12 13 14 16 17 16 17 19 19 20 18 20 18 22 24 22 23
21 24 24 22 22 24 27 28 26 24 25 24 20 20 20 18 15 13 13 12 12 12 11 11 11 13 14 16 17 18 19 18 17 19 20 20 21 20 21 23 23 24 22
20 21 22 22 22 23 25 25 24 24 24 20 18 20 19 17 14 13 13 12 11 11 11 12 12 15 17 18 19 18 19 19 19 21 21 19 19 19 20 19 22 21 20
15 19 20 21 22 22 23 23 22 22 20 19 20 19 18 16 15 13 11 10 11 11 11 12 15 17 18 19 18 17 19 19 21 23 21 21 18 17 16 15 16 19 21
16 16 17 19 20 19 19 19 19 20 20 21 20 18 16 15 13 12 11 11 10 10 12 14 17 18 18 18 17 19 19 18 17 20 21 19 20 19 19 19 18 19 20
13 14 15 16 18 20 21 21 21 21 21 20 18 18 17 15 12 10 8 8 8 11 14 14 16 16 18 17 17 17 17 15 13 16 19 20 22 21 20 19 17 16 18
9 12 14 15 16 17 18 18 19 20 19 18 18 16 15 13 10 7 5 7 10 13 14 15 15 16 17 17 16 14 13 14 13 13 13 13 14 14 15 16 17 18 19
9 11 13 14 16 17 18 19 20 19 19 18 17 16 14 12 9 6 5 9 11 12 13 13 15 15 14 12 13 12 12 13 12 11 11 12 12 13 13 14 16 16 17
7 9 11 12 13 13 14 14 15 17 17 17 16 15 14 12 10 7 5 7 10 11 11 11 13 14 13 14 14 13 13 12 12 11 10 11 11 11 11 13 14 15 16
5 6 8 10 12 13 14 16 16 17 17 16 15 15 14 13 13 12 9 7 8 11 12 12 9 13 15 14 15 14 13 13 12 11 10 12 12 12 11 11 13 14 16
6 8 10 12 13 14 15 15 16 18 18 18 17 16 17 16 14 14 13 14 11 9 11 13 15 14 15 15 13 12 12 12 12 11 11 12 13 13 12 12 13 14 16
5 5 7 9 12 13 15 17 17 18 18 18 17 16 16 15 14 12 11 11 10 9 11 13 14 15 16 15 13 12 12 13 13 12 13 14 14 13 13 13 13 13 15
5 6 9 9 10 12 14 15 16 16 16 17 16 17 17 15 13 12 10 11 12 12 14 15 14 15 17 16 15 13 14 14 13 13 14 14 14 13 13 13 14 13 14
6 7 9 10 11 13 15 15 13 15 17 17 17 16 15 16 16 14 13 13 15 16 14 14 13 15 16 15 15 14 15 14 13 14 15 15 14 13 13 13 14 14 14
11 11 11 11 11 12 13 13 13 15 17 17 17 17 18 18 17 16 15 14 16 16 15 15 14 14 14 14 15 16 16 14 14 15 15 14 14 14 14 14 15 16 16
13 14 14 14 14 14 14 14 15 15 16 17 18 19 20 18 17 16 17 17 18 20 17 16 15 14 13 15 17 17 16 16 15 16 15 14 14 15 15 15 16 16 16
12 16 16 15 14 14 14 14 15 15 16 18 19 20 19 19 18 18 20 22 20 19 19 18 16 15 15 15 15 15 18 18 17 16 15 14 14 15 15 15 16 17 17
11 13 15 15 14 14 14 14 15 15 15 15 17 19 19 20 21 22 23 22 20 18 18 18 17 18 18 17 18 18 19 20 21 20 18 17 16 16 17 16 17 18 20
11 11 11 12 12 12 14 14 14 15 14 14 15 16 17 18 17 18 18 17 18 18 19 19 19 18 17 18 17 19 19 19 21 22 21 19 18 19 18 18 19 20 20
6 7 9 11 11 11 12 12 13 14 13 13 12 12 12 13 14 15 15 16 17 18 18 19 19 19 19 19 19 19 18 17 17 19 22 22 21 21 21 22 21 21 21
11 11 11 12 12 12 12 12 12 12 12 13 15 14 12 12 13 14 15 16 16 16 17 17 18 19 19 19 18 19 19 19 17 17 18 21 23 24 23 22 23 24 24
10 8 8 9 10 10 11 11 12 12 12 13 13 14 15 16 18 19 20 20 20 21 21 22 21 21 20 19 19 18 18 18 18 18 18 19 20 21 23 25 25 26 25
8 8 8 9 11 13 14 13 12 12 13 13 13 12 13 14 14 15 15 16 17 18 19 19 20 22 23 23 21 21 21 20 19 18 18 19 20 21 22 23 24 26 27
9 11 13 14 15 16 15 17 16 14 14 13 14 13 13 13 13 13 14 14 14 14 14 15 16 17 19 20 20 20 21 23 23 22 21 21 22 22 22 24 24 25 26

GFSGL_850_spd_117.txt.gz
Wind_Speed
26 27 27 28 27 30 26 27 43 34 34 28 27 27 23 26 28 25 21 19 18 15 16 16 16 16 15 16 16 15 15 14 17 19 22 23 21 20 19 19 19 17 16
14 20 22 24 28 24 27 37 31 38 40 41 36 30 33 33 27 24 22 19 17 17 16 15 17 17 15 15 14 13 14 15 18 21 22 21 20 20 20 19 19 18 18
19 23 25 24 24 25 26 33 32 30 32 33 34 32 28 30 28 26 21 20 19 18 17 17 17 15 15 14 14 15 15 17 18 22 22 24 21 19 20 20 20 19 20
21 24 23 25 26 26 29 33 31 32 34 30 29 27 27 26 25 23 22 21 19 17 16 15 15 14 15 15 16 18 19 19 20 21 22 23 24 23 22 19 18 20 20
21 21 21 22 22 22 25 27 29 31 31 28 27 25 24 25 24 23 21 19 17 15 14 14 15 15 16 17 19 20 22 21 19 19 20 23 23 23 22 20 17 18 20
22 23 23 23 23 22 25 26 27 26 27 27 25 23 25 26 24 22 19 17 15 15 14 15 16 17 19 20 21 20 19 19 19 20 22 22 20 22 22 20 16 14 15
19 23 24 24 24 24 26 25 24 24 24 25 23 23 23 22 20 19 17 16 15 14 15 16 17 18 19 20 20 19 19 19 20 19 19 17 20 21 21 21 18 17 16
11 16 20 21 21 21 22 23 24 24 24 24 24 23 22 20 19 17 16 15 14 13 13 15 17 18 18 18 18 18 17 18 18 17 17 16 17 20 22 22 19 18 17
8 10 12 15 16 18 19 19 20 21 21 21 21 21 20 19 18 17 15 12 10 10 13 14 14 15 17 17 17 17 16 15 15 15 14 15 16 16 16 16 16 17 19
5 8 9 11 12 14 16 17 18 18 18 20 21 20 20 19 18 17 14 11 10 9 10 11 11 13 15 15 15 15 14 15 14 13 14 13 15 14 14 13 15 17 16
3 6 8 10 12 13 15 16 18 19 21 21 21 21 20 20 19 17 15 12 10 9 7 9 11 12 12 12 12 13 15 15 14 14 15 14 14 13 13 13 13 16 16
1 2 4 7 10 13 13 15 16 17 19 20 21 21 21 20 20 20 18 16 15 12 12 11 12 14 15 13 15 14 14 15 15 16 16 13 14 15 14 13 13 14 15
2 1 3 6 7 8 10 14 16 18 21 22 24 23 23 23 23 22 21 18 18 16 16 15 13 13 16 16 16 17 15 14 14 16 15 14 14 14 13 13 14 14 15
6 8 5 6 8 11 13 14 15 17 19 20 22 22 22 22 22 21 20 19 19 19 17 15 15 17 17 15 17 18 16 13 15 17 16 15 14 13 13 13 14 15 16
3 4 8 8 11 11 12 15 17 18 19 21 22 20 22 22 20 19 19 19 18 17 18 17 17 17 17 16 17 17 17 15 16 17 17 16 15 13 13 13 15 15 15
5 5 6 7 8 11 14 17 18 19 18 19 21 21 20 22 21 20 20 20 19 18 19 19 19 13 15 16 16 17 17 17 17 18 16 15 14 14 14 14 14 15 15
12 10 9 10 10 10 11 14 16 16 17 18 18 19 21 22 20 19 20 20 19 18 19 18 17 13 14 15 16 17 17 17 17 17 16 15 14 14 15 15 14 14 15
15 15 12 10 11 12 14 15 16 16 16 15 16 17 18 18 18 18 18 17 20 20 20 19 17 16 16 16 15 16 17 18 17 16 17 15 14 15 15 15 15 14 14
15 15 15 15 14 13 13 14 15 16 17 17 17 17 18 19 19 20 21 23 23 21 21 22 19 18 19 18 17 16 16 15 16 17 17 16 15 16 15 15 14 14 14
13 11 12 13 13 13 13 12 13 15 16 17 17 17 16 18 20 21 23 24 23 22 22 23 21 20 19 19 19 18 18 18 17 18 19 20 18 18 17 16 15 15 16
11 11 12 13 13 13 12 13 12 13 14 15 15 15 16 17 17 19 20 21 22 22 21 22 21 21 21 21 21 20 18 18 18 18 20 21 22 21 19 18 17 17 17
10 12 13 14 14 14 14 14 14 14 14 15 15 14 14 14 15 15 16 16 17 18 19 20 20 20 19 19 19 19 20 20 18 17 17 18 20 22 22 20 20 20 19
14 12 12 12 12 12 13 13 14 14 14 14 14 14 15 15 14 14 14 14 15 15 15 16 16 17 17 17 16 17 18 19 18 18 17 18 17 20 22 23 23 22 21
12 12 12 12 12 12 13 14 14 14 14 14 15 15 15 15 16 18 18 19 19 19 19 20 21 22 21 20 19 19 20 18 18 18 18 18 18 18 19 20 22 24 24
11 11 11 12 13 15 17 17 17 16 17 17 16 16 15 15 14 15 15 16 16 16 17 18 18 19 19 20 20 19 18 19 20 21 19 18 18 18 19 20 21 21 21
14 14 15 15 17 18 19 19 19 19 18 18 18 19 17 17 16 14 14 14 14 14 14 13 13 14 14 15 16 17 19 20 21 22 23 22 22 21 21 22 22 22 22